<?xml version="1.0" encoding="UTF-8" standalone="no" ?>
<gpx xmlns="http://www.topografix.com/GPX/1/1" creator="www.cicloide.com" version="1.1" xmlns:xsi="http://www.w3.org/2001/XMLSchema-instance" xsi:schemaLocation="http://www.topografix.com/GPX/1/1 http://www.topografix.com/GPX/1/1/gpx.xsd">
  <trk>
    <name>www.cicloide.com 20964</name>
    <desc>www.cicloide.com 20964</desc>
    <trkseg>
      <trkpt lat="41.610739150" lon="2.540229440">
        <ele>124.15</ele>
        <time>2015-02-15T06:13:03Z</time>
      </trkpt>
      <trkpt lat="41.611031090" lon="2.540021820">
        <ele>125.59</ele>
        <time>2015-02-15T06:13:15Z</time>
      </trkpt>
      <trkpt lat="41.611334600" lon="2.539811770">
        <ele>127.03</ele>
        <time>2015-02-15T06:13:29Z</time>
      </trkpt>
      <trkpt lat="41.611385730" lon="2.539750830">
        <ele>127.03</ele>
        <time>2015-02-15T06:13:31Z</time>
      </trkpt>
      <trkpt lat="41.611469970" lon="2.539574470">
        <ele>127.51</ele>
        <time>2015-02-15T06:13:36Z</time>
      </trkpt>
      <trkpt lat="41.611716060" lon="2.539288740">
        <ele>128.47</ele>
        <time>2015-02-15T06:13:46Z</time>
      </trkpt>
      <trkpt lat="41.611932820" lon="2.539055050">
        <ele>128.95</ele>
        <time>2015-02-15T06:13:55Z</time>
      </trkpt>
      <trkpt lat="41.612070360" lon="2.538830250">
        <ele>129.92</ele>
        <time>2015-02-15T06:14:03Z</time>
      </trkpt>
      <trkpt lat="41.612201540" lon="2.538594380">
        <ele>130.88</ele>
        <time>2015-02-15T06:14:10Z</time>
      </trkpt>
      <trkpt lat="41.612363310" lon="2.538295400">
        <ele>131.84</ele>
        <time>2015-02-15T06:14:20Z</time>
      </trkpt>
      <trkpt lat="41.612520720" lon="2.538060790">
        <ele>132.80</ele>
        <time>2015-02-15T06:14:29Z</time>
      </trkpt>
      <trkpt lat="41.612691880" lon="2.537850480">
        <ele>133.28</ele>
        <time>2015-02-15T06:14:38Z</time>
      </trkpt>
      <trkpt lat="41.612711660" lon="2.537832300">
        <ele>133.76</ele>
        <time>2015-02-15T06:14:39Z</time>
      </trkpt>
      <trkpt lat="41.612757180" lon="2.537770610">
        <ele>133.76</ele>
        <time>2015-02-15T06:14:42Z</time>
      </trkpt>
      <trkpt lat="41.612946190" lon="2.537537840">
        <ele>135.20</ele>
        <time>2015-02-15T06:14:52Z</time>
      </trkpt>
      <trkpt lat="41.613167890" lon="2.537301050">
        <ele>136.16</ele>
        <time>2015-02-15T06:15:02Z</time>
      </trkpt>
      <trkpt lat="41.613409460" lon="2.537018500">
        <ele>137.13</ele>
        <time>2015-02-15T06:15:12Z</time>
      </trkpt>
      <trkpt lat="41.613572320" lon="2.536781460">
        <ele>138.09</ele>
        <time>2015-02-15T06:15:22Z</time>
      </trkpt>
      <trkpt lat="41.613589500" lon="2.536550620">
        <ele>139.05</ele>
        <time>2015-02-15T06:15:29Z</time>
      </trkpt>
      <trkpt lat="41.613679350" lon="2.536281390">
        <ele>139.53</ele>
        <time>2015-02-15T06:15:38Z</time>
      </trkpt>
      <trkpt lat="41.613797540" lon="2.535988190">
        <ele>140.97</ele>
        <time>2015-02-15T06:15:48Z</time>
      </trkpt>
      <trkpt lat="41.613898540" lon="2.535730620">
        <ele>141.93</ele>
        <time>2015-02-15T06:15:57Z</time>
      </trkpt>
      <trkpt lat="41.614038940" lon="2.535365750">
        <ele>143.37</ele>
        <time>2015-02-15T06:16:08Z</time>
      </trkpt>
      <trkpt lat="41.614171200" lon="2.535014550">
        <ele>144.82</ele>
        <time>2015-02-15T06:16:19Z</time>
      </trkpt>
      <trkpt lat="41.614267260" lon="2.534670980">
        <ele>146.26</ele>
        <time>2015-02-15T06:16:30Z</time>
      </trkpt>
      <trkpt lat="41.614364410" lon="2.534353970">
        <ele>147.22</ele>
        <time>2015-02-15T06:16:41Z</time>
      </trkpt>
      <trkpt lat="41.614447470" lon="2.534028670">
        <ele>148.66</ele>
        <time>2015-02-15T06:16:52Z</time>
      </trkpt>
      <trkpt lat="41.614567670" lon="2.533665150">
        <ele>149.62</ele>
        <time>2015-02-15T06:17:03Z</time>
      </trkpt>
      <trkpt lat="41.614676130" lon="2.533348560">
        <ele>151.06</ele>
        <time>2015-02-15T06:17:13Z</time>
      </trkpt>
      <trkpt lat="41.614784170" lon="2.532990740">
        <ele>151.54</ele>
        <time>2015-02-15T06:17:24Z</time>
      </trkpt>
      <trkpt lat="41.614866230" lon="2.532715140">
        <ele>152.51</ele>
        <time>2015-02-15T06:17:33Z</time>
      </trkpt>
      <trkpt lat="41.614931110" lon="2.532468720">
        <ele>153.47</ele>
        <time>2015-02-15T06:17:41Z</time>
      </trkpt>
      <trkpt lat="41.615008310" lon="2.532211640">
        <ele>154.43</ele>
        <time>2015-02-15T06:17:49Z</time>
      </trkpt>
      <trkpt lat="41.615047700" lon="2.531873350">
        <ele>154.91</ele>
        <time>2015-02-15T06:17:59Z</time>
      </trkpt>
      <trkpt lat="41.615074190" lon="2.531595820">
        <ele>155.87</ele>
        <time>2015-02-15T06:18:07Z</time>
      </trkpt>
      <trkpt lat="41.615078380" lon="2.531307570">
        <ele>156.83</ele>
        <time>2015-02-15T06:18:15Z</time>
      </trkpt>
      <trkpt lat="41.615101430" lon="2.530972210">
        <ele>157.79</ele>
        <time>2015-02-15T06:18:24Z</time>
      </trkpt>
      <trkpt lat="41.615127160" lon="2.530655290">
        <ele>158.75</ele>
        <time>2015-02-15T06:18:32Z</time>
      </trkpt>
      <trkpt lat="41.615135210" lon="2.530270140">
        <ele>160.20</ele>
        <time>2015-02-15T06:18:42Z</time>
      </trkpt>
      <trkpt lat="41.615151800" lon="2.529973680">
        <ele>161.16</ele>
        <time>2015-02-15T06:18:50Z</time>
      </trkpt>
      <trkpt lat="41.615164040" lon="2.529576620">
        <ele>162.12</ele>
        <time>2015-02-15T06:19:00Z</time>
      </trkpt>
      <trkpt lat="41.615189020" lon="2.529269600">
        <ele>162.60</ele>
        <time>2015-02-15T06:19:08Z</time>
      </trkpt>
      <trkpt lat="41.615205450" lon="2.528967930">
        <ele>164.52</ele>
        <time>2015-02-15T06:19:17Z</time>
      </trkpt>
      <trkpt lat="41.615251630" lon="2.528680180">
        <ele>165.00</ele>
        <time>2015-02-15T06:19:25Z</time>
      </trkpt>
      <trkpt lat="41.615321200" lon="2.528327390">
        <ele>165.96</ele>
        <time>2015-02-15T06:19:35Z</time>
      </trkpt>
      <trkpt lat="41.615399400" lon="2.527992530">
        <ele>166.45</ele>
        <time>2015-02-15T06:19:45Z</time>
      </trkpt>
      <trkpt lat="41.615444830" lon="2.527744680">
        <ele>167.41</ele>
        <time>2015-02-15T06:19:53Z</time>
      </trkpt>
      <trkpt lat="41.615498060" lon="2.527485670">
        <ele>167.89</ele>
        <time>2015-02-15T06:20:02Z</time>
      </trkpt>
      <trkpt lat="41.615543410" lon="2.527265990">
        <ele>169.33</ele>
        <time>2015-02-15T06:20:10Z</time>
      </trkpt>
      <trkpt lat="41.615580790" lon="2.527048060">
        <ele>169.81</ele>
        <time>2015-02-15T06:20:18Z</time>
      </trkpt>
      <trkpt lat="41.615600820" lon="2.526821910">
        <ele>171.25</ele>
        <time>2015-02-15T06:20:25Z</time>
      </trkpt>
      <trkpt lat="41.615586570" lon="2.526572970">
        <ele>172.69</ele>
        <time>2015-02-15T06:20:34Z</time>
      </trkpt>
      <trkpt lat="41.615565370" lon="2.526360820">
        <ele>173.66</ele>
        <time>2015-02-15T06:20:41Z</time>
      </trkpt>
      <trkpt lat="41.615529160" lon="2.526009120">
        <ele>174.14</ele>
        <time>2015-02-15T06:20:52Z</time>
      </trkpt>
      <trkpt lat="41.615522950" lon="2.525801160">
        <ele>175.10</ele>
        <time>2015-02-15T06:20:59Z</time>
      </trkpt>
      <trkpt lat="41.615523210" lon="2.525419120">
        <ele>176.06</ele>
        <time>2015-02-15T06:21:09Z</time>
      </trkpt>
      <trkpt lat="41.615528570" lon="2.525140080">
        <ele>177.02</ele>
        <time>2015-02-15T06:21:17Z</time>
      </trkpt>
      <trkpt lat="41.615546840" lon="2.524900530">
        <ele>177.98</ele>
        <time>2015-02-15T06:21:24Z</time>
      </trkpt>
      <trkpt lat="41.615576180" lon="2.524508840">
        <ele>179.42</ele>
        <time>2015-02-15T06:21:35Z</time>
      </trkpt>
      <trkpt lat="41.615609120" lon="2.524212290">
        <ele>180.87</ele>
        <time>2015-02-15T06:21:44Z</time>
      </trkpt>
      <trkpt lat="41.615623030" lon="2.523920010">
        <ele>182.79</ele>
        <time>2015-02-15T06:21:53Z</time>
      </trkpt>
      <trkpt lat="41.615628820" lon="2.523705440">
        <ele>184.23</ele>
        <time>2015-02-15T06:22:00Z</time>
      </trkpt>
      <trkpt lat="41.615635020" lon="2.523670400">
        <ele>184.23</ele>
        <time>2015-02-15T06:22:01Z</time>
      </trkpt>
      <trkpt lat="41.615660500" lon="2.523458920">
        <ele>184.71</ele>
        <time>2015-02-15T06:22:07Z</time>
      </trkpt>
      <trkpt lat="41.615688830" lon="2.523164890">
        <ele>185.19</ele>
        <time>2015-02-15T06:22:14Z</time>
      </trkpt>
      <trkpt lat="41.615693780" lon="2.522906640">
        <ele>186.15</ele>
        <time>2015-02-15T06:22:21Z</time>
      </trkpt>
      <trkpt lat="41.615723030" lon="2.522723080">
        <ele>186.63</ele>
        <time>2015-02-15T06:22:27Z</time>
      </trkpt>
      <trkpt lat="41.615739630" lon="2.522427530">
        <ele>188.08</ele>
        <time>2015-02-15T06:22:36Z</time>
      </trkpt>
      <trkpt lat="41.615767540" lon="2.522196110">
        <ele>188.56</ele>
        <time>2015-02-15T06:22:43Z</time>
      </trkpt>
      <trkpt lat="41.615804500" lon="2.521936180">
        <ele>190.00</ele>
        <time>2015-02-15T06:22:51Z</time>
      </trkpt>
      <trkpt lat="41.615851520" lon="2.521733340">
        <ele>190.48</ele>
        <time>2015-02-15T06:22:58Z</time>
      </trkpt>
      <trkpt lat="41.615892090" lon="2.521462020">
        <ele>190.48</ele>
        <time>2015-02-15T06:23:05Z</time>
      </trkpt>
      <trkpt lat="41.615951100" lon="2.521237130">
        <ele>191.44</ele>
        <time>2015-02-15T06:23:12Z</time>
      </trkpt>
      <trkpt lat="41.616005080" lon="2.521023480">
        <ele>191.92</ele>
        <time>2015-02-15T06:23:18Z</time>
      </trkpt>
      <trkpt lat="41.616050090" lon="2.520822900">
        <ele>191.92</ele>
        <time>2015-02-15T06:23:24Z</time>
      </trkpt>
      <trkpt lat="41.616101560" lon="2.520558700">
        <ele>192.88</ele>
        <time>2015-02-15T06:23:31Z</time>
      </trkpt>
      <trkpt lat="41.616197280" lon="2.520333900">
        <ele>192.88</ele>
        <time>2015-02-15T06:23:38Z</time>
      </trkpt>
      <trkpt lat="41.616272300" lon="2.520115050">
        <ele>193.84</ele>
        <time>2015-02-15T06:23:45Z</time>
      </trkpt>
      <trkpt lat="41.616347060" lon="2.519891250">
        <ele>194.80</ele>
        <time>2015-02-15T06:23:52Z</time>
      </trkpt>
      <trkpt lat="41.616418140" lon="2.519655050">
        <ele>195.28</ele>
        <time>2015-02-15T06:24:00Z</time>
      </trkpt>
      <trkpt lat="41.616469270" lon="2.519432590">
        <ele>196.25</ele>
        <time>2015-02-15T06:24:08Z</time>
      </trkpt>
      <trkpt lat="41.616507070" lon="2.519231090">
        <ele>197.21</ele>
        <time>2015-02-15T06:24:15Z</time>
      </trkpt>
      <trkpt lat="41.616570690" lon="2.518953740">
        <ele>197.69</ele>
        <time>2015-02-15T06:24:23Z</time>
      </trkpt>
      <trkpt lat="41.616654510" lon="2.518673860">
        <ele>198.17</ele>
        <time>2015-02-15T06:24:31Z</time>
      </trkpt>
      <trkpt lat="41.616710500" lon="2.518458370">
        <ele>198.17</ele>
        <time>2015-02-15T06:24:36Z</time>
      </trkpt>
      <trkpt lat="41.616749060" lon="2.518162740">
        <ele>198.17</ele>
        <time>2015-02-15T06:24:44Z</time>
      </trkpt>
      <trkpt lat="41.616744200" lon="2.517950510">
        <ele>198.65</ele>
        <time>2015-02-15T06:24:51Z</time>
      </trkpt>
      <trkpt lat="41.616757940" lon="2.517734920">
        <ele>199.61</ele>
        <time>2015-02-15T06:24:58Z</time>
      </trkpt>
      <trkpt lat="41.616770940" lon="2.517678090">
        <ele>200.09</ele>
        <time>2015-02-15T06:25:00Z</time>
      </trkpt>
      <trkpt lat="41.616777560" lon="2.517555130">
        <ele>201.05</ele>
        <time>2015-02-15T06:25:04Z</time>
      </trkpt>
      <trkpt lat="41.616812760" lon="2.517284140">
        <ele>201.53</ele>
        <time>2015-02-15T06:25:12Z</time>
      </trkpt>
      <trkpt lat="41.616822990" lon="2.517020700">
        <ele>202.49</ele>
        <time>2015-02-15T06:25:19Z</time>
      </trkpt>
      <trkpt lat="41.616841430" lon="2.516699930">
        <ele>203.46</ele>
        <time>2015-02-15T06:25:27Z</time>
      </trkpt>
      <trkpt lat="41.616853330" lon="2.516402870">
        <ele>204.90</ele>
        <time>2015-02-15T06:25:35Z</time>
      </trkpt>
      <trkpt lat="41.616861290" lon="2.516082260">
        <ele>205.38</ele>
        <time>2015-02-15T06:25:43Z</time>
      </trkpt>
      <trkpt lat="41.616871770" lon="2.515776740">
        <ele>206.34</ele>
        <time>2015-02-15T06:25:52Z</time>
      </trkpt>
      <trkpt lat="41.616886350" lon="2.515462250">
        <ele>207.30</ele>
        <time>2015-02-15T06:26:00Z</time>
      </trkpt>
      <trkpt lat="41.616888200" lon="2.515122620">
        <ele>209.22</ele>
        <time>2015-02-15T06:26:09Z</time>
      </trkpt>
      <trkpt lat="41.616871270" lon="2.514794550">
        <ele>209.70</ele>
        <time>2015-02-15T06:26:18Z</time>
      </trkpt>
      <trkpt lat="41.616879980" lon="2.514540830">
        <ele>210.19</ele>
        <time>2015-02-15T06:26:26Z</time>
      </trkpt>
      <trkpt lat="41.616876040" lon="2.514360870">
        <ele>211.15</ele>
        <time>2015-02-15T06:26:33Z</time>
      </trkpt>
      <trkpt lat="41.616878060" lon="2.514038340">
        <ele>212.11</ele>
        <time>2015-02-15T06:26:44Z</time>
      </trkpt>
      <trkpt lat="41.616893980" lon="2.513810520">
        <ele>212.59</ele>
        <time>2015-02-15T06:26:52Z</time>
      </trkpt>
      <trkpt lat="41.616899850" lon="2.513578340">
        <ele>214.03</ele>
        <time>2015-02-15T06:27:00Z</time>
      </trkpt>
      <trkpt lat="41.616899350" lon="2.513282200">
        <ele>214.99</ele>
        <time>2015-02-15T06:27:10Z</time>
      </trkpt>
      <trkpt lat="41.616900600" lon="2.513124210">
        <ele>215.47</ele>
        <time>2015-02-15T06:27:15Z</time>
      </trkpt>
      <trkpt lat="41.616896080" lon="2.512904430">
        <ele>215.95</ele>
        <time>2015-02-15T06:27:23Z</time>
      </trkpt>
      <trkpt lat="41.616839670" lon="2.512658000">
        <ele>216.91</ele>
        <time>2015-02-15T06:27:31Z</time>
      </trkpt>
      <trkpt lat="41.616784010" lon="2.512442840">
        <ele>217.40</ele>
        <time>2015-02-15T06:27:39Z</time>
      </trkpt>
      <trkpt lat="41.616716620" lon="2.512256600">
        <ele>218.36</ele>
        <time>2015-02-15T06:27:46Z</time>
      </trkpt>
      <trkpt lat="41.616635900" lon="2.512111340">
        <ele>218.84</ele>
        <time>2015-02-15T06:27:53Z</time>
      </trkpt>
      <trkpt lat="41.616539600" lon="2.511919140">
        <ele>219.80</ele>
        <time>2015-02-15T06:28:01Z</time>
      </trkpt>
      <trkpt lat="41.616452930" lon="2.511751420">
        <ele>220.76</ele>
        <time>2015-02-15T06:28:08Z</time>
      </trkpt>
      <trkpt lat="41.616388640" lon="2.511517480">
        <ele>221.24</ele>
        <time>2015-02-15T06:28:15Z</time>
      </trkpt>
      <trkpt lat="41.616395590" lon="2.511309780">
        <ele>221.24</ele>
        <time>2015-02-15T06:28:21Z</time>
      </trkpt>
      <trkpt lat="41.616419060" lon="2.511138870">
        <ele>221.72</ele>
        <time>2015-02-15T06:28:27Z</time>
      </trkpt>
      <trkpt lat="41.616469270" lon="2.510886660">
        <ele>223.64</ele>
        <time>2015-02-15T06:28:35Z</time>
      </trkpt>
      <trkpt lat="41.616575220" lon="2.510659840">
        <ele>225.09</ele>
        <time>2015-02-15T06:28:45Z</time>
      </trkpt>
      <trkpt lat="41.616673790" lon="2.510510480">
        <ele>227.49</ele>
        <time>2015-02-15T06:28:54Z</time>
      </trkpt>
      <trkpt lat="41.616732630" lon="2.510355500">
        <ele>229.41</ele>
        <time>2015-02-15T06:29:03Z</time>
      </trkpt>
      <trkpt lat="41.616789460" lon="2.510204290">
        <ele>231.33</ele>
        <time>2015-02-15T06:29:11Z</time>
      </trkpt>
      <trkpt lat="41.616784850" lon="2.509985350">
        <ele>233.74</ele>
        <time>2015-02-15T06:29:22Z</time>
      </trkpt>
      <trkpt lat="41.616810080" lon="2.509806060">
        <ele>234.70</ele>
        <time>2015-02-15T06:29:30Z</time>
      </trkpt>
      <trkpt lat="41.616905630" lon="2.509614540">
        <ele>235.66</ele>
        <time>2015-02-15T06:29:40Z</time>
      </trkpt>
      <trkpt lat="41.616917620" lon="2.509535490">
        <ele>235.66</ele>
        <time>2015-02-15T06:29:44Z</time>
      </trkpt>
      <trkpt lat="41.616880490" lon="2.509504560">
        <ele>235.66</ele>
        <time>2015-02-15T06:29:48Z</time>
      </trkpt>
      <trkpt lat="41.616763560" lon="2.509627950">
        <ele>237.58</ele>
        <time>2015-02-15T06:29:58Z</time>
      </trkpt>
      <trkpt lat="41.616651910" lon="2.509809670">
        <ele>238.54</ele>
        <time>2015-02-15T06:30:09Z</time>
      </trkpt>
      <trkpt lat="41.616513360" lon="2.509829200">
        <ele>239.51</ele>
        <time>2015-02-15T06:30:17Z</time>
      </trkpt>
      <trkpt lat="41.616446300" lon="2.509791390">
        <ele>241.43</ele>
        <time>2015-02-15T06:30:24Z</time>
      </trkpt>
      <trkpt lat="41.616330050" lon="2.509500120">
        <ele>244.31</ele>
        <time>2015-02-15T06:30:37Z</time>
      </trkpt>
      <trkpt lat="41.616334490" lon="2.509239780">
        <ele>247.68</ele>
        <time>2015-02-15T06:30:52Z</time>
      </trkpt>
      <trkpt lat="41.616277830" lon="2.508943900">
        <ele>251.04</ele>
        <time>2015-02-15T06:31:07Z</time>
      </trkpt>
      <trkpt lat="41.616245390" lon="2.508740640">
        <ele>253.44</ele>
        <time>2015-02-15T06:31:19Z</time>
      </trkpt>
      <trkpt lat="41.616193250" lon="2.508549530">
        <ele>256.33</ele>
        <time>2015-02-15T06:31:31Z</time>
      </trkpt>
      <trkpt lat="41.616134920" lon="2.508314840">
        <ele>258.25</ele>
        <time>2015-02-15T06:31:44Z</time>
      </trkpt>
      <trkpt lat="41.616066690" lon="2.508114090">
        <ele>260.65</ele>
        <time>2015-02-15T06:31:56Z</time>
      </trkpt>
      <trkpt lat="41.616028800" lon="2.507992720">
        <ele>262.10</ele>
        <time>2015-02-15T06:32:05Z</time>
      </trkpt>
      <trkpt lat="41.615983960" lon="2.507821980">
        <ele>263.54</ele>
        <time>2015-02-15T06:32:14Z</time>
      </trkpt>
      <trkpt lat="41.615936430" lon="2.507664070">
        <ele>264.98</ele>
        <time>2015-02-15T06:32:24Z</time>
      </trkpt>
      <trkpt lat="41.615858650" lon="2.507459800">
        <ele>267.38</ele>
        <time>2015-02-15T06:32:36Z</time>
      </trkpt>
      <trkpt lat="41.615809360" lon="2.507323760">
        <ele>268.35</ele>
        <time>2015-02-15T06:32:46Z</time>
      </trkpt>
      <trkpt lat="41.615793020" lon="2.507332140">
        <ele>268.35</ele>
        <time>2015-02-15T06:33:00Z</time>
      </trkpt>
      <trkpt lat="41.615775420" lon="2.507310010">
        <ele>268.35</ele>
        <time>2015-02-15T06:33:14Z</time>
      </trkpt>
      <trkpt lat="41.615763350" lon="2.507309430">
        <ele>268.35</ele>
        <time>2015-02-15T06:33:35Z</time>
      </trkpt>
      <trkpt lat="41.615773240" lon="2.507304570">
        <ele>268.35</ele>
        <time>2015-02-15T06:33:50Z</time>
      </trkpt>
      <trkpt lat="41.615795700" lon="2.507307170">
        <ele>268.35</ele>
        <time>2015-02-15T06:34:06Z</time>
      </trkpt>
      <trkpt lat="41.615799810" lon="2.507288310">
        <ele>268.35</ele>
        <time>2015-02-15T06:34:20Z</time>
      </trkpt>
      <trkpt lat="41.615798130" lon="2.507275150">
        <ele>268.35</ele>
        <time>2015-02-15T06:34:35Z</time>
      </trkpt>
      <trkpt lat="41.615794280" lon="2.507238430">
        <ele>268.83</ele>
        <time>2015-02-15T06:34:38Z</time>
      </trkpt>
      <trkpt lat="41.615770640" lon="2.507174650">
        <ele>269.79</ele>
        <time>2015-02-15T06:34:42Z</time>
      </trkpt>
      <trkpt lat="41.615714230" lon="2.506996780">
        <ele>271.71</ele>
        <time>2015-02-15T06:34:53Z</time>
      </trkpt>
      <trkpt lat="41.615709450" lon="2.506854630">
        <ele>273.63</ele>
        <time>2015-02-15T06:35:02Z</time>
      </trkpt>
      <trkpt lat="41.615732500" lon="2.506626640">
        <ele>276.04</ele>
        <time>2015-02-15T06:35:14Z</time>
      </trkpt>
      <trkpt lat="41.615774830" lon="2.506454140">
        <ele>279.40</ele>
        <time>2015-02-15T06:35:25Z</time>
      </trkpt>
      <trkpt lat="41.615820260" lon="2.506311390">
        <ele>281.32</ele>
        <time>2015-02-15T06:35:35Z</time>
      </trkpt>
      <trkpt lat="41.615868460" lon="2.506175940">
        <ele>282.77</ele>
        <time>2015-02-15T06:35:45Z</time>
      </trkpt>
      <trkpt lat="41.615931400" lon="2.506005120">
        <ele>285.17</ele>
        <time>2015-02-15T06:35:57Z</time>
      </trkpt>
      <trkpt lat="41.615952360" lon="2.505957760">
        <ele>285.65</ele>
        <time>2015-02-15T06:36:00Z</time>
      </trkpt>
      <trkpt lat="41.616011700" lon="2.505779060">
        <ele>288.05</ele>
        <time>2015-02-15T06:36:13Z</time>
      </trkpt>
      <trkpt lat="41.616050260" lon="2.505652830">
        <ele>289.49</ele>
        <time>2015-02-15T06:36:22Z</time>
      </trkpt>
      <trkpt lat="41.616078930" lon="2.505478740">
        <ele>291.42</ele>
        <time>2015-02-15T06:36:35Z</time>
      </trkpt>
      <trkpt lat="41.616146570" lon="2.505278240">
        <ele>293.82</ele>
        <time>2015-02-15T06:36:48Z</time>
      </trkpt>
      <trkpt lat="41.616167350" lon="2.505105570">
        <ele>297.18</ele>
        <time>2015-02-15T06:36:58Z</time>
      </trkpt>
      <trkpt lat="41.616132820" lon="2.504916730">
        <ele>297.67</ele>
        <time>2015-02-15T06:37:07Z</time>
      </trkpt>
      <trkpt lat="41.616105750" lon="2.504867610">
        <ele>298.15</ele>
        <time>2015-02-15T06:37:11Z</time>
      </trkpt>
      <trkpt lat="41.615952280" lon="2.504835590">
        <ele>299.59</ele>
        <time>2015-02-15T06:37:22Z</time>
      </trkpt>
      <trkpt lat="41.615817240" lon="2.504818080">
        <ele>300.07</ele>
        <time>2015-02-15T06:37:33Z</time>
      </trkpt>
      <trkpt lat="41.615725960" lon="2.504804580">
        <ele>301.03</ele>
        <time>2015-02-15T06:37:42Z</time>
      </trkpt>
      <trkpt lat="41.615568050" lon="2.504829730">
        <ele>302.95</ele>
        <time>2015-02-15T06:37:56Z</time>
      </trkpt>
      <trkpt lat="41.615520770" lon="2.504827630">
        <ele>303.91</ele>
        <time>2015-02-15T06:38:03Z</time>
      </trkpt>
      <trkpt lat="41.615436960" lon="2.504812380">
        <ele>304.39</ele>
        <time>2015-02-15T06:38:11Z</time>
      </trkpt>
      <trkpt lat="41.615382890" lon="2.504716150">
        <ele>305.36</ele>
        <time>2015-02-15T06:38:20Z</time>
      </trkpt>
      <trkpt lat="41.615377190" lon="2.504675920">
        <ele>305.84</ele>
        <time>2015-02-15T06:38:23Z</time>
      </trkpt>
      <trkpt lat="41.615356410" lon="2.504525380">
        <ele>307.76</ele>
        <time>2015-02-15T06:38:34Z</time>
      </trkpt>
      <trkpt lat="41.615363280" lon="2.504395460">
        <ele>309.68</ele>
        <time>2015-02-15T06:38:44Z</time>
      </trkpt>
      <trkpt lat="41.615372830" lon="2.504297220">
        <ele>311.12</ele>
        <time>2015-02-15T06:38:52Z</time>
      </trkpt>
      <trkpt lat="41.615374430" lon="2.504204520">
        <ele>312.09</ele>
        <time>2015-02-15T06:39:00Z</time>
      </trkpt>
      <trkpt lat="41.615390600" lon="2.504077450">
        <ele>313.53</ele>
        <time>2015-02-15T06:39:10Z</time>
      </trkpt>
      <trkpt lat="41.615401000" lon="2.503957250">
        <ele>315.93</ele>
        <time>2015-02-15T06:39:19Z</time>
      </trkpt>
      <trkpt lat="41.615419610" lon="2.503827330">
        <ele>317.85</ele>
        <time>2015-02-15T06:39:29Z</time>
      </trkpt>
      <trkpt lat="41.615423040" lon="2.503714350">
        <ele>319.30</ele>
        <time>2015-02-15T06:39:37Z</time>
      </trkpt>
      <trkpt lat="41.615416340" lon="2.503574700">
        <ele>320.26</ele>
        <time>2015-02-15T06:39:47Z</time>
      </trkpt>
      <trkpt lat="41.615402670" lon="2.503440010">
        <ele>321.70</ele>
        <time>2015-02-15T06:39:57Z</time>
      </trkpt>
      <trkpt lat="41.615375940" lon="2.503273290">
        <ele>321.70</ele>
        <time>2015-02-15T06:40:06Z</time>
      </trkpt>
      <trkpt lat="41.615299740" lon="2.503084190">
        <ele>321.70</ele>
        <time>2015-02-15T06:40:14Z</time>
      </trkpt>
      <trkpt lat="41.615208050" lon="2.502909430">
        <ele>321.70</ele>
        <time>2015-02-15T06:40:21Z</time>
      </trkpt>
      <trkpt lat="41.615144340" lon="2.502706340">
        <ele>321.70</ele>
        <time>2015-02-15T06:40:29Z</time>
      </trkpt>
      <trkpt lat="41.615084160" lon="2.502446500">
        <ele>322.18</ele>
        <time>2015-02-15T06:40:39Z</time>
      </trkpt>
      <trkpt lat="41.615049540" lon="2.502270650">
        <ele>322.66</ele>
        <time>2015-02-15T06:40:47Z</time>
      </trkpt>
      <trkpt lat="41.615002350" lon="2.502113320">
        <ele>324.10</ele>
        <time>2015-02-15T06:40:55Z</time>
      </trkpt>
      <trkpt lat="41.614969920" lon="2.501914330">
        <ele>325.06</ele>
        <time>2015-02-15T06:41:04Z</time>
      </trkpt>
      <trkpt lat="41.614953150" lon="2.501736890">
        <ele>326.02</ele>
        <time>2015-02-15T06:41:12Z</time>
      </trkpt>
      <trkpt lat="41.614960030" lon="2.501548040">
        <ele>326.02</ele>
        <time>2015-02-15T06:41:18Z</time>
      </trkpt>
      <trkpt lat="41.614853910" lon="2.501434050">
        <ele>326.02</ele>
        <time>2015-02-15T06:41:24Z</time>
      </trkpt>
      <trkpt lat="41.614680490" lon="2.501390970">
        <ele>326.50</ele>
        <time>2015-02-15T06:41:33Z</time>
      </trkpt>
      <trkpt lat="41.614517130" lon="2.501281160">
        <ele>327.47</ele>
        <time>2015-02-15T06:41:43Z</time>
      </trkpt>
      <trkpt lat="41.614378150" lon="2.501185360">
        <ele>328.91</ele>
        <time>2015-02-15T06:41:52Z</time>
      </trkpt>
      <trkpt lat="41.614293500" lon="2.501031720">
        <ele>330.35</ele>
        <time>2015-02-15T06:42:01Z</time>
      </trkpt>
      <trkpt lat="41.614246310" lon="2.500814710">
        <ele>332.27</ele>
        <time>2015-02-15T06:42:12Z</time>
      </trkpt>
      <trkpt lat="41.614170950" lon="2.500642130">
        <ele>334.68</ele>
        <time>2015-02-15T06:42:23Z</time>
      </trkpt>
      <trkpt lat="41.614061230" lon="2.500497710">
        <ele>337.56</ele>
        <time>2015-02-15T06:42:35Z</time>
      </trkpt>
      <trkpt lat="41.613986470" lon="2.500371980">
        <ele>339.96</ele>
        <time>2015-02-15T06:42:47Z</time>
      </trkpt>
      <trkpt lat="41.613930900" lon="2.500241720">
        <ele>342.85</ele>
        <time>2015-02-15T06:42:58Z</time>
      </trkpt>
      <trkpt lat="41.613849670" lon="2.500132670">
        <ele>345.25</ele>
        <time>2015-02-15T06:43:10Z</time>
      </trkpt>
      <trkpt lat="41.613832580" lon="2.500001670">
        <ele>346.69</ele>
        <time>2015-02-15T06:43:20Z</time>
      </trkpt>
      <trkpt lat="41.613908770" lon="2.500036120">
        <ele>348.13</ele>
        <time>2015-02-15T06:43:28Z</time>
      </trkpt>
      <trkpt lat="41.614002900" lon="2.500140470">
        <ele>350.54</ele>
        <time>2015-02-15T06:43:40Z</time>
      </trkpt>
      <trkpt lat="41.614126360" lon="2.500211720">
        <ele>351.98</ele>
        <time>2015-02-15T06:43:52Z</time>
      </trkpt>
      <trkpt lat="41.614248650" lon="2.500254210">
        <ele>353.90</ele>
        <time>2015-02-15T06:44:04Z</time>
      </trkpt>
      <trkpt lat="41.614351580" lon="2.500320680">
        <ele>356.31</ele>
        <time>2015-02-15T06:44:15Z</time>
      </trkpt>
      <trkpt lat="41.614454510" lon="2.500434760">
        <ele>358.71</ele>
        <time>2015-02-15T06:44:28Z</time>
      </trkpt>
      <trkpt lat="41.614589800" lon="2.500542800">
        <ele>361.11</ele>
        <time>2015-02-15T06:44:41Z</time>
      </trkpt>
      <trkpt lat="41.614662720" lon="2.500559900">
        <ele>362.07</ele>
        <time>2015-02-15T06:44:47Z</time>
      </trkpt>
      <trkpt lat="41.614833790" lon="2.500524360">
        <ele>363.04</ele>
        <time>2015-02-15T06:45:00Z</time>
      </trkpt>
      <trkpt lat="41.615010230" lon="2.500535680">
        <ele>363.52</ele>
        <time>2015-02-15T06:45:10Z</time>
      </trkpt>
      <trkpt lat="41.615160440" lon="2.500648250">
        <ele>364.00</ele>
        <time>2015-02-15T06:45:20Z</time>
      </trkpt>
      <trkpt lat="41.615289690" lon="2.500564930">
        <ele>365.44</ele>
        <time>2015-02-15T06:45:30Z</time>
      </trkpt>
      <trkpt lat="41.615465960" lon="2.500455800">
        <ele>366.40</ele>
        <time>2015-02-15T06:45:43Z</time>
      </trkpt>
      <trkpt lat="41.615678440" lon="2.500464100">
        <ele>368.32</ele>
        <time>2015-02-15T06:45:56Z</time>
      </trkpt>
      <trkpt lat="41.615766870" lon="2.500400060">
        <ele>369.76</ele>
        <time>2015-02-15T06:46:05Z</time>
      </trkpt>
      <trkpt lat="41.615732920" lon="2.500249770">
        <ele>372.65</ele>
        <time>2015-02-15T06:46:16Z</time>
      </trkpt>
      <trkpt lat="41.615686900" lon="2.500230490">
        <ele>373.61</ele>
        <time>2015-02-15T06:46:20Z</time>
      </trkpt>
      <trkpt lat="41.615513230" lon="2.500244320">
        <ele>376.49</ele>
        <time>2015-02-15T06:46:35Z</time>
      </trkpt>
      <trkpt lat="41.615350120" lon="2.500256810">
        <ele>378.90</ele>
        <time>2015-02-15T06:46:47Z</time>
      </trkpt>
      <trkpt lat="41.615244420" lon="2.500240630">
        <ele>380.34</ele>
        <time>2015-02-15T06:46:56Z</time>
      </trkpt>
      <trkpt lat="41.615178120" lon="2.500137200">
        <ele>381.30</ele>
        <time>2015-02-15T06:47:03Z</time>
      </trkpt>
      <trkpt lat="41.615111400" lon="2.500029750">
        <ele>382.26</ele>
        <time>2015-02-15T06:47:11Z</time>
      </trkpt>
      <trkpt lat="41.615008810" lon="2.500009210">
        <ele>383.70</ele>
        <time>2015-02-15T06:47:20Z</time>
      </trkpt>
      <trkpt lat="41.614876790" lon="2.500032010">
        <ele>386.11</ele>
        <time>2015-02-15T06:47:30Z</time>
      </trkpt>
      <trkpt lat="41.614756600" lon="2.499958250">
        <ele>388.51</ele>
        <time>2015-02-15T06:47:41Z</time>
      </trkpt>
      <trkpt lat="41.614667330" lon="2.499824810">
        <ele>390.91</ele>
        <time>2015-02-15T06:47:53Z</time>
      </trkpt>
      <trkpt lat="41.614614690" lon="2.499690360">
        <ele>392.84</ele>
        <time>2015-02-15T06:48:04Z</time>
      </trkpt>
      <trkpt lat="41.614562300" lon="2.499545940">
        <ele>395.72</ele>
        <time>2015-02-15T06:48:17Z</time>
      </trkpt>
      <trkpt lat="41.614546800" lon="2.499346700">
        <ele>398.12</ele>
        <time>2015-02-15T06:48:30Z</time>
      </trkpt>
      <trkpt lat="41.614591890" lon="2.499234720">
        <ele>399.08</ele>
        <time>2015-02-15T06:48:39Z</time>
      </trkpt>
      <trkpt lat="41.614644700" lon="2.499025010">
        <ele>401.01</ele>
        <time>2015-02-15T06:48:52Z</time>
      </trkpt>
      <trkpt lat="41.614658530" lon="2.498838260">
        <ele>401.97</ele>
        <time>2015-02-15T06:49:03Z</time>
      </trkpt>
      <trkpt lat="41.614669260" lon="2.498666760">
        <ele>403.41</ele>
        <time>2015-02-15T06:49:13Z</time>
      </trkpt>
      <trkpt lat="41.614690710" lon="2.498502060">
        <ele>404.85</ele>
        <time>2015-02-15T06:49:24Z</time>
      </trkpt>
      <trkpt lat="41.614712840" lon="2.498337020">
        <ele>406.29</ele>
        <time>2015-02-15T06:49:34Z</time>
      </trkpt>
      <trkpt lat="41.614728680" lon="2.498168710">
        <ele>407.74</ele>
        <time>2015-02-15T06:49:45Z</time>
      </trkpt>
      <trkpt lat="41.614703790" lon="2.498019090">
        <ele>409.18</ele>
        <time>2015-02-15T06:49:55Z</time>
      </trkpt>
      <trkpt lat="41.614661130" lon="2.497811730">
        <ele>409.18</ele>
        <time>2015-02-15T06:50:04Z</time>
      </trkpt>
      <trkpt lat="41.614571940" lon="2.497588350">
        <ele>407.26</ele>
        <time>2015-02-15T06:50:09Z</time>
      </trkpt>
      <trkpt lat="41.614333560" lon="2.497364640">
        <ele>404.85</ele>
        <time>2015-02-15T06:50:14Z</time>
      </trkpt>
      <trkpt lat="41.614215540" lon="2.497403950">
        <ele>404.85</ele>
        <time>2015-02-15T06:50:17Z</time>
      </trkpt>
      <trkpt lat="41.614192490" lon="2.497423640">
        <ele>405.81</ele>
        <time>2015-02-15T06:50:18Z</time>
      </trkpt>
      <trkpt lat="41.614063500" lon="2.497646020">
        <ele>408.22</ele>
        <time>2015-02-15T06:50:28Z</time>
      </trkpt>
      <trkpt lat="41.613923440" lon="2.497773590">
        <ele>410.62</ele>
        <time>2015-02-15T06:50:39Z</time>
      </trkpt>
      <trkpt lat="41.613770300" lon="2.497727660">
        <ele>412.06</ele>
        <time>2015-02-15T06:50:50Z</time>
      </trkpt>
      <trkpt lat="41.613639210" lon="2.497490780">
        <ele>413.50</ele>
        <time>2015-02-15T06:51:03Z</time>
      </trkpt>
      <trkpt lat="41.613492100" lon="2.497343090">
        <ele>415.43</ele>
        <time>2015-02-15T06:51:14Z</time>
      </trkpt>
      <trkpt lat="41.613326900" lon="2.497371840">
        <ele>416.39</ele>
        <time>2015-02-15T06:51:24Z</time>
      </trkpt>
      <trkpt lat="41.613136880" lon="2.497414590">
        <ele>418.31</ele>
        <time>2015-02-15T06:51:36Z</time>
      </trkpt>
      <trkpt lat="41.613021460" lon="2.497319040">
        <ele>419.27</ele>
        <time>2015-02-15T06:51:46Z</time>
      </trkpt>
      <trkpt lat="41.612942750" lon="2.497116360">
        <ele>420.23</ele>
        <time>2015-02-15T06:51:56Z</time>
      </trkpt>
      <trkpt lat="41.612874190" lon="2.496948220">
        <ele>422.16</ele>
        <time>2015-02-15T06:52:06Z</time>
      </trkpt>
      <trkpt lat="41.612798840" lon="2.496699280">
        <ele>424.08</ele>
        <time>2015-02-15T06:52:19Z</time>
      </trkpt>
      <trkpt lat="41.612730610" lon="2.496435750">
        <ele>426.48</ele>
        <time>2015-02-15T06:52:32Z</time>
      </trkpt>
      <trkpt lat="41.612621810" lon="2.496182120">
        <ele>428.89</ele>
        <time>2015-02-15T06:52:47Z</time>
      </trkpt>
      <trkpt lat="41.612579150" lon="2.495974750">
        <ele>429.37</ele>
        <time>2015-02-15T06:52:57Z</time>
      </trkpt>
      <trkpt lat="41.612582160" lon="2.495809880">
        <ele>431.29</ele>
        <time>2015-02-15T06:53:08Z</time>
      </trkpt>
      <trkpt lat="41.612582670" lon="2.495757150">
        <ele>431.29</ele>
        <time>2015-02-15T06:53:16Z</time>
      </trkpt>
      <trkpt lat="41.612587780" lon="2.495759670">
        <ele>431.29</ele>
        <time>2015-02-15T06:53:30Z</time>
      </trkpt>
      <trkpt lat="41.612564560" lon="2.495739130">
        <ele>431.29</ele>
        <time>2015-02-15T06:53:47Z</time>
      </trkpt>
      <trkpt lat="41.612542350" lon="2.495725720">
        <ele>431.29</ele>
        <time>2015-02-15T06:54:00Z</time>
      </trkpt>
      <trkpt lat="41.612544440" lon="2.495714660">
        <ele>431.29</ele>
        <time>2015-02-15T06:54:13Z</time>
      </trkpt>
      <trkpt lat="41.612557190" lon="2.495716670">
        <ele>431.29</ele>
        <time>2015-02-15T06:54:28Z</time>
      </trkpt>
      <trkpt lat="41.612545280" lon="2.495724970">
        <ele>431.77</ele>
        <time>2015-02-15T06:54:48Z</time>
      </trkpt>
      <trkpt lat="41.612546040" lon="2.495715080">
        <ele>431.77</ele>
        <time>2015-02-15T06:55:06Z</time>
      </trkpt>
      <trkpt lat="41.612547800" lon="2.495721030">
        <ele>431.77</ele>
        <time>2015-02-15T06:55:19Z</time>
      </trkpt>
      <trkpt lat="41.612543360" lon="2.495722030">
        <ele>431.77</ele>
        <time>2015-02-15T06:55:38Z</time>
      </trkpt>
      <trkpt lat="41.612553580" lon="2.495733010">
        <ele>431.77</ele>
        <time>2015-02-15T06:55:59Z</time>
      </trkpt>
      <trkpt lat="41.612558440" lon="2.495745670">
        <ele>431.77</ele>
        <time>2015-02-15T06:56:22Z</time>
      </trkpt>
      <trkpt lat="41.612548300" lon="2.495725390">
        <ele>431.77</ele>
        <time>2015-02-15T06:56:35Z</time>
      </trkpt>
      <trkpt lat="41.612550140" lon="2.495733940">
        <ele>431.77</ele>
        <time>2015-02-15T06:56:46Z</time>
      </trkpt>
      <trkpt lat="41.612521730" lon="2.495675600">
        <ele>431.77</ele>
        <time>2015-02-15T06:56:56Z</time>
      </trkpt>
      <trkpt lat="41.612507150" lon="2.495656150">
        <ele>431.77</ele>
        <time>2015-02-15T06:56:58Z</time>
      </trkpt>
      <trkpt lat="41.612365240" lon="2.495592030">
        <ele>429.37</ele>
        <time>2015-02-15T06:57:05Z</time>
      </trkpt>
      <trkpt lat="41.612191480" lon="2.495651630">
        <ele>427.92</ele>
        <time>2015-02-15T06:57:09Z</time>
      </trkpt>
      <trkpt lat="41.612154100" lon="2.495679710">
        <ele>427.92</ele>
        <time>2015-02-15T06:57:10Z</time>
      </trkpt>
      <trkpt lat="41.611886300" lon="2.495767130">
        <ele>426.48</ele>
        <time>2015-02-15T06:57:17Z</time>
      </trkpt>
      <trkpt lat="41.611738440" lon="2.495672830">
        <ele>426.48</ele>
        <time>2015-02-15T06:57:22Z</time>
      </trkpt>
      <trkpt lat="41.611674400" lon="2.495479210">
        <ele>426.48</ele>
        <time>2015-02-15T06:57:29Z</time>
      </trkpt>
      <trkpt lat="41.611628220" lon="2.495222890">
        <ele>426.48</ele>
        <time>2015-02-15T06:57:39Z</time>
      </trkpt>
      <trkpt lat="41.611596280" lon="2.494986610">
        <ele>426.48</ele>
        <time>2015-02-15T06:57:48Z</time>
      </trkpt>
      <trkpt lat="41.611579520" lon="2.494752920">
        <ele>426.48</ele>
        <time>2015-02-15T06:57:57Z</time>
      </trkpt>
      <trkpt lat="41.611532670" lon="2.494441450">
        <ele>426.48</ele>
        <time>2015-02-15T06:58:06Z</time>
      </trkpt>
      <trkpt lat="41.611455470" lon="2.494145820">
        <ele>426.48</ele>
        <time>2015-02-15T06:58:13Z</time>
      </trkpt>
      <trkpt lat="41.611330410" lon="2.493802830">
        <ele>426.48</ele>
        <time>2015-02-15T06:58:22Z</time>
      </trkpt>
      <trkpt lat="41.611184820" lon="2.493580710">
        <ele>426.00</ele>
        <time>2015-02-15T06:58:29Z</time>
      </trkpt>
      <trkpt lat="41.611052720" lon="2.493245430">
        <ele>426.00</ele>
        <time>2015-02-15T06:58:36Z</time>
      </trkpt>
      <trkpt lat="41.610920530" lon="2.492857850">
        <ele>425.52</ele>
        <time>2015-02-15T06:58:44Z</time>
      </trkpt>
      <trkpt lat="41.610854400" lon="2.492632130">
        <ele>425.04</ele>
        <time>2015-02-15T06:58:48Z</time>
      </trkpt>
      <trkpt lat="41.610848790" lon="2.492346730">
        <ele>425.04</ele>
        <time>2015-02-15T06:58:53Z</time>
      </trkpt>
      <trkpt lat="41.610883820" lon="2.492132650">
        <ele>425.04</ele>
        <time>2015-02-15T06:58:57Z</time>
      </trkpt>
      <trkpt lat="41.610895890" lon="2.491914810">
        <ele>424.08</ele>
        <time>2015-02-15T06:59:01Z</time>
      </trkpt>
      <trkpt lat="41.610859850" lon="2.491688330">
        <ele>423.60</ele>
        <time>2015-02-15T06:59:05Z</time>
      </trkpt>
      <trkpt lat="41.610722720" lon="2.491351880">
        <ele>423.12</ele>
        <time>2015-02-15T06:59:11Z</time>
      </trkpt>
      <trkpt lat="41.610666230" lon="2.490966730">
        <ele>423.12</ele>
        <time>2015-02-15T06:59:18Z</time>
      </trkpt>
      <trkpt lat="41.610692460" lon="2.490594490">
        <ele>423.12</ele>
        <time>2015-02-15T06:59:26Z</time>
      </trkpt>
      <trkpt lat="41.610707300" lon="2.490168350">
        <ele>423.12</ele>
        <time>2015-02-15T06:59:35Z</time>
      </trkpt>
      <trkpt lat="41.610668320" lon="2.490049330">
        <ele>424.56</ele>
        <time>2015-02-15T06:59:38Z</time>
      </trkpt>
      <trkpt lat="41.610538990" lon="2.489813130">
        <ele>425.52</ele>
        <time>2015-02-15T06:59:44Z</time>
      </trkpt>
      <trkpt lat="41.610428010" lon="2.489526720">
        <ele>426.00</ele>
        <time>2015-02-15T06:59:53Z</time>
      </trkpt>
      <trkpt lat="41.610292060" lon="2.489340140">
        <ele>427.44</ele>
        <time>2015-02-15T07:00:00Z</time>
      </trkpt>
      <trkpt lat="41.610123000" lon="2.489372910">
        <ele>427.92</ele>
        <time>2015-02-15T07:00:05Z</time>
      </trkpt>
      <trkpt lat="41.609950500" lon="2.489590840">
        <ele>428.40</ele>
        <time>2015-02-15T07:00:12Z</time>
      </trkpt>
      <trkpt lat="41.609805740" lon="2.489843050">
        <ele>428.89</ele>
        <time>2015-02-15T07:00:20Z</time>
      </trkpt>
      <trkpt lat="41.609707420" lon="2.490164750">
        <ele>429.37</ele>
        <time>2015-02-15T07:00:28Z</time>
      </trkpt>
      <trkpt lat="41.609668530" lon="2.490537410">
        <ele>429.37</ele>
        <time>2015-02-15T07:00:36Z</time>
      </trkpt>
      <trkpt lat="41.609591920" lon="2.490880900">
        <ele>427.92</ele>
        <time>2015-02-15T07:00:43Z</time>
      </trkpt>
      <trkpt lat="41.609564510" lon="2.490992040">
        <ele>427.44</ele>
        <time>2015-02-15T07:00:45Z</time>
      </trkpt>
      <trkpt lat="41.609417160" lon="2.491160020">
        <ele>426.48</ele>
        <time>2015-02-15T07:00:50Z</time>
      </trkpt>
      <trkpt lat="41.609201570" lon="2.491176610">
        <ele>425.04</ele>
        <time>2015-02-15T07:00:55Z</time>
      </trkpt>
      <trkpt lat="41.609106940" lon="2.491197900">
        <ele>424.56</ele>
        <time>2015-02-15T07:00:57Z</time>
      </trkpt>
      <trkpt lat="41.608930080" lon="2.491271410">
        <ele>422.16</ele>
        <time>2015-02-15T07:01:01Z</time>
      </trkpt>
      <trkpt lat="41.608747020" lon="2.491501660">
        <ele>420.71</ele>
        <time>2015-02-15T07:01:06Z</time>
      </trkpt>
      <trkpt lat="41.608701010" lon="2.491650860">
        <ele>419.27</ele>
        <time>2015-02-15T07:01:08Z</time>
      </trkpt>
      <trkpt lat="41.608670330" lon="2.492011200">
        <ele>416.39</ele>
        <time>2015-02-15T07:01:12Z</time>
      </trkpt>
      <trkpt lat="41.608679210" lon="2.492224600">
        <ele>414.47</ele>
        <time>2015-02-15T07:01:15Z</time>
      </trkpt>
      <trkpt lat="41.608548960" lon="2.492507910">
        <ele>413.50</ele>
        <time>2015-02-15T07:01:20Z</time>
      </trkpt>
      <trkpt lat="41.608433880" lon="2.492472200">
        <ele>413.02</ele>
        <time>2015-02-15T07:01:23Z</time>
      </trkpt>
      <trkpt lat="41.608384590" lon="2.492400290">
        <ele>413.02</ele>
        <time>2015-02-15T07:01:25Z</time>
      </trkpt>
      <trkpt lat="41.608201360" lon="2.492090910">
        <ele>415.43</ele>
        <time>2015-02-15T07:01:33Z</time>
      </trkpt>
      <trkpt lat="41.608186860" lon="2.492050510">
        <ele>415.43</ele>
        <time>2015-02-15T07:01:34Z</time>
      </trkpt>
      <trkpt lat="41.608102870" lon="2.491784380">
        <ele>415.43</ele>
        <time>2015-02-15T07:01:40Z</time>
      </trkpt>
      <trkpt lat="41.608082510" lon="2.491735600">
        <ele>415.43</ele>
        <time>2015-02-15T07:01:41Z</time>
      </trkpt>
      <trkpt lat="41.607890900" lon="2.491556980">
        <ele>416.39</ele>
        <time>2015-02-15T07:01:47Z</time>
      </trkpt>
      <trkpt lat="41.607858370" lon="2.491544830">
        <ele>416.87</ele>
        <time>2015-02-15T07:01:48Z</time>
      </trkpt>
      <trkpt lat="41.607762320" lon="2.491502420">
        <ele>416.87</ele>
        <time>2015-02-15T07:01:51Z</time>
      </trkpt>
      <trkpt lat="41.607724930" lon="2.491275770">
        <ele>416.39</ele>
        <time>2015-02-15T07:01:56Z</time>
      </trkpt>
      <trkpt lat="41.607827450" lon="2.491114420">
        <ele>416.39</ele>
        <time>2015-02-15T07:02:01Z</time>
      </trkpt>
      <trkpt lat="41.607849150" lon="2.491078960">
        <ele>416.39</ele>
        <time>2015-02-15T07:02:02Z</time>
      </trkpt>
      <trkpt lat="41.607946300" lon="2.490754670">
        <ele>417.35</ele>
        <time>2015-02-15T07:02:09Z</time>
      </trkpt>
      <trkpt lat="41.607892990" lon="2.490509580">
        <ele>416.87</ele>
        <time>2015-02-15T07:02:14Z</time>
      </trkpt>
      <trkpt lat="41.607716220" lon="2.490315710">
        <ele>416.87</ele>
        <time>2015-02-15T07:02:20Z</time>
      </trkpt>
      <trkpt lat="41.607459480" lon="2.490136080">
        <ele>416.87</ele>
        <time>2015-02-15T07:02:27Z</time>
      </trkpt>
      <trkpt lat="41.607227300" lon="2.490098700">
        <ele>417.35</ele>
        <time>2015-02-15T07:02:33Z</time>
      </trkpt>
      <trkpt lat="41.606940890" lon="2.490070030">
        <ele>417.83</ele>
        <time>2015-02-15T07:02:40Z</time>
      </trkpt>
      <trkpt lat="41.606822960" lon="2.490021670">
        <ele>417.83</ele>
        <time>2015-02-15T07:02:43Z</time>
      </trkpt>
      <trkpt lat="41.606683730" lon="2.489789830">
        <ele>417.83</ele>
        <time>2015-02-15T07:02:48Z</time>
      </trkpt>
      <trkpt lat="41.606678290" lon="2.489673900">
        <ele>417.83</ele>
        <time>2015-02-15T07:02:50Z</time>
      </trkpt>
      <trkpt lat="41.606688430" lon="2.489567290">
        <ele>417.83</ele>
        <time>2015-02-15T07:02:52Z</time>
      </trkpt>
      <trkpt lat="41.606688260" lon="2.489335270">
        <ele>417.83</ele>
        <time>2015-02-15T07:02:56Z</time>
      </trkpt>
      <trkpt lat="41.606646690" lon="2.489165120">
        <ele>416.39</ele>
        <time>2015-02-15T07:02:59Z</time>
      </trkpt>
      <trkpt lat="41.606627410" lon="2.489107290">
        <ele>416.39</ele>
        <time>2015-02-15T07:03:00Z</time>
      </trkpt>
      <trkpt lat="41.606467980" lon="2.488675870">
        <ele>413.98</ele>
        <time>2015-02-15T07:03:06Z</time>
      </trkpt>
      <trkpt lat="41.606294980" lon="2.488273870">
        <ele>411.58</ele>
        <time>2015-02-15T07:03:11Z</time>
      </trkpt>
      <trkpt lat="41.606069930" lon="2.487655630">
        <ele>407.26</ele>
        <time>2015-02-15T07:03:18Z</time>
      </trkpt>
      <trkpt lat="41.605976890" lon="2.487423030">
        <ele>405.33</ele>
        <time>2015-02-15T07:03:21Z</time>
      </trkpt>
      <trkpt lat="41.605778320" lon="2.487178950">
        <ele>403.41</ele>
        <time>2015-02-15T07:03:25Z</time>
      </trkpt>
      <trkpt lat="41.605619400" lon="2.487013910">
        <ele>402.93</ele>
        <time>2015-02-15T07:03:28Z</time>
      </trkpt>
      <trkpt lat="41.605551670" lon="2.486764960">
        <ele>402.45</ele>
        <time>2015-02-15T07:03:32Z</time>
      </trkpt>
      <trkpt lat="41.605619900" lon="2.486321560">
        <ele>403.41</ele>
        <time>2015-02-15T07:03:41Z</time>
      </trkpt>
      <trkpt lat="41.605548990" lon="2.486065910">
        <ele>403.41</ele>
        <time>2015-02-15T07:03:47Z</time>
      </trkpt>
      <trkpt lat="41.605415720" lon="2.485744720">
        <ele>402.93</ele>
        <time>2015-02-15T07:03:52Z</time>
      </trkpt>
      <trkpt lat="41.605379430" lon="2.485590320">
        <ele>401.49</ele>
        <time>2015-02-15T07:03:54Z</time>
      </trkpt>
      <trkpt lat="41.605332240" lon="2.485426210">
        <ele>401.01</ele>
        <time>2015-02-15T07:03:56Z</time>
      </trkpt>
      <trkpt lat="41.605066450" lon="2.485111970">
        <ele>399.08</ele>
        <time>2015-02-15T07:04:01Z</time>
      </trkpt>
      <trkpt lat="41.604943820" lon="2.485014070">
        <ele>398.12</ele>
        <time>2015-02-15T07:04:03Z</time>
      </trkpt>
      <trkpt lat="41.604818760" lon="2.484788340">
        <ele>396.68</ele>
        <time>2015-02-15T07:04:07Z</time>
      </trkpt>
      <trkpt lat="41.604861010" lon="2.484673430">
        <ele>396.68</ele>
        <time>2015-02-15T07:04:09Z</time>
      </trkpt>
      <trkpt lat="41.604896380" lon="2.484402270">
        <ele>395.72</ele>
        <time>2015-02-15T07:04:14Z</time>
      </trkpt>
      <trkpt lat="41.604816250" lon="2.484279390">
        <ele>395.72</ele>
        <time>2015-02-15T07:04:18Z</time>
      </trkpt>
      <trkpt lat="41.604778020" lon="2.484227430">
        <ele>397.16</ele>
        <time>2015-02-15T07:04:21Z</time>
      </trkpt>
      <trkpt lat="41.604701580" lon="2.484137150">
        <ele>398.12</ele>
        <time>2015-02-15T07:04:27Z</time>
      </trkpt>
      <trkpt lat="41.604567890" lon="2.484016120">
        <ele>399.08</ele>
        <time>2015-02-15T07:04:34Z</time>
      </trkpt>
      <trkpt lat="41.604462190" lon="2.483900950">
        <ele>400.05</ele>
        <time>2015-02-15T07:04:40Z</time>
      </trkpt>
      <trkpt lat="41.604382570" lon="2.483787130">
        <ele>401.01</ele>
        <time>2015-02-15T07:04:47Z</time>
      </trkpt>
      <trkpt lat="41.604314670" lon="2.483617220">
        <ele>401.97</ele>
        <time>2015-02-15T07:04:55Z</time>
      </trkpt>
      <trkpt lat="41.604286590" lon="2.483378260">
        <ele>402.45</ele>
        <time>2015-02-15T07:05:02Z</time>
      </trkpt>
      <trkpt lat="41.604152480" lon="2.483038450">
        <ele>399.08</ele>
        <time>2015-02-15T07:05:08Z</time>
      </trkpt>
      <trkpt lat="41.603852410" lon="2.482605530">
        <ele>397.64</ele>
        <time>2015-02-15T07:05:16Z</time>
      </trkpt>
      <trkpt lat="41.603660550" lon="2.482327840">
        <ele>396.68</ele>
        <time>2015-02-15T07:05:22Z</time>
      </trkpt>
      <trkpt lat="41.603571870" lon="2.482194980">
        <ele>395.24</ele>
        <time>2015-02-15T07:05:25Z</time>
      </trkpt>
      <trkpt lat="41.603480090" lon="2.481956850">
        <ele>392.84</ele>
        <time>2015-02-15T07:05:29Z</time>
      </trkpt>
      <trkpt lat="41.603394340" lon="2.481476400">
        <ele>390.91</ele>
        <time>2015-02-15T07:05:35Z</time>
      </trkpt>
      <trkpt lat="41.603378080" lon="2.481394600">
        <ele>390.43</ele>
        <time>2015-02-15T07:05:36Z</time>
      </trkpt>
      <trkpt lat="41.603281100" lon="2.481045740">
        <ele>390.91</ele>
        <time>2015-02-15T07:05:41Z</time>
      </trkpt>
      <trkpt lat="41.603142800" lon="2.480826220">
        <ele>390.43</ele>
        <time>2015-02-15T07:05:45Z</time>
      </trkpt>
      <trkpt lat="41.602811880" lon="2.480504520">
        <ele>390.43</ele>
        <time>2015-02-15T07:05:54Z</time>
      </trkpt>
      <trkpt lat="41.602518430" lon="2.480383230">
        <ele>390.43</ele>
        <time>2015-02-15T07:06:03Z</time>
      </trkpt>
      <trkpt lat="41.602307880" lon="2.480212830">
        <ele>391.39</ele>
        <time>2015-02-15T07:06:12Z</time>
      </trkpt>
      <trkpt lat="41.602068320" lon="2.479979650">
        <ele>393.32</ele>
        <time>2015-02-15T07:06:23Z</time>
      </trkpt>
      <trkpt lat="41.601946200" lon="2.479816700">
        <ele>394.76</ele>
        <time>2015-02-15T07:06:32Z</time>
      </trkpt>
      <trkpt lat="41.601814180" lon="2.479580000">
        <ele>394.28</ele>
        <time>2015-02-15T07:06:42Z</time>
      </trkpt>
      <trkpt lat="41.601712260" lon="2.479243210">
        <ele>394.28</ele>
        <time>2015-02-15T07:06:50Z</time>
      </trkpt>
      <trkpt lat="41.601610170" lon="2.479116230">
        <ele>392.84</ele>
        <time>2015-02-15T07:06:53Z</time>
      </trkpt>
      <trkpt lat="41.601473790" lon="2.479026710">
        <ele>391.87</ele>
        <time>2015-02-15T07:06:56Z</time>
      </trkpt>
      <trkpt lat="41.601322670" lon="2.478859990">
        <ele>390.43</ele>
        <time>2015-02-15T07:07:00Z</time>
      </trkpt>
      <trkpt lat="41.601195680" lon="2.478743230">
        <ele>389.47</ele>
        <time>2015-02-15T07:07:03Z</time>
      </trkpt>
      <trkpt lat="41.600922850" lon="2.478311980">
        <ele>388.03</ele>
        <time>2015-02-15T07:07:11Z</time>
      </trkpt>
      <trkpt lat="41.600741890" lon="2.477821890">
        <ele>386.59</ele>
        <time>2015-02-15T07:07:18Z</time>
      </trkpt>
      <trkpt lat="41.600649100" lon="2.477487620">
        <ele>386.59</ele>
        <time>2015-02-15T07:07:24Z</time>
      </trkpt>
      <trkpt lat="41.600443660" lon="2.477203140">
        <ele>387.55</ele>
        <time>2015-02-15T07:07:32Z</time>
      </trkpt>
      <trkpt lat="41.600245850" lon="2.476939780">
        <ele>389.47</ele>
        <time>2015-02-15T07:07:42Z</time>
      </trkpt>
      <trkpt lat="41.600036630" lon="2.476716570">
        <ele>391.39</ele>
        <time>2015-02-15T07:07:53Z</time>
      </trkpt>
      <trkpt lat="41.599826000" lon="2.476452790">
        <ele>393.32</ele>
        <time>2015-02-15T07:08:05Z</time>
      </trkpt>
      <trkpt lat="41.599648050" lon="2.476250370">
        <ele>393.80</ele>
        <time>2015-02-15T07:08:15Z</time>
      </trkpt>
      <trkpt lat="41.599378990" lon="2.475952560">
        <ele>394.76</ele>
        <time>2015-02-15T07:08:27Z</time>
      </trkpt>
      <trkpt lat="41.599148070" lon="2.475763380">
        <ele>396.20</ele>
        <time>2015-02-15T07:08:38Z</time>
      </trkpt>
      <trkpt lat="41.598916480" lon="2.475688450">
        <ele>398.12</ele>
        <time>2015-02-15T07:08:48Z</time>
      </trkpt>
      <trkpt lat="41.598725790" lon="2.475574030">
        <ele>398.60</ele>
        <time>2015-02-15T07:08:57Z</time>
      </trkpt>
      <trkpt lat="41.598622100" lon="2.475419140">
        <ele>396.68</ele>
        <time>2015-02-15T07:09:02Z</time>
      </trkpt>
      <trkpt lat="41.598511210" lon="2.475184690">
        <ele>392.84</ele>
        <time>2015-02-15T07:09:07Z</time>
      </trkpt>
      <trkpt lat="41.598466030" lon="2.475071200">
        <ele>391.87</ele>
        <time>2015-02-15T07:09:09Z</time>
      </trkpt>
      <trkpt lat="41.598212480" lon="2.474822510">
        <ele>387.55</ele>
        <time>2015-02-15T07:09:15Z</time>
      </trkpt>
      <trkpt lat="41.598120700" lon="2.474787220">
        <ele>387.07</ele>
        <time>2015-02-15T07:09:17Z</time>
      </trkpt>
      <trkpt lat="41.597892460" lon="2.474787900">
        <ele>382.26</ele>
        <time>2015-02-15T07:09:22Z</time>
      </trkpt>
      <trkpt lat="41.597848960" lon="2.474789490">
        <ele>382.26</ele>
        <time>2015-02-15T07:09:23Z</time>
      </trkpt>
      <trkpt lat="41.597666400" lon="2.474804660">
        <ele>378.90</ele>
        <time>2015-02-15T07:09:27Z</time>
      </trkpt>
      <trkpt lat="41.597462970" lon="2.474783870">
        <ele>375.05</ele>
        <time>2015-02-15T07:09:32Z</time>
      </trkpt>
      <trkpt lat="41.597243450" lon="2.474703740">
        <ele>371.21</ele>
        <time>2015-02-15T07:09:36Z</time>
      </trkpt>
      <trkpt lat="41.597196170" lon="2.474681030">
        <ele>370.73</ele>
        <time>2015-02-15T07:09:37Z</time>
      </trkpt>
      <trkpt lat="41.597013700" lon="2.474681190">
        <ele>366.88</ele>
        <time>2015-02-15T07:09:41Z</time>
      </trkpt>
      <trkpt lat="41.596953850" lon="2.474733080">
        <ele>365.92</ele>
        <time>2015-02-15T07:09:43Z</time>
      </trkpt>
      <trkpt lat="41.596818900" lon="2.474923260">
        <ele>362.07</ele>
        <time>2015-02-15T07:09:48Z</time>
      </trkpt>
      <trkpt lat="41.596593600" lon="2.475015800">
        <ele>360.15</ele>
        <time>2015-02-15T07:09:53Z</time>
      </trkpt>
      <trkpt lat="41.596310880" lon="2.474855620">
        <ele>359.19</ele>
        <time>2015-02-15T07:09:59Z</time>
      </trkpt>
      <trkpt lat="41.596223960" lon="2.474768280">
        <ele>359.19</ele>
        <time>2015-02-15T07:10:01Z</time>
      </trkpt>
      <trkpt lat="41.595945010" lon="2.474626380">
        <ele>358.71</ele>
        <time>2015-02-15T07:10:08Z</time>
      </trkpt>
      <trkpt lat="41.595773350" lon="2.474381370">
        <ele>360.63</ele>
        <time>2015-02-15T07:10:15Z</time>
      </trkpt>
      <trkpt lat="41.595675030" lon="2.474115000">
        <ele>360.63</ele>
        <time>2015-02-15T07:10:21Z</time>
      </trkpt>
      <trkpt lat="41.595455000" lon="2.473971410">
        <ele>359.19</ele>
        <time>2015-02-15T07:10:26Z</time>
      </trkpt>
      <trkpt lat="41.595418210" lon="2.473995890">
        <ele>358.71</ele>
        <time>2015-02-15T07:10:27Z</time>
      </trkpt>
      <trkpt lat="41.595388370" lon="2.474026990">
        <ele>358.71</ele>
        <time>2015-02-15T07:10:28Z</time>
      </trkpt>
      <trkpt lat="41.595299180" lon="2.474120280">
        <ele>358.71</ele>
        <time>2015-02-15T07:10:31Z</time>
      </trkpt>
      <trkpt lat="41.595055020" lon="2.474055990">
        <ele>356.79</ele>
        <time>2015-02-15T07:10:36Z</time>
      </trkpt>
      <trkpt lat="41.594891990" lon="2.473920200">
        <ele>355.83</ele>
        <time>2015-02-15T07:10:39Z</time>
      </trkpt>
      <trkpt lat="41.594540120" lon="2.473753900">
        <ele>355.34</ele>
        <time>2015-02-15T07:10:45Z</time>
      </trkpt>
      <trkpt lat="41.594340210" lon="2.473538820">
        <ele>352.94</ele>
        <time>2015-02-15T07:10:50Z</time>
      </trkpt>
      <trkpt lat="41.594086320" lon="2.473202710">
        <ele>355.34</ele>
        <time>2015-02-15T07:10:59Z</time>
      </trkpt>
      <trkpt lat="41.593880460" lon="2.473060130">
        <ele>357.27</ele>
        <time>2015-02-15T07:11:07Z</time>
      </trkpt>
      <trkpt lat="41.593666640" lon="2.472976060">
        <ele>357.27</ele>
        <time>2015-02-15T07:11:14Z</time>
      </trkpt>
      <trkpt lat="41.593412080" lon="2.472655040">
        <ele>357.27</ele>
        <time>2015-02-15T07:11:23Z</time>
      </trkpt>
      <trkpt lat="41.593195830" lon="2.472419840">
        <ele>357.75</ele>
        <time>2015-02-15T07:11:31Z</time>
      </trkpt>
      <trkpt lat="41.592855020" lon="2.472328640">
        <ele>357.75</ele>
        <time>2015-02-15T07:11:40Z</time>
      </trkpt>
      <trkpt lat="41.592447240" lon="2.472268880">
        <ele>357.75</ele>
        <time>2015-02-15T07:11:49Z</time>
      </trkpt>
      <trkpt lat="41.592096790" lon="2.472211630">
        <ele>357.75</ele>
        <time>2015-02-15T07:11:57Z</time>
      </trkpt>
      <trkpt lat="41.591866790" lon="2.472073580">
        <ele>357.75</ele>
        <time>2015-02-15T07:12:04Z</time>
      </trkpt>
      <trkpt lat="41.591756990" lon="2.471996550">
        <ele>357.75</ele>
        <time>2015-02-15T07:12:07Z</time>
      </trkpt>
      <trkpt lat="41.591437890" lon="2.471820200">
        <ele>358.23</ele>
        <time>2015-02-15T07:12:16Z</time>
      </trkpt>
      <trkpt lat="41.591151820" lon="2.471659350">
        <ele>359.67</ele>
        <time>2015-02-15T07:12:25Z</time>
      </trkpt>
      <trkpt lat="41.590841020" lon="2.471323740">
        <ele>359.67</ele>
        <time>2015-02-15T07:12:34Z</time>
      </trkpt>
      <trkpt lat="41.590799780" lon="2.471279730">
        <ele>359.67</ele>
        <time>2015-02-15T07:12:35Z</time>
      </trkpt>
      <trkpt lat="41.590723420" lon="2.471120730">
        <ele>359.67</ele>
        <time>2015-02-15T07:12:38Z</time>
      </trkpt>
      <trkpt lat="41.590573460" lon="2.470709850">
        <ele>359.67</ele>
        <time>2015-02-15T07:12:46Z</time>
      </trkpt>
      <trkpt lat="41.590427280" lon="2.470506750">
        <ele>359.19</ele>
        <time>2015-02-15T07:12:53Z</time>
      </trkpt>
      <trkpt lat="41.590275910" lon="2.470201570">
        <ele>358.23</ele>
        <time>2015-02-15T07:13:03Z</time>
      </trkpt>
      <trkpt lat="41.590021180" lon="2.469965950">
        <ele>356.79</ele>
        <time>2015-02-15T07:13:13Z</time>
      </trkpt>
      <trkpt lat="41.589835860" lon="2.469887750">
        <ele>355.83</ele>
        <time>2015-02-15T07:13:21Z</time>
      </trkpt>
      <trkpt lat="41.589663020" lon="2.469779460">
        <ele>355.34</ele>
        <time>2015-02-15T07:13:28Z</time>
      </trkpt>
      <trkpt lat="41.589507200" lon="2.469516770">
        <ele>353.90</ele>
        <time>2015-02-15T07:13:34Z</time>
      </trkpt>
      <trkpt lat="41.589295060" lon="2.469310240">
        <ele>353.42</ele>
        <time>2015-02-15T07:13:41Z</time>
      </trkpt>
      <trkpt lat="41.589201770" lon="2.469075630">
        <ele>353.42</ele>
        <time>2015-02-15T07:13:49Z</time>
      </trkpt>
      <trkpt lat="41.589124990" lon="2.468771530">
        <ele>354.86</ele>
        <time>2015-02-15T07:13:58Z</time>
      </trkpt>
      <trkpt lat="41.589089700" lon="2.468494760">
        <ele>353.90</ele>
        <time>2015-02-15T07:14:05Z</time>
      </trkpt>
      <trkpt lat="41.589065480" lon="2.468453940">
        <ele>353.90</ele>
        <time>2015-02-15T07:14:06Z</time>
      </trkpt>
      <trkpt lat="41.588813520" lon="2.468212120">
        <ele>351.98</ele>
        <time>2015-02-15T07:14:12Z</time>
      </trkpt>
      <trkpt lat="41.588733550" lon="2.468107850">
        <ele>351.98</ele>
        <time>2015-02-15T07:14:14Z</time>
      </trkpt>
      <trkpt lat="41.588560300" lon="2.467704350">
        <ele>351.02</ele>
        <time>2015-02-15T07:14:21Z</time>
      </trkpt>
      <trkpt lat="41.588429960" lon="2.467546600">
        <ele>351.02</ele>
        <time>2015-02-15T07:14:25Z</time>
      </trkpt>
      <trkpt lat="41.588323430" lon="2.467456500">
        <ele>351.02</ele>
        <time>2015-02-15T07:14:28Z</time>
      </trkpt>
      <trkpt lat="41.588192500" lon="2.467226580">
        <ele>350.06</ele>
        <time>2015-02-15T07:14:33Z</time>
      </trkpt>
      <trkpt lat="41.588086470" lon="2.466879400">
        <ele>349.58</ele>
        <time>2015-02-15T07:14:38Z</time>
      </trkpt>
      <trkpt lat="41.587988650" lon="2.466273890">
        <ele>347.17</ele>
        <time>2015-02-15T07:14:46Z</time>
      </trkpt>
      <trkpt lat="41.588047830" lon="2.465959240">
        <ele>345.73</ele>
        <time>2015-02-15T07:14:50Z</time>
      </trkpt>
      <trkpt lat="41.588126450" lon="2.465688080">
        <ele>343.81</ele>
        <time>2015-02-15T07:14:53Z</time>
      </trkpt>
      <trkpt lat="41.588061740" lon="2.465206790">
        <ele>342.37</ele>
        <time>2015-02-15T07:14:58Z</time>
      </trkpt>
      <trkpt lat="41.587948250" lon="2.464708660">
        <ele>338.52</ele>
        <time>2015-02-15T07:15:04Z</time>
      </trkpt>
      <trkpt lat="41.587910620" lon="2.464633550">
        <ele>338.04</ele>
        <time>2015-02-15T07:15:05Z</time>
      </trkpt>
      <trkpt lat="41.587783720" lon="2.464409510">
        <ele>337.08</ele>
        <time>2015-02-15T07:15:08Z</time>
      </trkpt>
      <trkpt lat="41.587562520" lon="2.464248240">
        <ele>335.64</ele>
        <time>2015-02-15T07:15:12Z</time>
      </trkpt>
      <trkpt lat="41.587240900" lon="2.464168860">
        <ele>334.68</ele>
        <time>2015-02-15T07:15:17Z</time>
      </trkpt>
      <trkpt lat="41.587096740" lon="2.464045900">
        <ele>333.23</ele>
        <time>2015-02-15T07:15:21Z</time>
      </trkpt>
      <trkpt lat="41.587054830" lon="2.463899800">
        <ele>334.68</ele>
        <time>2015-02-15T07:15:28Z</time>
      </trkpt>
      <trkpt lat="41.587041500" lon="2.463740630">
        <ele>335.64</ele>
        <time>2015-02-15T07:15:39Z</time>
      </trkpt>
      <trkpt lat="41.587040410" lon="2.463699220">
        <ele>335.64</ele>
        <time>2015-02-15T07:15:51Z</time>
      </trkpt>
      <trkpt lat="41.586949880" lon="2.463544080">
        <ele>337.56</ele>
        <time>2015-02-15T07:16:02Z</time>
      </trkpt>
      <trkpt lat="41.586946360" lon="2.463311730">
        <ele>339.96</ele>
        <time>2015-02-15T07:16:12Z</time>
      </trkpt>
      <trkpt lat="41.586888190" lon="2.463130260">
        <ele>343.33</ele>
        <time>2015-02-15T07:16:22Z</time>
      </trkpt>
      <trkpt lat="41.586791380" lon="2.463061190">
        <ele>344.77</ele>
        <time>2015-02-15T07:16:31Z</time>
      </trkpt>
      <trkpt lat="41.586768840" lon="2.463067310">
        <ele>345.73</ele>
        <time>2015-02-15T07:16:33Z</time>
      </trkpt>
      <trkpt lat="41.586584010" lon="2.463076950">
        <ele>347.65</ele>
        <time>2015-02-15T07:16:46Z</time>
      </trkpt>
      <trkpt lat="41.586463060" lon="2.463022970">
        <ele>348.62</ele>
        <time>2015-02-15T07:16:57Z</time>
      </trkpt>
      <trkpt lat="41.586438920" lon="2.463015430">
        <ele>349.10</ele>
        <time>2015-02-15T07:16:59Z</time>
      </trkpt>
      <trkpt lat="41.586300710" lon="2.462995480">
        <ele>350.54</ele>
        <time>2015-02-15T07:17:10Z</time>
      </trkpt>
      <trkpt lat="41.586142870" lon="2.462920710">
        <ele>351.98</ele>
        <time>2015-02-15T07:17:23Z</time>
      </trkpt>
      <trkpt lat="41.585961570" lon="2.462831950">
        <ele>354.38</ele>
        <time>2015-02-15T07:17:35Z</time>
      </trkpt>
      <trkpt lat="41.585875490" lon="2.462786270">
        <ele>355.83</ele>
        <time>2015-02-15T07:17:45Z</time>
      </trkpt>
      <trkpt lat="41.585873060" lon="2.462765060">
        <ele>356.31</ele>
        <time>2015-02-15T07:17:46Z</time>
      </trkpt>
      <trkpt lat="41.585986890" lon="2.462602540">
        <ele>358.23</ele>
        <time>2015-02-15T07:17:58Z</time>
      </trkpt>
      <trkpt lat="41.586082940" lon="2.462525670">
        <ele>360.15</ele>
        <time>2015-02-15T07:18:08Z</time>
      </trkpt>
      <trkpt lat="41.586242030" lon="2.462408830">
        <ele>362.07</ele>
        <time>2015-02-15T07:18:19Z</time>
      </trkpt>
      <trkpt lat="41.586330960" lon="2.462277230">
        <ele>363.04</ele>
        <time>2015-02-15T07:18:27Z</time>
      </trkpt>
      <trkpt lat="41.586516370" lon="2.462074480">
        <ele>364.48</ele>
        <time>2015-02-15T07:18:39Z</time>
      </trkpt>
      <trkpt lat="41.586564070" lon="2.461935420">
        <ele>364.48</ele>
        <time>2015-02-15T07:18:44Z</time>
      </trkpt>
      <trkpt lat="41.586551490" lon="2.461854700">
        <ele>364.96</ele>
        <time>2015-02-15T07:18:49Z</time>
      </trkpt>
      <trkpt lat="41.586486280" lon="2.461764600">
        <ele>366.40</ele>
        <time>2015-02-15T07:18:58Z</time>
      </trkpt>
      <trkpt lat="41.586466580" lon="2.461543310">
        <ele>366.40</ele>
        <time>2015-02-15T07:19:07Z</time>
      </trkpt>
      <trkpt lat="41.586469430" lon="2.461280120">
        <ele>363.52</ele>
        <time>2015-02-15T07:19:15Z</time>
      </trkpt>
      <trkpt lat="41.586464660" lon="2.460948700">
        <ele>363.04</ele>
        <time>2015-02-15T07:19:25Z</time>
      </trkpt>
      <trkpt lat="41.586499190" lon="2.460560030">
        <ele>361.11</ele>
        <time>2015-02-15T07:19:35Z</time>
      </trkpt>
      <trkpt lat="41.586486450" lon="2.460285190">
        <ele>359.19</ele>
        <time>2015-02-15T07:19:39Z</time>
      </trkpt>
      <trkpt lat="41.586420820" lon="2.459905410">
        <ele>356.79</ele>
        <time>2015-02-15T07:19:44Z</time>
      </trkpt>
      <trkpt lat="41.586252010" lon="2.459686470">
        <ele>356.79</ele>
        <time>2015-02-15T07:19:49Z</time>
      </trkpt>
      <trkpt lat="41.585989820" lon="2.459586220">
        <ele>353.42</ele>
        <time>2015-02-15T07:19:58Z</time>
      </trkpt>
      <trkpt lat="41.585870040" lon="2.459428310">
        <ele>349.58</ele>
        <time>2015-02-15T07:20:04Z</time>
      </trkpt>
      <trkpt lat="41.585734510" lon="2.459346590">
        <ele>347.65</ele>
        <time>2015-02-15T07:20:09Z</time>
      </trkpt>
      <trkpt lat="41.585660500" lon="2.459218760">
        <ele>344.77</ele>
        <time>2015-02-15T07:20:15Z</time>
      </trkpt>
      <trkpt lat="41.585642060" lon="2.459161930">
        <ele>343.81</ele>
        <time>2015-02-15T07:20:17Z</time>
      </trkpt>
      <trkpt lat="41.585550940" lon="2.459136120">
        <ele>343.33</ele>
        <time>2015-02-15T07:20:23Z</time>
      </trkpt>
      <trkpt lat="41.585536280" lon="2.459177770">
        <ele>343.33</ele>
        <time>2015-02-15T07:20:25Z</time>
      </trkpt>
      <trkpt lat="41.585422450" lon="2.459434430">
        <ele>344.77</ele>
        <time>2015-02-15T07:20:36Z</time>
      </trkpt>
      <trkpt lat="41.585405770" lon="2.459487650">
        <ele>344.77</ele>
        <time>2015-02-15T07:20:43Z</time>
      </trkpt>
      <trkpt lat="41.585403170" lon="2.459459070">
        <ele>344.77</ele>
        <time>2015-02-15T07:21:04Z</time>
      </trkpt>
      <trkpt lat="41.585387080" lon="2.459513720">
        <ele>344.77</ele>
        <time>2015-02-15T07:21:22Z</time>
      </trkpt>
      <trkpt lat="41.585361600" lon="2.459612040">
        <ele>343.81</ele>
        <time>2015-02-15T07:21:25Z</time>
      </trkpt>
      <trkpt lat="41.585242410" lon="2.459815970">
        <ele>343.81</ele>
        <time>2015-02-15T07:21:32Z</time>
      </trkpt>
      <trkpt lat="41.585159170" lon="2.459983690">
        <ele>343.33</ele>
        <time>2015-02-15T07:21:39Z</time>
      </trkpt>
      <trkpt lat="41.585050960" lon="2.460149660">
        <ele>343.33</ele>
        <time>2015-02-15T07:21:47Z</time>
      </trkpt>
      <trkpt lat="41.584916770" lon="2.460145130">
        <ele>343.33</ele>
        <time>2015-02-15T07:21:54Z</time>
      </trkpt>
      <trkpt lat="41.584814680" lon="2.459988890">
        <ele>345.25</ele>
        <time>2015-02-15T07:22:02Z</time>
      </trkpt>
      <trkpt lat="41.584687780" lon="2.459833240">
        <ele>346.21</ele>
        <time>2015-02-15T07:22:10Z</time>
      </trkpt>
      <trkpt lat="41.584525750" lon="2.459717150">
        <ele>346.69</ele>
        <time>2015-02-15T07:22:18Z</time>
      </trkpt>
      <trkpt lat="41.584347720" lon="2.459625200">
        <ele>348.13</ele>
        <time>2015-02-15T07:22:27Z</time>
      </trkpt>
      <trkpt lat="41.584129210" lon="2.459703070">
        <ele>348.62</ele>
        <time>2015-02-15T07:22:36Z</time>
      </trkpt>
      <trkpt lat="41.583929880" lon="2.459721090">
        <ele>347.65</ele>
        <time>2015-02-15T07:22:41Z</time>
      </trkpt>
      <trkpt lat="41.583538450" lon="2.459660570">
        <ele>346.21</ele>
        <time>2015-02-15T07:22:51Z</time>
      </trkpt>
      <trkpt lat="41.583250530" lon="2.459544400">
        <ele>346.21</ele>
        <time>2015-02-15T07:22:59Z</time>
      </trkpt>
      <trkpt lat="41.583147600" lon="2.459452450">
        <ele>346.21</ele>
        <time>2015-02-15T07:23:03Z</time>
      </trkpt>
      <trkpt lat="41.583001510" lon="2.459394870">
        <ele>344.29</ele>
        <time>2015-02-15T07:23:06Z</time>
      </trkpt>
      <trkpt lat="41.582760690" lon="2.459151870">
        <ele>343.33</ele>
        <time>2015-02-15T07:23:12Z</time>
      </trkpt>
      <trkpt lat="41.582738730" lon="2.459098480">
        <ele>343.81</ele>
        <time>2015-02-15T07:23:13Z</time>
      </trkpt>
      <trkpt lat="41.582592800" lon="2.458802940">
        <ele>343.33</ele>
        <time>2015-02-15T07:23:20Z</time>
      </trkpt>
      <trkpt lat="41.582417960" lon="2.458515440">
        <ele>343.81</ele>
        <time>2015-02-15T07:23:28Z</time>
      </trkpt>
      <trkpt lat="41.582256610" lon="2.458390550">
        <ele>343.81</ele>
        <time>2015-02-15T07:23:34Z</time>
      </trkpt>
      <trkpt lat="41.582137410" lon="2.458363050">
        <ele>344.77</ele>
        <time>2015-02-15T07:23:38Z</time>
      </trkpt>
      <trkpt lat="41.581808590" lon="2.458349810">
        <ele>345.25</ele>
        <time>2015-02-15T07:23:49Z</time>
      </trkpt>
      <trkpt lat="41.581656130" lon="2.458488700">
        <ele>345.25</ele>
        <time>2015-02-15T07:23:54Z</time>
      </trkpt>
      <trkpt lat="41.581523520" lon="2.458670170">
        <ele>345.25</ele>
        <time>2015-02-15T07:24:02Z</time>
      </trkpt>
      <trkpt lat="41.581342640" lon="2.458770160">
        <ele>346.21</ele>
        <time>2015-02-15T07:24:10Z</time>
      </trkpt>
      <trkpt lat="41.581199980" lon="2.458732110">
        <ele>343.81</ele>
        <time>2015-02-15T07:24:16Z</time>
      </trkpt>
      <trkpt lat="41.581083980" lon="2.458680060">
        <ele>340.44</ele>
        <time>2015-02-15T07:24:23Z</time>
      </trkpt>
      <trkpt lat="41.580961350" lon="2.458585010">
        <ele>337.56</ele>
        <time>2015-02-15T07:24:31Z</time>
      </trkpt>
      <trkpt lat="41.580903930" lon="2.458576710">
        <ele>335.64</ele>
        <time>2015-02-15T07:24:34Z</time>
      </trkpt>
      <trkpt lat="41.580683740" lon="2.458473610">
        <ele>333.23</ele>
        <time>2015-02-15T07:24:44Z</time>
      </trkpt>
      <trkpt lat="41.580509570" lon="2.458291810">
        <ele>331.79</ele>
        <time>2015-02-15T07:24:54Z</time>
      </trkpt>
      <trkpt lat="41.580521800" lon="2.458248140">
        <ele>331.79</ele>
        <time>2015-02-15T07:25:02Z</time>
      </trkpt>
      <trkpt lat="41.580619700" lon="2.458267330">
        <ele>329.87</ele>
        <time>2015-02-15T07:25:12Z</time>
      </trkpt>
      <trkpt lat="41.580735630" lon="2.458170190">
        <ele>328.43</ele>
        <time>2015-02-15T07:25:21Z</time>
      </trkpt>
      <trkpt lat="41.580813490" lon="2.457911100">
        <ele>325.54</ele>
        <time>2015-02-15T07:25:31Z</time>
      </trkpt>
      <trkpt lat="41.580810310" lon="2.457781430">
        <ele>324.10</ele>
        <time>2015-02-15T07:25:36Z</time>
      </trkpt>
      <trkpt lat="41.580873170" lon="2.457586640">
        <ele>323.14</ele>
        <time>2015-02-15T07:25:44Z</time>
      </trkpt>
      <trkpt lat="41.581039800" lon="2.457420420">
        <ele>321.70</ele>
        <time>2015-02-15T07:25:54Z</time>
      </trkpt>
      <trkpt lat="41.581250360" lon="2.457300230">
        <ele>318.81</ele>
        <time>2015-02-15T07:26:02Z</time>
      </trkpt>
      <trkpt lat="41.581292520" lon="2.457251950">
        <ele>317.85</ele>
        <time>2015-02-15T07:26:04Z</time>
      </trkpt>
      <trkpt lat="41.581420090" lon="2.457132170">
        <ele>315.93</ele>
        <time>2015-02-15T07:26:12Z</time>
      </trkpt>
      <trkpt lat="41.581465190" lon="2.457018180">
        <ele>314.01</ele>
        <time>2015-02-15T07:26:21Z</time>
      </trkpt>
      <trkpt lat="41.581509110" lon="2.456928830">
        <ele>311.60</ele>
        <time>2015-02-15T07:26:26Z</time>
      </trkpt>
      <trkpt lat="41.581589990" lon="2.456700170">
        <ele>309.68</ele>
        <time>2015-02-15T07:26:35Z</time>
      </trkpt>
      <trkpt lat="41.581596610" lon="2.456670500">
        <ele>309.20</ele>
        <time>2015-02-15T07:26:36Z</time>
      </trkpt>
      <trkpt lat="41.581713040" lon="2.456455000">
        <ele>306.80</ele>
        <time>2015-02-15T07:26:44Z</time>
      </trkpt>
      <trkpt lat="41.581837680" lon="2.456183260">
        <ele>304.39</ele>
        <time>2015-02-15T07:26:53Z</time>
      </trkpt>
      <trkpt lat="41.581898200" lon="2.455945040">
        <ele>301.03</ele>
        <time>2015-02-15T07:27:00Z</time>
      </trkpt>
      <trkpt lat="41.581931720" lon="2.455696850">
        <ele>298.15</ele>
        <time>2015-02-15T07:27:09Z</time>
      </trkpt>
      <trkpt lat="41.582018810" lon="2.455506670">
        <ele>295.74</ele>
        <time>2015-02-15T07:27:18Z</time>
      </trkpt>
      <trkpt lat="41.582070110" lon="2.455274910">
        <ele>293.82</ele>
        <time>2015-02-15T07:27:26Z</time>
      </trkpt>
      <trkpt lat="41.581999200" lon="2.455235350">
        <ele>292.86</ele>
        <time>2015-02-15T07:27:32Z</time>
      </trkpt>
      <trkpt lat="41.581797950" lon="2.455384120">
        <ele>291.42</ele>
        <time>2015-02-15T07:27:43Z</time>
      </trkpt>
      <trkpt lat="41.581700550" lon="2.455418910">
        <ele>291.42</ele>
        <time>2015-02-15T07:27:52Z</time>
      </trkpt>
      <trkpt lat="41.581693760" lon="2.455409940">
        <ele>291.42</ele>
        <time>2015-02-15T07:27:53Z</time>
      </trkpt>
      <trkpt lat="41.581652860" lon="2.455297200">
        <ele>291.42</ele>
        <time>2015-02-15T07:28:02Z</time>
      </trkpt>
      <trkpt lat="41.581616730" lon="2.455300390">
        <ele>291.42</ele>
        <time>2015-02-15T07:28:18Z</time>
      </trkpt>
      <trkpt lat="41.581633160" lon="2.455271220">
        <ele>291.42</ele>
        <time>2015-02-15T07:28:28Z</time>
      </trkpt>
      <trkpt lat="41.581659980" lon="2.455158060">
        <ele>292.38</ele>
        <time>2015-02-15T07:28:36Z</time>
      </trkpt>
      <trkpt lat="41.581629970" lon="2.454903170">
        <ele>292.86</ele>
        <time>2015-02-15T07:28:47Z</time>
      </trkpt>
      <trkpt lat="41.581496870" lon="2.454616590">
        <ele>292.86</ele>
        <time>2015-02-15T07:29:00Z</time>
      </trkpt>
      <trkpt lat="41.581397630" lon="2.454505790">
        <ele>293.82</ele>
        <time>2015-02-15T07:29:09Z</time>
      </trkpt>
      <trkpt lat="41.581393770" lon="2.454488430">
        <ele>293.82</ele>
        <time>2015-02-15T07:29:10Z</time>
      </trkpt>
      <trkpt lat="41.581432660" lon="2.454281990">
        <ele>292.86</ele>
        <time>2015-02-15T07:29:19Z</time>
      </trkpt>
      <trkpt lat="41.581450600" lon="2.454234300">
        <ele>292.86</ele>
        <time>2015-02-15T07:29:21Z</time>
      </trkpt>
      <trkpt lat="41.581359740" lon="2.454020890">
        <ele>293.82</ele>
        <time>2015-02-15T07:29:30Z</time>
      </trkpt>
      <trkpt lat="41.581269220" lon="2.453871360">
        <ele>296.22</ele>
        <time>2015-02-15T07:29:41Z</time>
      </trkpt>
      <trkpt lat="41.581203750" lon="2.453695670">
        <ele>298.63</ele>
        <time>2015-02-15T07:29:52Z</time>
      </trkpt>
      <trkpt lat="41.581105020" lon="2.453568100">
        <ele>301.99</ele>
        <time>2015-02-15T07:30:02Z</time>
      </trkpt>
      <trkpt lat="41.580979290" lon="2.453353270">
        <ele>305.84</ele>
        <time>2015-02-15T07:30:14Z</time>
      </trkpt>
      <trkpt lat="41.580901500" lon="2.453253280">
        <ele>307.76</ele>
        <time>2015-02-15T07:30:24Z</time>
      </trkpt>
      <trkpt lat="41.580897140" lon="2.453336510">
        <ele>308.24</ele>
        <time>2015-02-15T07:30:31Z</time>
      </trkpt>
      <trkpt lat="41.580885410" lon="2.453565250">
        <ele>310.16</ele>
        <time>2015-02-15T07:30:43Z</time>
      </trkpt>
      <trkpt lat="41.580822800" lon="2.453615210">
        <ele>313.05</ele>
        <time>2015-02-15T07:30:54Z</time>
      </trkpt>
      <trkpt lat="41.580689360" lon="2.453741770">
        <ele>316.41</ele>
        <time>2015-02-15T07:31:07Z</time>
      </trkpt>
      <trkpt lat="41.580571590" lon="2.453785030">
        <ele>318.81</ele>
        <time>2015-02-15T07:31:19Z</time>
      </trkpt>
      <trkpt lat="41.580428930" lon="2.453831290">
        <ele>321.22</ele>
        <time>2015-02-15T07:31:32Z</time>
      </trkpt>
      <trkpt lat="41.580249980" lon="2.453877390">
        <ele>323.14</ele>
        <time>2015-02-15T07:31:46Z</time>
      </trkpt>
      <trkpt lat="41.580149730" lon="2.453869680">
        <ele>326.50</ele>
        <time>2015-02-15T07:31:59Z</time>
      </trkpt>
      <trkpt lat="41.580049820" lon="2.453903210">
        <ele>327.95</ele>
        <time>2015-02-15T07:32:11Z</time>
      </trkpt>
      <trkpt lat="41.579965080" lon="2.454056180">
        <ele>328.40</ele>
        <time>2015-02-15T07:32:24Z</time>
      </trkpt>
      <trkpt lat="41.579964910" lon="2.454086520">
        <ele>328.40</ele>
        <time>2015-02-15T07:32:38Z</time>
      </trkpt>
      <trkpt lat="41.579990310" lon="2.454234460">
        <ele>328.40</ele>
        <time>2015-02-15T07:32:48Z</time>
      </trkpt>
      <trkpt lat="41.580092820" lon="2.454354160">
        <ele>328.91</ele>
        <time>2015-02-15T07:33:01Z</time>
      </trkpt>
      <trkpt lat="41.580141430" lon="2.454583490">
        <ele>329.39</ele>
        <time>2015-02-15T07:33:14Z</time>
      </trkpt>
      <trkpt lat="41.580139420" lon="2.454696980">
        <ele>330.83</ele>
        <time>2015-02-15T07:33:24Z</time>
      </trkpt>
      <trkpt lat="41.580046720" lon="2.454888250">
        <ele>332.75</ele>
        <time>2015-02-15T07:33:37Z</time>
      </trkpt>
      <trkpt lat="41.579869360" lon="2.455079440">
        <ele>334.20</ele>
        <time>2015-02-15T07:33:52Z</time>
      </trkpt>
      <trkpt lat="41.579862570" lon="2.455098390">
        <ele>334.20</ele>
        <time>2015-02-15T07:33:53Z</time>
      </trkpt>
      <trkpt lat="41.579757210" lon="2.455210950">
        <ele>336.60</ele>
        <time>2015-02-15T07:34:03Z</time>
      </trkpt>
      <trkpt lat="41.579714120" lon="2.455180110">
        <ele>337.60</ele>
        <time>2015-02-15T07:34:11Z</time>
      </trkpt>
      <trkpt lat="41.579722590" lon="2.455047340">
        <ele>340.90</ele>
        <time>2015-02-15T07:34:21Z</time>
      </trkpt>
      <trkpt lat="41.579769360" lon="2.454870730">
        <ele>342.40</ele>
        <time>2015-02-15T07:34:33Z</time>
      </trkpt>
      <trkpt lat="41.579736840" lon="2.454876350">
        <ele>342.40</ele>
        <time>2015-02-15T07:34:46Z</time>
      </trkpt>
      <trkpt lat="41.579734320" lon="2.454776770">
        <ele>345.70</ele>
        <time>2015-02-15T07:34:58Z</time>
      </trkpt>
      <trkpt lat="41.579703060" lon="2.454592450">
        <ele>347.20</ele>
        <time>2015-02-15T07:35:12Z</time>
      </trkpt>
      <trkpt lat="41.579623680" lon="2.454527580">
        <ele>349.10</ele>
        <time>2015-02-15T07:35:24Z</time>
      </trkpt>
      <trkpt lat="41.579522010" lon="2.454459270">
        <ele>350.50</ele>
        <time>2015-02-15T07:35:36Z</time>
      </trkpt>
      <trkpt lat="41.579388070" lon="2.454346860">
        <ele>352.00</ele>
        <time>2015-02-15T07:35:48Z</time>
      </trkpt>
      <trkpt lat="41.579348920" lon="2.454277130">
        <ele>352.90</ele>
        <time>2015-02-15T07:35:53Z</time>
      </trkpt>
      <trkpt lat="41.579321680" lon="2.454030200">
        <ele>355.30</ele>
        <time>2015-02-15T07:36:07Z</time>
      </trkpt>
      <trkpt lat="41.579319420" lon="2.453885780">
        <ele>358.20</ele>
        <time>2015-02-15T07:36:16Z</time>
      </trkpt>
      <trkpt lat="41.579276750" lon="2.453718640">
        <ele>360.60</ele>
        <time>2015-02-15T07:36:28Z</time>
      </trkpt>
      <trkpt lat="41.579257980" lon="2.453578410">
        <ele>364.00</ele>
        <time>2015-02-15T07:36:42Z</time>
      </trkpt>
      <trkpt lat="41.579229310" lon="2.453315720">
        <ele>365.40</ele>
        <time>2015-02-15T07:36:56Z</time>
      </trkpt>
      <trkpt lat="41.579213390" lon="2.453034930">
        <ele>367.40</ele>
        <time>2015-02-15T07:37:11Z</time>
      </trkpt>
      <trkpt lat="41.579143480" lon="2.452795370">
        <ele>368.30</ele>
        <time>2015-02-15T07:37:23Z</time>
      </trkpt>
      <trkpt lat="41.579060420" lon="2.452598570">
        <ele>370.20</ele>
        <time>2015-02-15T07:37:36Z</time>
      </trkpt>
      <trkpt lat="41.578955480" lon="2.452404780">
        <ele>371.70</ele>
        <time>2015-02-15T07:37:50Z</time>
      </trkpt>
      <trkpt lat="41.578951290" lon="2.452242250">
        <ele>372.20</ele>
        <time>2015-02-15T07:38:01Z</time>
      </trkpt>
      <trkpt lat="41.578958330" lon="2.452231690">
        <ele>372.20</ele>
        <time>2015-02-15T07:38:02Z</time>
      </trkpt>
      <trkpt lat="41.579054380" lon="2.452189360">
        <ele>370.70</ele>
        <time>2015-02-15T07:38:08Z</time>
      </trkpt>
      <trkpt lat="41.579255720" lon="2.452224900">
        <ele>367.40</ele>
        <time>2015-02-15T07:38:17Z</time>
      </trkpt>
      <trkpt lat="41.579511870" lon="2.452133790">
        <ele>364.50</ele>
        <time>2015-02-15T07:38:26Z</time>
      </trkpt>
      <trkpt lat="41.579752850" lon="2.452050390">
        <ele>362.10</ele>
        <time>2015-02-15T07:38:34Z</time>
      </trkpt>
      <trkpt lat="41.579941780" lon="2.451929940">
        <ele>364.00</ele>
        <time>2015-02-15T07:38:44Z</time>
      </trkpt>
      <trkpt lat="41.580125840" lon="2.451873200">
        <ele>367.36</ele>
        <time>2015-02-15T07:38:56Z</time>
      </trkpt>
      <trkpt lat="41.580247710" lon="2.451677650">
        <ele>367.84</ele>
        <time>2015-02-15T07:39:09Z</time>
      </trkpt>
      <trkpt lat="41.580293650" lon="2.451586280">
        <ele>369.76</ele>
        <time>2015-02-15T07:39:22Z</time>
      </trkpt>
      <trkpt lat="41.580321140" lon="2.451565830">
        <ele>372.17</ele>
        <time>2015-02-15T07:39:35Z</time>
      </trkpt>
      <trkpt lat="41.580364560" lon="2.451580420">
        <ele>373.61</ele>
        <time>2015-02-15T07:39:47Z</time>
      </trkpt>
      <trkpt lat="41.580400680" lon="2.451537250">
        <ele>375.05</ele>
        <time>2015-02-15T07:39:57Z</time>
      </trkpt>
      <trkpt lat="41.580433710" lon="2.451430210">
        <ele>376.01</ele>
        <time>2015-02-15T07:40:08Z</time>
      </trkpt>
      <trkpt lat="41.580446110" lon="2.451312030">
        <ele>376.97</ele>
        <time>2015-02-15T07:40:19Z</time>
      </trkpt>
      <trkpt lat="41.580464720" lon="2.451278670">
        <ele>377.45</ele>
        <time>2015-02-15T07:40:27Z</time>
      </trkpt>
      <trkpt lat="41.580474700" lon="2.451216310">
        <ele>378.42</ele>
        <time>2015-02-15T07:40:36Z</time>
      </trkpt>
      <trkpt lat="41.580494140" lon="2.451068620">
        <ele>379.86</ele>
        <time>2015-02-15T07:40:46Z</time>
      </trkpt>
      <trkpt lat="41.580521300" lon="2.450913390">
        <ele>381.78</ele>
        <time>2015-02-15T07:40:56Z</time>
      </trkpt>
      <trkpt lat="41.580561780" lon="2.450751870">
        <ele>383.22</ele>
        <time>2015-02-15T07:41:07Z</time>
      </trkpt>
      <trkpt lat="41.580575950" lon="2.450594200">
        <ele>384.18</ele>
        <time>2015-02-15T07:41:15Z</time>
      </trkpt>
      <trkpt lat="41.580582570" lon="2.450443910">
        <ele>384.66</ele>
        <time>2015-02-15T07:41:23Z</time>
      </trkpt>
      <trkpt lat="41.580676700" lon="2.450308380">
        <ele>384.66</ele>
        <time>2015-02-15T07:41:31Z</time>
      </trkpt>
      <trkpt lat="41.580737050" lon="2.450228080">
        <ele>383.22</ele>
        <time>2015-02-15T07:41:34Z</time>
      </trkpt>
      <trkpt lat="41.580851710" lon="2.449947960">
        <ele>382.26</ele>
        <time>2015-02-15T07:41:41Z</time>
      </trkpt>
      <trkpt lat="41.580972160" lon="2.449722320">
        <ele>381.78</ele>
        <time>2015-02-15T07:41:48Z</time>
      </trkpt>
      <trkpt lat="41.581132930" lon="2.449407070">
        <ele>381.78</ele>
        <time>2015-02-15T07:41:57Z</time>
      </trkpt>
      <trkpt lat="41.581310960" lon="2.449056630">
        <ele>378.42</ele>
        <time>2015-02-15T07:42:05Z</time>
      </trkpt>
      <trkpt lat="41.581527300" lon="2.448787150">
        <ele>375.53</ele>
        <time>2015-02-15T07:42:13Z</time>
      </trkpt>
      <trkpt lat="41.581703150" lon="2.448623200">
        <ele>373.61</ele>
        <time>2015-02-15T07:42:18Z</time>
      </trkpt>
      <trkpt lat="41.581973550" lon="2.448382220">
        <ele>370.24</ele>
        <time>2015-02-15T07:42:25Z</time>
      </trkpt>
      <trkpt lat="41.582143700" lon="2.448266720">
        <ele>369.28</ele>
        <time>2015-02-15T07:42:30Z</time>
      </trkpt>
      <trkpt lat="41.582345200" lon="2.448004280">
        <ele>367.84</ele>
        <time>2015-02-15T07:42:38Z</time>
      </trkpt>
      <trkpt lat="41.582395580" lon="2.447833120">
        <ele>366.40</ele>
        <time>2015-02-15T07:42:41Z</time>
      </trkpt>
      <trkpt lat="41.582514520" lon="2.447504300">
        <ele>363.04</ele>
        <time>2015-02-15T07:42:48Z</time>
      </trkpt>
      <trkpt lat="41.582533630" lon="2.447472700">
        <ele>363.04</ele>
        <time>2015-02-15T07:42:55Z</time>
      </trkpt>
      <trkpt lat="41.582576290" lon="2.447420730">
        <ele>362.07</ele>
        <time>2015-02-15T07:43:09Z</time>
      </trkpt>
      <trkpt lat="41.582619370" lon="2.447331550">
        <ele>360.63</ele>
        <time>2015-02-15T07:43:13Z</time>
      </trkpt>
      <trkpt lat="41.582739650" lon="2.447036080">
        <ele>357.75</ele>
        <time>2015-02-15T07:43:21Z</time>
      </trkpt>
      <trkpt lat="41.582802270" lon="2.446838440">
        <ele>355.34</ele>
        <time>2015-02-15T07:43:27Z</time>
      </trkpt>
      <trkpt lat="41.582820120" lon="2.446800300">
        <ele>354.86</ele>
        <time>2015-02-15T07:43:28Z</time>
      </trkpt>
      <trkpt lat="41.582924810" lon="2.446805000">
        <ele>351.50</ele>
        <time>2015-02-15T07:43:32Z</time>
      </trkpt>
      <trkpt lat="41.582977620" lon="2.446887810">
        <ele>350.06</ele>
        <time>2015-02-15T07:43:35Z</time>
      </trkpt>
      <trkpt lat="41.583007790" lon="2.446883620">
        <ele>349.10</ele>
        <time>2015-02-15T07:43:37Z</time>
      </trkpt>
      <trkpt lat="41.583075350" lon="2.446630820">
        <ele>346.21</ele>
        <time>2015-02-15T07:43:43Z</time>
      </trkpt>
      <trkpt lat="41.583073250" lon="2.446387330">
        <ele>343.81</ele>
        <time>2015-02-15T07:43:49Z</time>
      </trkpt>
      <trkpt lat="41.582978290" lon="2.446240730">
        <ele>343.81</ele>
        <time>2015-02-15T07:43:56Z</time>
      </trkpt>
      <trkpt lat="41.582838140" lon="2.446032850">
        <ele>340.92</ele>
        <time>2015-02-15T07:44:03Z</time>
      </trkpt>
      <trkpt lat="41.582681900" lon="2.445927660">
        <ele>338.52</ele>
        <time>2015-02-15T07:44:07Z</time>
      </trkpt>
      <trkpt lat="41.582490710" lon="2.445715600">
        <ele>335.16</ele>
        <time>2015-02-15T07:44:11Z</time>
      </trkpt>
      <trkpt lat="41.582402030" lon="2.445609650">
        <ele>334.68</ele>
        <time>2015-02-15T07:44:13Z</time>
      </trkpt>
      <trkpt lat="41.582245540" lon="2.445489620">
        <ele>333.23</ele>
        <time>2015-02-15T07:44:17Z</time>
      </trkpt>
      <trkpt lat="41.582020740" lon="2.445317210">
        <ele>333.23</ele>
        <time>2015-02-15T07:44:23Z</time>
      </trkpt>
      <trkpt lat="41.582004650" lon="2.445090140">
        <ele>333.23</ele>
        <time>2015-02-15T07:44:28Z</time>
      </trkpt>
      <trkpt lat="41.581938510" lon="2.444915210">
        <ele>333.23</ele>
        <time>2015-02-15T07:44:33Z</time>
      </trkpt>
      <trkpt lat="41.581762160" lon="2.444843380">
        <ele>331.79</ele>
        <time>2015-02-15T07:44:37Z</time>
      </trkpt>
      <trkpt lat="41.581608940" lon="2.444628550">
        <ele>331.31</ele>
        <time>2015-02-15T07:44:41Z</time>
      </trkpt>
      <trkpt lat="41.581547500" lon="2.444295200">
        <ele>331.31</ele>
        <time>2015-02-15T07:44:48Z</time>
      </trkpt>
      <trkpt lat="41.581538190" lon="2.444189000">
        <ele>332.75</ele>
        <time>2015-02-15T07:44:51Z</time>
      </trkpt>
      <trkpt lat="41.581532830" lon="2.443937380">
        <ele>333.71</ele>
        <time>2015-02-15T07:44:58Z</time>
      </trkpt>
      <trkpt lat="41.581508520" lon="2.443867310">
        <ele>334.20</ele>
        <time>2015-02-15T07:45:01Z</time>
      </trkpt>
      <trkpt lat="41.581438030" lon="2.443749880">
        <ele>335.16</ele>
        <time>2015-02-15T07:45:08Z</time>
      </trkpt>
      <trkpt lat="41.581293690" lon="2.443708130">
        <ele>333.71</ele>
        <time>2015-02-15T07:45:14Z</time>
      </trkpt>
      <trkpt lat="41.581254050" lon="2.443718690">
        <ele>333.23</ele>
        <time>2015-02-15T07:45:15Z</time>
      </trkpt>
      <trkpt lat="41.580994040" lon="2.443675700">
        <ele>332.27</ele>
        <time>2015-02-15T07:45:21Z</time>
      </trkpt>
      <trkpt lat="41.580931590" lon="2.443657340">
        <ele>332.27</ele>
        <time>2015-02-15T07:45:23Z</time>
      </trkpt>
      <trkpt lat="41.580888180" lon="2.443463720">
        <ele>331.31</ele>
        <time>2015-02-15T07:45:29Z</time>
      </trkpt>
      <trkpt lat="41.580886160" lon="2.443170430">
        <ele>329.87</ele>
        <time>2015-02-15T07:45:34Z</time>
      </trkpt>
      <trkpt lat="41.580878540" lon="2.443092820">
        <ele>329.39</ele>
        <time>2015-02-15T07:45:38Z</time>
      </trkpt>
      <trkpt lat="41.580860430" lon="2.442966420">
        <ele>329.39</ele>
        <time>2015-02-15T07:45:45Z</time>
      </trkpt>
      <trkpt lat="41.580841660" lon="2.442875640">
        <ele>329.39</ele>
        <time>2015-02-15T07:45:51Z</time>
      </trkpt>
      <trkpt lat="41.580846100" lon="2.442814870">
        <ele>329.39</ele>
        <time>2015-02-15T07:45:55Z</time>
      </trkpt>
      <trkpt lat="41.580857750" lon="2.442678080">
        <ele>329.39</ele>
        <time>2015-02-15T07:46:00Z</time>
      </trkpt>
      <trkpt lat="41.580733110" lon="2.442535250">
        <ele>328.91</ele>
        <time>2015-02-15T07:46:07Z</time>
      </trkpt>
      <trkpt lat="41.580586340" lon="2.442480770">
        <ele>328.43</ele>
        <time>2015-02-15T07:46:13Z</time>
      </trkpt>
      <trkpt lat="41.580561450" lon="2.442316320">
        <ele>327.95</ele>
        <time>2015-02-15T07:46:19Z</time>
      </trkpt>
      <trkpt lat="41.580608890" lon="2.442060170">
        <ele>327.47</ele>
        <time>2015-02-15T07:46:26Z</time>
      </trkpt>
      <trkpt lat="41.580680470" lon="2.441832100">
        <ele>324.10</ele>
        <time>2015-02-15T07:46:32Z</time>
      </trkpt>
      <trkpt lat="41.580799660" lon="2.441565050">
        <ele>321.70</ele>
        <time>2015-02-15T07:46:39Z</time>
      </trkpt>
      <trkpt lat="41.580806450" lon="2.441377460">
        <ele>320.74</ele>
        <time>2015-02-15T07:46:44Z</time>
      </trkpt>
      <trkpt lat="41.580719700" lon="2.441279230">
        <ele>320.26</ele>
        <time>2015-02-15T07:46:49Z</time>
      </trkpt>
      <trkpt lat="41.580536470" lon="2.441158690">
        <ele>320.26</ele>
        <time>2015-02-15T07:46:57Z</time>
      </trkpt>
      <trkpt lat="41.580508890" lon="2.441141180">
        <ele>320.26</ele>
        <time>2015-02-15T07:46:59Z</time>
      </trkpt>
      <trkpt lat="41.580405880" lon="2.441111760">
        <ele>321.22</ele>
        <time>2015-02-15T07:47:06Z</time>
      </trkpt>
      <trkpt lat="41.580386350" lon="2.441094400">
        <ele>321.22</ele>
        <time>2015-02-15T07:47:09Z</time>
      </trkpt>
      <trkpt lat="41.580373530" lon="2.441050740">
        <ele>320.26</ele>
        <time>2015-02-15T07:47:11Z</time>
      </trkpt>
      <trkpt lat="41.580361210" lon="2.441012350">
        <ele>319.30</ele>
        <time>2015-02-15T07:47:17Z</time>
      </trkpt>
      <trkpt lat="41.580343440" lon="2.440992310">
        <ele>318.33</ele>
        <time>2015-02-15T07:47:27Z</time>
      </trkpt>
      <trkpt lat="41.580372520" lon="2.440976140">
        <ele>317.37</ele>
        <time>2015-02-15T07:47:35Z</time>
      </trkpt>
      <trkpt lat="41.580383420" lon="2.440983600">
        <ele>317.37</ele>
        <time>2015-02-15T07:47:45Z</time>
      </trkpt>
      <trkpt lat="41.580390630" lon="2.441005310">
        <ele>317.37</ele>
        <time>2015-02-15T07:47:55Z</time>
      </trkpt>
      <trkpt lat="41.580400680" lon="2.441008070">
        <ele>317.37</ele>
        <time>2015-02-15T07:48:10Z</time>
      </trkpt>
      <trkpt lat="41.580403450" lon="2.440994490">
        <ele>317.37</ele>
        <time>2015-02-15T07:48:26Z</time>
      </trkpt>
      <trkpt lat="41.580407890" lon="2.441002120">
        <ele>317.37</ele>
        <time>2015-02-15T07:48:35Z</time>
      </trkpt>
      <trkpt lat="41.580422480" lon="2.441007230">
        <ele>317.37</ele>
        <time>2015-02-15T07:48:48Z</time>
      </trkpt>
      <trkpt lat="41.580420380" lon="2.441004470">
        <ele>317.37</ele>
        <time>2015-02-15T07:48:59Z</time>
      </trkpt>
      <trkpt lat="41.580399010" lon="2.440999610">
        <ele>317.37</ele>
        <time>2015-02-15T07:49:09Z</time>
      </trkpt>
      <trkpt lat="41.580353910" lon="2.440994160">
        <ele>317.37</ele>
        <time>2015-02-15T07:49:16Z</time>
      </trkpt>
      <trkpt lat="41.580312260" lon="2.441011090">
        <ele>317.37</ele>
        <time>2015-02-15T07:49:30Z</time>
      </trkpt>
      <trkpt lat="41.580315270" lon="2.441017380">
        <ele>317.37</ele>
        <time>2015-02-15T07:49:51Z</time>
      </trkpt>
      <trkpt lat="41.580318460" lon="2.441031710">
        <ele>317.85</ele>
        <time>2015-02-15T07:50:15Z</time>
      </trkpt>
      <trkpt lat="41.580320220" lon="2.441014360">
        <ele>317.85</ele>
        <time>2015-02-15T07:50:32Z</time>
      </trkpt>
      <trkpt lat="41.580316190" lon="2.441030280">
        <ele>317.37</ele>
        <time>2015-02-15T07:51:00Z</time>
      </trkpt>
      <trkpt lat="41.580315610" lon="2.441016620">
        <ele>317.37</ele>
        <time>2015-02-15T07:51:16Z</time>
      </trkpt>
      <trkpt lat="41.580306560" lon="2.441003540">
        <ele>317.85</ele>
        <time>2015-02-15T07:51:40Z</time>
      </trkpt>
      <trkpt lat="41.580283170" lon="2.440986280">
        <ele>317.85</ele>
        <time>2015-02-15T07:52:09Z</time>
      </trkpt>
      <trkpt lat="41.580296410" lon="2.441012090">
        <ele>317.85</ele>
        <time>2015-02-15T07:52:34Z</time>
      </trkpt>
      <trkpt lat="41.580336560" lon="2.441034730">
        <ele>317.85</ele>
        <time>2015-02-15T07:53:04Z</time>
      </trkpt>
      <trkpt lat="41.580355170" lon="2.441007990">
        <ele>318.33</ele>
        <time>2015-02-15T07:53:27Z</time>
      </trkpt>
      <trkpt lat="41.580343770" lon="2.441012430">
        <ele>318.33</ele>
        <time>2015-02-15T07:53:44Z</time>
      </trkpt>
      <trkpt lat="41.580307060" lon="2.441034060">
        <ele>318.33</ele>
        <time>2015-02-15T07:54:06Z</time>
      </trkpt>
      <trkpt lat="41.580355840" lon="2.441016870">
        <ele>317.85</ele>
        <time>2015-02-15T07:54:14Z</time>
      </trkpt>
      <trkpt lat="41.580393220" lon="2.440943280">
        <ele>318.33</ele>
        <time>2015-02-15T07:54:22Z</time>
      </trkpt>
      <trkpt lat="41.580404370" lon="2.440933720">
        <ele>318.33</ele>
        <time>2015-02-15T07:54:29Z</time>
      </trkpt>
      <trkpt lat="41.580415020" lon="2.440882430">
        <ele>319.78</ele>
        <time>2015-02-15T07:54:37Z</time>
      </trkpt>
      <trkpt lat="41.580430690" lon="2.440834900">
        <ele>320.74</ele>
        <time>2015-02-15T07:54:41Z</time>
      </trkpt>
      <trkpt lat="41.580464300" lon="2.440704310">
        <ele>322.66</ele>
        <time>2015-02-15T07:54:48Z</time>
      </trkpt>
      <trkpt lat="41.580465900" lon="2.440671620">
        <ele>323.14</ele>
        <time>2015-02-15T07:54:50Z</time>
      </trkpt>
      <trkpt lat="41.580415690" lon="2.440674810">
        <ele>324.10</ele>
        <time>2015-02-15T07:54:57Z</time>
      </trkpt>
      <trkpt lat="41.580354330" lon="2.440716050">
        <ele>325.54</ele>
        <time>2015-02-15T07:55:04Z</time>
      </trkpt>
      <trkpt lat="41.580302780" lon="2.440750330">
        <ele>326.50</ele>
        <time>2015-02-15T07:55:10Z</time>
      </trkpt>
      <trkpt lat="41.580278310" lon="2.440775890">
        <ele>327.47</ele>
        <time>2015-02-15T07:55:13Z</time>
      </trkpt>
      <trkpt lat="41.580189960" lon="2.440853510">
        <ele>328.91</ele>
        <time>2015-02-15T07:55:22Z</time>
      </trkpt>
      <trkpt lat="41.580173700" lon="2.440884190">
        <ele>329.39</ele>
        <time>2015-02-15T07:55:24Z</time>
      </trkpt>
      <trkpt lat="41.580074540" lon="2.441013100">
        <ele>331.31</ele>
        <time>2015-02-15T07:55:35Z</time>
      </trkpt>
      <trkpt lat="41.580013190" lon="2.441120050">
        <ele>332.75</ele>
        <time>2015-02-15T07:55:42Z</time>
      </trkpt>
      <trkpt lat="41.579959710" lon="2.441250140">
        <ele>335.20</ele>
        <time>2015-02-15T07:55:51Z</time>
      </trkpt>
      <trkpt lat="41.579950320" lon="2.441257600">
        <ele>335.20</ele>
        <time>2015-02-15T07:55:52Z</time>
      </trkpt>
      <trkpt lat="41.579900960" lon="2.441277720">
        <ele>336.10</ele>
        <time>2015-02-15T07:55:56Z</time>
      </trkpt>
      <trkpt lat="41.579863240" lon="2.441278890">
        <ele>337.10</ele>
        <time>2015-02-15T07:55:59Z</time>
      </trkpt>
      <trkpt lat="41.579814450" lon="2.441203370">
        <ele>338.50</ele>
        <time>2015-02-15T07:56:06Z</time>
      </trkpt>
      <trkpt lat="41.579788470" lon="2.441096330">
        <ele>340.00</ele>
        <time>2015-02-15T07:56:15Z</time>
      </trkpt>
      <trkpt lat="41.579799120" lon="2.440967840">
        <ele>340.90</ele>
        <time>2015-02-15T07:56:24Z</time>
      </trkpt>
      <trkpt lat="41.579803810" lon="2.440873370">
        <ele>342.40</ele>
        <time>2015-02-15T07:56:32Z</time>
      </trkpt>
      <trkpt lat="41.579826520" lon="2.440755780">
        <ele>343.80</ele>
        <time>2015-02-15T07:56:41Z</time>
      </trkpt>
      <trkpt lat="41.579864660" lon="2.440648150">
        <ele>345.70</ele>
        <time>2015-02-15T07:56:50Z</time>
      </trkpt>
      <trkpt lat="41.579892740" lon="2.440540700">
        <ele>347.20</ele>
        <time>2015-02-15T07:56:58Z</time>
      </trkpt>
      <trkpt lat="41.579892410" lon="2.440523930">
        <ele>347.20</ele>
        <time>2015-02-15T07:56:59Z</time>
      </trkpt>
      <trkpt lat="41.579893240" lon="2.440444970">
        <ele>348.10</ele>
        <time>2015-02-15T07:57:03Z</time>
      </trkpt>
      <trkpt lat="41.579795680" lon="2.440368450">
        <ele>349.60</ele>
        <time>2015-02-15T07:57:12Z</time>
      </trkpt>
      <trkpt lat="41.579751340" lon="2.440359140">
        <ele>350.10</ele>
        <time>2015-02-15T07:57:15Z</time>
      </trkpt>
      <trkpt lat="41.579606250" lon="2.440297200">
        <ele>352.00</ele>
        <time>2015-02-15T07:57:25Z</time>
      </trkpt>
      <trkpt lat="41.579480020" lon="2.440252690">
        <ele>354.40</ele>
        <time>2015-02-15T07:57:34Z</time>
      </trkpt>
      <trkpt lat="41.579375580" lon="2.440189410">
        <ele>355.30</ele>
        <time>2015-02-15T07:57:43Z</time>
      </trkpt>
      <trkpt lat="41.579276670" lon="2.440147750">
        <ele>356.30</ele>
        <time>2015-02-15T07:57:50Z</time>
      </trkpt>
      <trkpt lat="41.579192270" lon="2.440106930">
        <ele>357.80</ele>
        <time>2015-02-15T07:57:57Z</time>
      </trkpt>
      <trkpt lat="41.579057990" lon="2.440100230">
        <ele>359.70</ele>
        <time>2015-02-15T07:58:06Z</time>
      </trkpt>
      <trkpt lat="41.578980540" lon="2.440116910">
        <ele>360.60</ele>
        <time>2015-02-15T07:58:12Z</time>
      </trkpt>
      <trkpt lat="41.578917170" lon="2.440169800">
        <ele>361.60</ele>
        <time>2015-02-15T07:58:18Z</time>
      </trkpt>
      <trkpt lat="41.578814240" lon="2.440291330">
        <ele>362.60</ele>
        <time>2015-02-15T07:58:27Z</time>
      </trkpt>
      <trkpt lat="41.578714660" lon="2.440392840">
        <ele>363.50</ele>
        <time>2015-02-15T07:58:35Z</time>
      </trkpt>
      <trkpt lat="41.578570240" lon="2.440540110">
        <ele>364.50</ele>
        <time>2015-02-15T07:58:45Z</time>
      </trkpt>
      <trkpt lat="41.578503940" lon="2.440706490">
        <ele>364.50</ele>
        <time>2015-02-15T07:58:52Z</time>
      </trkpt>
      <trkpt lat="41.578508810" lon="2.440739100">
        <ele>364.50</ele>
        <time>2015-02-15T07:58:53Z</time>
      </trkpt>
      <trkpt lat="41.578579880" lon="2.440774380">
        <ele>364.50</ele>
        <time>2015-02-15T07:58:58Z</time>
      </trkpt>
      <trkpt lat="41.578583400" lon="2.440735660">
        <ele>364.50</ele>
        <time>2015-02-15T07:59:00Z</time>
      </trkpt>
      <trkpt lat="41.578568150" lon="2.440666420">
        <ele>364.50</ele>
        <time>2015-02-15T07:59:07Z</time>
      </trkpt>
      <trkpt lat="41.578553980" lon="2.440647150">
        <ele>364.50</ele>
        <time>2015-02-15T07:59:14Z</time>
      </trkpt>
      <trkpt lat="41.578553400" lon="2.440650750">
        <ele>364.50</ele>
        <time>2015-02-15T07:59:21Z</time>
      </trkpt>
      <trkpt lat="41.578565800" lon="2.440648240">
        <ele>364.00</ele>
        <time>2015-02-15T07:59:44Z</time>
      </trkpt>
      <trkpt lat="41.578565720" lon="2.440656620">
        <ele>364.00</ele>
        <time>2015-02-15T08:00:02Z</time>
      </trkpt>
      <trkpt lat="41.578562870" lon="2.440655360">
        <ele>364.00</ele>
        <time>2015-02-15T08:00:20Z</time>
      </trkpt>
      <trkpt lat="41.578559180" lon="2.440650330">
        <ele>364.00</ele>
        <time>2015-02-15T08:00:48Z</time>
      </trkpt>
      <trkpt lat="41.578563540" lon="2.440646310">
        <ele>364.00</ele>
        <time>2015-02-15T08:01:14Z</time>
      </trkpt>
      <trkpt lat="41.578561950" lon="2.440649660">
        <ele>364.00</ele>
        <time>2015-02-15T08:01:37Z</time>
      </trkpt>
      <trkpt lat="41.578563620" lon="2.440641280">
        <ele>364.00</ele>
        <time>2015-02-15T08:02:02Z</time>
      </trkpt>
      <trkpt lat="41.578562950" lon="2.440636750">
        <ele>364.00</ele>
        <time>2015-02-15T08:02:23Z</time>
      </trkpt>
      <trkpt lat="41.578564380" lon="2.440652090">
        <ele>364.00</ele>
        <time>2015-02-15T08:02:37Z</time>
      </trkpt>
      <trkpt lat="41.578563870" lon="2.440654610">
        <ele>364.00</ele>
        <time>2015-02-15T08:03:03Z</time>
      </trkpt>
      <trkpt lat="41.578571840" lon="2.440650670">
        <ele>364.00</ele>
        <time>2015-02-15T08:03:22Z</time>
      </trkpt>
      <trkpt lat="41.578569240" lon="2.440647820">
        <ele>364.00</ele>
        <time>2015-02-15T08:03:46Z</time>
      </trkpt>
      <trkpt lat="41.578566220" lon="2.440649240">
        <ele>364.00</ele>
        <time>2015-02-15T08:04:08Z</time>
      </trkpt>
      <trkpt lat="41.578568650" lon="2.440645640">
        <ele>363.50</ele>
        <time>2015-02-15T08:04:29Z</time>
      </trkpt>
      <trkpt lat="41.578568480" lon="2.440645720">
        <ele>363.50</ele>
        <time>2015-02-15T08:04:59Z</time>
      </trkpt>
      <trkpt lat="41.578566050" lon="2.440639940">
        <ele>363.50</ele>
        <time>2015-02-15T08:05:25Z</time>
      </trkpt>
      <trkpt lat="41.578567310" lon="2.440652090">
        <ele>363.50</ele>
        <time>2015-02-15T08:05:53Z</time>
      </trkpt>
      <trkpt lat="41.578568400" lon="2.440647230">
        <ele>363.50</ele>
        <time>2015-02-15T08:06:19Z</time>
      </trkpt>
      <trkpt lat="41.578565800" lon="2.440640690">
        <ele>363.50</ele>
        <time>2015-02-15T08:06:45Z</time>
      </trkpt>
      <trkpt lat="41.578568900" lon="2.440642790">
        <ele>363.50</ele>
        <time>2015-02-15T08:07:09Z</time>
      </trkpt>
      <trkpt lat="41.578571250" lon="2.440644130">
        <ele>363.50</ele>
        <time>2015-02-15T08:07:41Z</time>
      </trkpt>
      <trkpt lat="41.578565130" lon="2.440646810">
        <ele>363.50</ele>
        <time>2015-02-15T08:08:06Z</time>
      </trkpt>
      <trkpt lat="41.578565630" lon="2.440648400">
        <ele>363.00</ele>
        <time>2015-02-15T08:08:26Z</time>
      </trkpt>
      <trkpt lat="41.578563120" lon="2.440650330">
        <ele>362.10</ele>
        <time>2015-02-15T08:08:37Z</time>
      </trkpt>
      <trkpt lat="41.578571170" lon="2.440657200">
        <ele>362.10</ele>
        <time>2015-02-15T08:08:58Z</time>
      </trkpt>
      <trkpt lat="41.578574350" lon="2.440653770">
        <ele>362.10</ele>
        <time>2015-02-15T08:09:18Z</time>
      </trkpt>
      <trkpt lat="41.578574020" lon="2.440647150">
        <ele>362.10</ele>
        <time>2015-02-15T08:09:41Z</time>
      </trkpt>
      <trkpt lat="41.578566890" lon="2.440645130">
        <ele>362.10</ele>
        <time>2015-02-15T08:10:03Z</time>
      </trkpt>
      <trkpt lat="41.578560270" lon="2.440645130">
        <ele>362.10</ele>
        <time>2015-02-15T08:10:26Z</time>
      </trkpt>
      <trkpt lat="41.578574940" lon="2.440666340">
        <ele>361.60</ele>
        <time>2015-02-15T08:10:42Z</time>
      </trkpt>
      <trkpt lat="41.578580140" lon="2.440678660">
        <ele>361.60</ele>
        <time>2015-02-15T08:10:45Z</time>
      </trkpt>
      <trkpt lat="41.578571330" lon="2.440746560">
        <ele>361.60</ele>
        <time>2015-02-15T08:10:51Z</time>
      </trkpt>
      <trkpt lat="41.578602600" lon="2.440834310">
        <ele>361.60</ele>
        <time>2015-02-15T08:10:57Z</time>
      </trkpt>
      <trkpt lat="41.578552730" lon="2.440960380">
        <ele>361.10</ele>
        <time>2015-02-15T08:11:04Z</time>
      </trkpt>
      <trkpt lat="41.578575860" lon="2.441119300">
        <ele>360.20</ele>
        <time>2015-02-15T08:11:10Z</time>
      </trkpt>
      <trkpt lat="41.578641570" lon="2.441374860">
        <ele>359.20</ele>
        <time>2015-02-15T08:11:18Z</time>
      </trkpt>
      <trkpt lat="41.578738050" lon="2.441590030">
        <ele>358.70</ele>
        <time>2015-02-15T08:11:25Z</time>
      </trkpt>
      <trkpt lat="41.578895550" lon="2.441910130">
        <ele>358.20</ele>
        <time>2015-02-15T08:11:34Z</time>
      </trkpt>
      <trkpt lat="41.579066120" lon="2.442264600">
        <ele>357.30</ele>
        <time>2015-02-15T08:11:44Z</time>
      </trkpt>
      <trkpt lat="41.579186480" lon="2.442588730">
        <ele>357.30</ele>
        <time>2015-02-15T08:11:53Z</time>
      </trkpt>
      <trkpt lat="41.579279770" lon="2.442838180">
        <ele>357.30</ele>
        <time>2015-02-15T08:12:01Z</time>
      </trkpt>
      <trkpt lat="41.579364260" lon="2.443047300">
        <ele>357.30</ele>
        <time>2015-02-15T08:12:09Z</time>
      </trkpt>
      <trkpt lat="41.579420340" lon="2.443216200">
        <ele>359.20</ele>
        <time>2015-02-15T08:12:16Z</time>
      </trkpt>
      <trkpt lat="41.579492590" lon="2.443430190">
        <ele>360.60</ele>
        <time>2015-02-15T08:12:25Z</time>
      </trkpt>
      <trkpt lat="41.579517650" lon="2.443555920">
        <ele>362.60</ele>
        <time>2015-02-15T08:12:31Z</time>
      </trkpt>
      <trkpt lat="41.579529300" lon="2.443613750">
        <ele>363.50</ele>
        <time>2015-02-15T08:12:34Z</time>
      </trkpt>
      <trkpt lat="41.579556120" lon="2.443786170">
        <ele>365.00</ele>
        <time>2015-02-15T08:12:43Z</time>
      </trkpt>
      <trkpt lat="41.579581020" lon="2.443932770">
        <ele>366.40</ele>
        <time>2015-02-15T08:12:50Z</time>
      </trkpt>
      <trkpt lat="41.579601130" lon="2.444019270">
        <ele>366.90</ele>
        <time>2015-02-15T08:12:54Z</time>
      </trkpt>
      <trkpt lat="41.579631480" lon="2.444189170">
        <ele>368.30</ele>
        <time>2015-02-15T08:13:02Z</time>
      </trkpt>
      <trkpt lat="41.579634830" lon="2.444204510">
        <ele>368.30</ele>
        <time>2015-02-15T08:13:03Z</time>
      </trkpt>
      <trkpt lat="41.579654020" lon="2.444354970">
        <ele>370.20</ele>
        <time>2015-02-15T08:13:10Z</time>
      </trkpt>
      <trkpt lat="41.579690320" lon="2.444502400">
        <ele>371.70</ele>
        <time>2015-02-15T08:13:17Z</time>
      </trkpt>
      <trkpt lat="41.579704150" lon="2.444644220">
        <ele>373.60</ele>
        <time>2015-02-15T08:13:25Z</time>
      </trkpt>
      <trkpt lat="41.579756620" lon="2.444790820">
        <ele>375.10</ele>
        <time>2015-02-15T08:13:33Z</time>
      </trkpt>
      <trkpt lat="41.579822750" lon="2.444937840">
        <ele>376.00</ele>
        <time>2015-02-15T08:13:40Z</time>
      </trkpt>
      <trkpt lat="41.579892150" lon="2.445116460">
        <ele>376.50</ele>
        <time>2015-02-15T08:13:48Z</time>
      </trkpt>
      <trkpt lat="41.579946470" lon="2.445315030">
        <ele>377.00</ele>
        <time>2015-02-15T08:13:56Z</time>
      </trkpt>
      <trkpt lat="41.579987040" lon="2.445522310">
        <ele>377.50</ele>
        <time>2015-02-15T08:14:03Z</time>
      </trkpt>
      <trkpt lat="41.580003800" lon="2.445790620">
        <ele>377.94</ele>
        <time>2015-02-15T08:14:12Z</time>
      </trkpt>
      <trkpt lat="41.580006730" lon="2.445956580">
        <ele>378.90</ele>
        <time>2015-02-15T08:14:18Z</time>
      </trkpt>
      <trkpt lat="41.580000200" lon="2.446070320">
        <ele>379.38</ele>
        <time>2015-02-15T08:14:22Z</time>
      </trkpt>
      <trkpt lat="41.580005650" lon="2.446173500">
        <ele>379.86</ele>
        <time>2015-02-15T08:14:26Z</time>
      </trkpt>
      <trkpt lat="41.579969440" lon="2.446419340">
        <ele>381.30</ele>
        <time>2015-02-15T08:14:36Z</time>
      </trkpt>
      <trkpt lat="41.579967090" lon="2.446442980">
        <ele>381.30</ele>
        <time>2015-02-15T08:14:37Z</time>
      </trkpt>
      <trkpt lat="41.579934900" lon="2.446572230">
        <ele>382.30</ele>
        <time>2015-02-15T08:14:42Z</time>
      </trkpt>
      <trkpt lat="41.579899950" lon="2.446707430">
        <ele>383.20</ele>
        <time>2015-02-15T08:14:47Z</time>
      </trkpt>
      <trkpt lat="41.579830130" lon="2.446904070">
        <ele>384.70</ele>
        <time>2015-02-15T08:14:55Z</time>
      </trkpt>
      <trkpt lat="41.579763160" lon="2.447132730">
        <ele>385.20</ele>
        <time>2015-02-15T08:15:03Z</time>
      </trkpt>
      <trkpt lat="41.579699710" lon="2.447348560">
        <ele>385.60</ele>
        <time>2015-02-15T08:15:09Z</time>
      </trkpt>
      <trkpt lat="41.579634910" lon="2.447625330">
        <ele>385.60</ele>
        <time>2015-02-15T08:15:16Z</time>
      </trkpt>
      <trkpt lat="41.579588730" lon="2.447847960">
        <ele>385.60</ele>
        <time>2015-02-15T08:15:22Z</time>
      </trkpt>
      <trkpt lat="41.579532490" lon="2.448137300">
        <ele>385.60</ele>
        <time>2015-02-15T08:15:28Z</time>
      </trkpt>
      <trkpt lat="41.579459060" lon="2.448576090">
        <ele>383.70</ele>
        <time>2015-02-15T08:15:35Z</time>
      </trkpt>
      <trkpt lat="41.579429310" lon="2.448971630">
        <ele>380.80</ele>
        <time>2015-02-15T08:15:40Z</time>
      </trkpt>
      <trkpt lat="41.579313050" lon="2.449225100">
        <ele>380.80</ele>
        <time>2015-02-15T08:15:44Z</time>
      </trkpt>
      <trkpt lat="41.579092770" lon="2.449663060">
        <ele>380.80</ele>
        <time>2015-02-15T08:15:53Z</time>
      </trkpt>
      <trkpt lat="41.578938130" lon="2.449954240">
        <ele>380.80</ele>
        <time>2015-02-15T08:16:01Z</time>
      </trkpt>
      <trkpt lat="41.578758420" lon="2.450316010">
        <ele>380.80</ele>
        <time>2015-02-15T08:16:09Z</time>
      </trkpt>
      <trkpt lat="41.578621630" lon="2.450573000">
        <ele>378.90</ele>
        <time>2015-02-15T08:16:15Z</time>
      </trkpt>
      <trkpt lat="41.578452060" lon="2.450889920">
        <ele>376.50</ele>
        <time>2015-02-15T08:16:21Z</time>
      </trkpt>
      <trkpt lat="41.578352310" lon="2.451097120">
        <ele>373.60</ele>
        <time>2015-02-15T08:16:25Z</time>
      </trkpt>
      <trkpt lat="41.578220720" lon="2.451299790">
        <ele>370.70</ele>
        <time>2015-02-15T08:16:31Z</time>
      </trkpt>
      <trkpt lat="41.578131280" lon="2.451479330">
        <ele>369.30</ele>
        <time>2015-02-15T08:16:36Z</time>
      </trkpt>
      <trkpt lat="41.577933220" lon="2.451759710">
        <ele>366.40</ele>
        <time>2015-02-15T08:16:42Z</time>
      </trkpt>
      <trkpt lat="41.577739010" lon="2.451888370">
        <ele>363.50</ele>
        <time>2015-02-15T08:16:47Z</time>
      </trkpt>
      <trkpt lat="41.577428960" lon="2.451927010">
        <ele>360.60</ele>
        <time>2015-02-15T08:16:54Z</time>
      </trkpt>
      <trkpt lat="41.577378920" lon="2.451926250">
        <ele>359.70</ele>
        <time>2015-02-15T08:16:55Z</time>
      </trkpt>
      <trkpt lat="41.577031750" lon="2.451878230">
        <ele>356.80</ele>
        <time>2015-02-15T08:17:02Z</time>
      </trkpt>
      <trkpt lat="41.576747680" lon="2.451839920">
        <ele>353.90</ele>
        <time>2015-02-15T08:17:07Z</time>
      </trkpt>
      <trkpt lat="41.576445100" lon="2.451817880">
        <ele>350.10</ele>
        <time>2015-02-15T08:17:13Z</time>
      </trkpt>
      <trkpt lat="41.576280220" lon="2.451816620">
        <ele>348.10</ele>
        <time>2015-02-15T08:17:17Z</time>
      </trkpt>
      <trkpt lat="41.576248620" lon="2.451820310">
        <ele>346.70</ele>
        <time>2015-02-15T08:17:18Z</time>
      </trkpt>
      <trkpt lat="41.576079980" lon="2.451666580">
        <ele>344.30</ele>
        <time>2015-02-15T08:17:23Z</time>
      </trkpt>
      <trkpt lat="41.576106300" lon="2.451533480">
        <ele>342.90</ele>
        <time>2015-02-15T08:17:26Z</time>
      </trkpt>
      <trkpt lat="41.576235210" lon="2.451326610">
        <ele>340.40</ele>
        <time>2015-02-15T08:17:31Z</time>
      </trkpt>
      <trkpt lat="41.576326830" lon="2.451259220">
        <ele>339.50</ele>
        <time>2015-02-15T08:17:34Z</time>
      </trkpt>
      <trkpt lat="41.576544420" lon="2.451235920">
        <ele>337.10</ele>
        <time>2015-02-15T08:17:38Z</time>
      </trkpt>
      <trkpt lat="41.576605440" lon="2.451233490">
        <ele>336.10</ele>
        <time>2015-02-15T08:17:39Z</time>
      </trkpt>
      <trkpt lat="41.576927980" lon="2.451167690">
        <ele>334.70</ele>
        <time>2015-02-15T08:17:44Z</time>
      </trkpt>
      <trkpt lat="41.577169210" lon="2.451098040">
        <ele>333.20</ele>
        <time>2015-02-15T08:17:48Z</time>
      </trkpt>
      <trkpt lat="41.577364420" lon="2.450832160">
        <ele>332.80</ele>
        <time>2015-02-15T08:17:53Z</time>
      </trkpt>
      <trkpt lat="41.577361240" lon="2.450605430">
        <ele>332.80</ele>
        <time>2015-02-15T08:17:58Z</time>
      </trkpt>
      <trkpt lat="41.577218080" lon="2.450335030">
        <ele>332.80</ele>
        <time>2015-02-15T08:18:06Z</time>
      </trkpt>
      <trkpt lat="41.577139790" lon="2.450158760">
        <ele>332.80</ele>
        <time>2015-02-15T08:18:10Z</time>
      </trkpt>
      <trkpt lat="41.577072820" lon="2.449798090">
        <ele>330.80</ele>
        <time>2015-02-15T08:18:16Z</time>
      </trkpt>
      <trkpt lat="41.577168290" lon="2.449648970">
        <ele>328.40</ele>
        <time>2015-02-15T08:18:20Z</time>
      </trkpt>
      <trkpt lat="41.577311200" lon="2.449536150">
        <ele>326.00</ele>
        <time>2015-02-15T08:18:25Z</time>
      </trkpt>
      <trkpt lat="41.577465010" lon="2.449417630">
        <ele>324.10</ele>
        <time>2015-02-15T08:18:30Z</time>
      </trkpt>
      <trkpt lat="41.577531890" lon="2.449337340">
        <ele>322.70</ele>
        <time>2015-02-15T08:18:33Z</time>
      </trkpt>
      <trkpt lat="41.577634400" lon="2.449119740">
        <ele>319.30</ele>
        <time>2015-02-15T08:18:40Z</time>
      </trkpt>
      <trkpt lat="41.577643210" lon="2.449092840">
        <ele>319.30</ele>
        <time>2015-02-15T08:18:41Z</time>
      </trkpt>
      <trkpt lat="41.577629540" lon="2.448979090">
        <ele>317.40</ele>
        <time>2015-02-15T08:18:46Z</time>
      </trkpt>
      <trkpt lat="41.577575230" lon="2.448962250">
        <ele>316.40</ele>
        <time>2015-02-15T08:18:51Z</time>
      </trkpt>
      <trkpt lat="41.577559300" lon="2.448967950">
        <ele>316.40</ele>
        <time>2015-02-15T08:18:52Z</time>
      </trkpt>
      <trkpt lat="41.577535670" lon="2.448986470">
        <ele>315.90</ele>
        <time>2015-02-15T08:18:58Z</time>
      </trkpt>
      <trkpt lat="41.577490070" lon="2.449083950">
        <ele>315.90</ele>
        <time>2015-02-15T08:19:04Z</time>
      </trkpt>
      <trkpt lat="41.577432070" lon="2.449221500">
        <ele>316.90</ele>
        <time>2015-02-15T08:19:11Z</time>
      </trkpt>
      <trkpt lat="41.577340200" lon="2.449195510">
        <ele>316.90</ele>
        <time>2015-02-15T08:19:16Z</time>
      </trkpt>
      <trkpt lat="41.577161250" lon="2.449301040">
        <ele>317.40</ele>
        <time>2015-02-15T08:19:25Z</time>
      </trkpt>
      <trkpt lat="41.576979110" lon="2.449406990">
        <ele>317.40</ele>
        <time>2015-02-15T08:19:33Z</time>
      </trkpt>
      <trkpt lat="41.576837870" lon="2.449512850">
        <ele>317.40</ele>
        <time>2015-02-15T08:19:40Z</time>
      </trkpt>
      <trkpt lat="41.576812480" lon="2.449705720">
        <ele>317.90</ele>
        <time>2015-02-15T08:19:48Z</time>
      </trkpt>
      <trkpt lat="41.576817420" lon="2.449764560">
        <ele>317.90</ele>
        <time>2015-02-15T08:19:50Z</time>
      </trkpt>
      <trkpt lat="41.576839050" lon="2.450011240">
        <ele>317.90</ele>
        <time>2015-02-15T08:19:58Z</time>
      </trkpt>
      <trkpt lat="41.576843320" lon="2.450073350">
        <ele>316.40</ele>
        <time>2015-02-15T08:20:00Z</time>
      </trkpt>
      <trkpt lat="41.576859500" lon="2.450216930">
        <ele>315.00</ele>
        <time>2015-02-15T08:20:04Z</time>
      </trkpt>
      <trkpt lat="41.576806110" lon="2.450458080">
        <ele>314.50</ele>
        <time>2015-02-15T08:20:10Z</time>
      </trkpt>
      <trkpt lat="41.576609880" lon="2.450448520">
        <ele>313.10</ele>
        <time>2015-02-15T08:20:16Z</time>
      </trkpt>
      <trkpt lat="41.576339320" lon="2.450333610">
        <ele>310.20</ele>
        <time>2015-02-15T08:20:24Z</time>
      </trkpt>
      <trkpt lat="41.576173020" lon="2.450311820">
        <ele>309.20</ele>
        <time>2015-02-15T08:20:29Z</time>
      </trkpt>
      <trkpt lat="41.576113090" lon="2.450319780">
        <ele>308.70</ele>
        <time>2015-02-15T08:20:31Z</time>
      </trkpt>
      <trkpt lat="41.576010160" lon="2.450466550">
        <ele>306.80</ele>
        <time>2015-02-15T08:20:37Z</time>
      </trkpt>
      <trkpt lat="41.575979230" lon="2.450499740">
        <ele>306.30</ele>
        <time>2015-02-15T08:20:38Z</time>
      </trkpt>
      <trkpt lat="41.575802460" lon="2.450502090">
        <ele>306.80</ele>
        <time>2015-02-15T08:20:44Z</time>
      </trkpt>
      <trkpt lat="41.575766750" lon="2.450471490">
        <ele>306.80</ele>
        <time>2015-02-15T08:20:46Z</time>
      </trkpt>
      <trkpt lat="41.575634230" lon="2.450268730">
        <ele>308.70</ele>
        <time>2015-02-15T08:20:56Z</time>
      </trkpt>
      <trkpt lat="41.575484030" lon="2.450175860">
        <ele>308.70</ele>
        <time>2015-02-15T08:21:05Z</time>
      </trkpt>
      <trkpt lat="41.575319990" lon="2.450078800">
        <ele>307.30</ele>
        <time>2015-02-15T08:21:12Z</time>
      </trkpt>
      <trkpt lat="41.575035930" lon="2.449940580">
        <ele>306.30</ele>
        <time>2015-02-15T08:21:22Z</time>
      </trkpt>
      <trkpt lat="41.574883880" lon="2.449951230">
        <ele>304.90</ele>
        <time>2015-02-15T08:21:30Z</time>
      </trkpt>
      <trkpt lat="41.574846750" lon="2.449977290">
        <ele>304.40</ele>
        <time>2015-02-15T08:21:32Z</time>
      </trkpt>
      <trkpt lat="41.574696630" lon="2.449863050">
        <ele>303.40</ele>
        <time>2015-02-15T08:21:38Z</time>
      </trkpt>
      <trkpt lat="41.574590600" lon="2.449780240">
        <ele>302.50</ele>
        <time>2015-02-15T08:21:41Z</time>
      </trkpt>
      <trkpt lat="41.574453050" lon="2.449740170">
        <ele>300.10</ele>
        <time>2015-02-15T08:21:47Z</time>
      </trkpt>
      <trkpt lat="41.574321370" lon="2.449910570">
        <ele>297.70</ele>
        <time>2015-02-15T08:21:55Z</time>
      </trkpt>
      <trkpt lat="41.574191960" lon="2.450240490">
        <ele>294.30</ele>
        <time>2015-02-15T08:22:05Z</time>
      </trkpt>
      <trkpt lat="41.574171000" lon="2.450401750">
        <ele>292.90</ele>
        <time>2015-02-15T08:22:12Z</time>
      </trkpt>
      <trkpt lat="41.574042930" lon="2.450600740">
        <ele>292.40</ele>
        <time>2015-02-15T08:22:20Z</time>
      </trkpt>
      <trkpt lat="41.573999510" lon="2.450622530">
        <ele>293.80</ele>
        <time>2015-02-15T08:22:22Z</time>
      </trkpt>
      <trkpt lat="41.573927260" lon="2.450682970">
        <ele>297.20</ele>
        <time>2015-02-15T08:22:28Z</time>
      </trkpt>
      <trkpt lat="41.573921220" lon="2.450693950">
        <ele>297.20</ele>
        <time>2015-02-15T08:22:29Z</time>
      </trkpt>
      <trkpt lat="41.573812340" lon="2.450785900">
        <ele>297.20</ele>
        <time>2015-02-15T08:22:35Z</time>
      </trkpt>
      <trkpt lat="41.573725760" lon="2.450741890">
        <ele>297.20</ele>
        <time>2015-02-15T08:22:39Z</time>
      </trkpt>
      <trkpt lat="41.573676970" lon="2.450714570">
        <ele>297.20</ele>
        <time>2015-02-15T08:22:42Z</time>
      </trkpt>
      <trkpt lat="41.573620310" lon="2.450746000">
        <ele>296.70</ele>
        <time>2015-02-15T08:22:46Z</time>
      </trkpt>
      <trkpt lat="41.573531880" lon="2.450891260">
        <ele>296.70</ele>
        <time>2015-02-15T08:22:53Z</time>
      </trkpt>
      <trkpt lat="41.573468770" lon="2.451053280">
        <ele>297.20</ele>
        <time>2015-02-15T08:22:59Z</time>
      </trkpt>
      <trkpt lat="41.573467590" lon="2.451239780">
        <ele>297.20</ele>
        <time>2015-02-15T08:23:07Z</time>
      </trkpt>
      <trkpt lat="41.573472370" lon="2.451405740">
        <ele>298.20</ele>
        <time>2015-02-15T08:23:15Z</time>
      </trkpt>
      <trkpt lat="41.573449990" lon="2.451558370">
        <ele>299.10</ele>
        <time>2015-02-15T08:23:23Z</time>
      </trkpt>
      <trkpt lat="41.573443030" lon="2.451569520">
        <ele>299.10</ele>
        <time>2015-02-15T08:23:24Z</time>
      </trkpt>
      <trkpt lat="41.573361060" lon="2.451704050">
        <ele>297.70</ele>
        <time>2015-02-15T08:23:31Z</time>
      </trkpt>
      <trkpt lat="41.573364750" lon="2.451826510">
        <ele>296.70</ele>
        <time>2015-02-15T08:23:38Z</time>
      </trkpt>
      <trkpt lat="41.573360140" lon="2.451828690">
        <ele>297.20</ele>
        <time>2015-02-15T08:23:56Z</time>
      </trkpt>
      <trkpt lat="41.573378070" lon="2.451892560">
        <ele>297.20</ele>
        <time>2015-02-15T08:24:06Z</time>
      </trkpt>
      <trkpt lat="41.573444630" lon="2.452041000">
        <ele>295.70</ele>
        <time>2015-02-15T08:24:13Z</time>
      </trkpt>
      <trkpt lat="41.573601540" lon="2.452192710">
        <ele>293.30</ele>
        <time>2015-02-15T08:24:19Z</time>
      </trkpt>
      <trkpt lat="41.573736570" lon="2.452383490">
        <ele>291.40</ele>
        <time>2015-02-15T08:24:24Z</time>
      </trkpt>
      <trkpt lat="41.573799180" lon="2.452434030">
        <ele>290.50</ele>
        <time>2015-02-15T08:24:26Z</time>
      </trkpt>
      <trkpt lat="41.573904880" lon="2.452639140">
        <ele>288.50</ele>
        <time>2015-02-15T08:24:31Z</time>
      </trkpt>
      <trkpt lat="41.573933040" lon="2.452702170">
        <ele>288.50</ele>
        <time>2015-02-15T08:24:32Z</time>
      </trkpt>
      <trkpt lat="41.574126240" lon="2.452920850">
        <ele>286.10</ele>
        <time>2015-02-15T08:24:37Z</time>
      </trkpt>
      <trkpt lat="41.574330590" lon="2.453050520">
        <ele>284.70</ele>
        <time>2015-02-15T08:24:42Z</time>
      </trkpt>
      <trkpt lat="41.574318940" lon="2.453144140">
        <ele>282.80</ele>
        <time>2015-02-15T08:24:46Z</time>
      </trkpt>
      <trkpt lat="41.574261190" lon="2.453135760">
        <ele>281.30</ele>
        <time>2015-02-15T08:24:48Z</time>
      </trkpt>
      <trkpt lat="41.574113420" lon="2.453110950">
        <ele>278.00</ele>
        <time>2015-02-15T08:24:55Z</time>
      </trkpt>
      <trkpt lat="41.574088360" lon="2.453165600">
        <ele>277.50</ele>
        <time>2015-02-15T08:25:01Z</time>
      </trkpt>
      <trkpt lat="41.574094640" lon="2.453287810">
        <ele>278.90</ele>
        <time>2015-02-15T08:25:08Z</time>
      </trkpt>
      <trkpt lat="41.574078970" lon="2.453341540">
        <ele>279.40</ele>
        <time>2015-02-15T08:25:12Z</time>
      </trkpt>
      <trkpt lat="41.574032530" lon="2.453380680">
        <ele>280.40</ele>
        <time>2015-02-15T08:25:16Z</time>
      </trkpt>
      <trkpt lat="41.573890540" lon="2.453433570">
        <ele>281.30</ele>
        <time>2015-02-15T08:25:25Z</time>
      </trkpt>
      <trkpt lat="41.573747880" lon="2.453455620">
        <ele>281.80</ele>
        <time>2015-02-15T08:25:34Z</time>
      </trkpt>
      <trkpt lat="41.573593150" lon="2.453571710">
        <ele>282.80</ele>
        <time>2015-02-15T08:25:43Z</time>
      </trkpt>
      <trkpt lat="41.573486540" lon="2.453723840">
        <ele>283.70</ele>
        <time>2015-02-15T08:25:52Z</time>
      </trkpt>
      <trkpt lat="41.573361480" lon="2.453807400">
        <ele>284.20</ele>
        <time>2015-02-15T08:25:59Z</time>
      </trkpt>
      <trkpt lat="41.573172800" lon="2.453958780">
        <ele>285.20</ele>
        <time>2015-02-15T08:26:09Z</time>
      </trkpt>
      <trkpt lat="41.573040870" lon="2.454147960">
        <ele>286.10</ele>
        <time>2015-02-15T08:26:18Z</time>
      </trkpt>
      <trkpt lat="41.572898130" lon="2.454345610">
        <ele>287.60</ele>
        <time>2015-02-15T08:26:28Z</time>
      </trkpt>
      <trkpt lat="41.572773320" lon="2.454533860">
        <ele>288.50</ele>
        <time>2015-02-15T08:26:37Z</time>
      </trkpt>
      <trkpt lat="41.572751690" lon="2.454684910">
        <ele>290.00</ele>
        <time>2015-02-15T08:26:43Z</time>
      </trkpt>
      <trkpt lat="41.572799810" lon="2.454904510">
        <ele>291.90</ele>
        <time>2015-02-15T08:26:52Z</time>
      </trkpt>
      <trkpt lat="41.572868370" lon="2.455049940">
        <ele>294.30</ele>
        <time>2015-02-15T08:26:59Z</time>
      </trkpt>
      <trkpt lat="41.572887480" lon="2.455072490">
        <ele>294.80</ele>
        <time>2015-02-15T08:27:01Z</time>
      </trkpt>
      <trkpt lat="41.572967450" lon="2.455183800">
        <ele>296.70</ele>
        <time>2015-02-15T08:27:10Z</time>
      </trkpt>
      <trkpt lat="41.573023100" lon="2.455326460">
        <ele>298.60</ele>
        <time>2015-02-15T08:27:18Z</time>
      </trkpt>
      <trkpt lat="41.573117230" lon="2.455401730">
        <ele>300.60</ele>
        <time>2015-02-15T08:27:27Z</time>
      </trkpt>
      <trkpt lat="41.573206410" lon="2.455269210">
        <ele>303.00</ele>
        <time>2015-02-15T08:27:37Z</time>
      </trkpt>
      <trkpt lat="41.573274640" lon="2.455160160">
        <ele>303.90</ele>
        <time>2015-02-15T08:27:45Z</time>
      </trkpt>
      <trkpt lat="41.573369860" lon="2.455208020">
        <ele>305.80</ele>
        <time>2015-02-15T08:27:52Z</time>
      </trkpt>
      <trkpt lat="41.573440180" lon="2.455278090">
        <ele>307.30</ele>
        <time>2015-02-15T08:27:58Z</time>
      </trkpt>
      <trkpt lat="41.573555690" lon="2.455314050">
        <ele>309.70</ele>
        <time>2015-02-15T08:28:08Z</time>
      </trkpt>
      <trkpt lat="41.573674120" lon="2.455310450">
        <ele>310.60</ele>
        <time>2015-02-15T08:28:18Z</time>
      </trkpt>
      <trkpt lat="41.573791550" lon="2.455335930">
        <ele>313.10</ele>
        <time>2015-02-15T08:28:28Z</time>
      </trkpt>
      <trkpt lat="41.573887530" lon="2.455365180">
        <ele>314.50</ele>
        <time>2015-02-15T08:28:36Z</time>
      </trkpt>
      <trkpt lat="41.573982070" lon="2.455381690">
        <ele>316.90</ele>
        <time>2015-02-15T08:28:44Z</time>
      </trkpt>
      <trkpt lat="41.574091790" lon="2.455473980">
        <ele>318.30</ele>
        <time>2015-02-15T08:28:53Z</time>
      </trkpt>
      <trkpt lat="41.574165810" lon="2.455573300">
        <ele>319.80</ele>
        <time>2015-02-15T08:29:02Z</time>
      </trkpt>
      <trkpt lat="41.574228840" lon="2.455588640">
        <ele>320.70</ele>
        <time>2015-02-15T08:29:07Z</time>
      </trkpt>
      <trkpt lat="41.574261440" lon="2.455568610">
        <ele>321.20</ele>
        <time>2015-02-15T08:29:10Z</time>
      </trkpt>
      <trkpt lat="41.574371160" lon="2.455527040">
        <ele>323.10</ele>
        <time>2015-02-15T08:29:20Z</time>
      </trkpt>
      <trkpt lat="41.574463950" lon="2.455509690">
        <ele>324.10</ele>
        <time>2015-02-15T08:29:27Z</time>
      </trkpt>
      <trkpt lat="41.574524050" lon="2.455495100">
        <ele>324.60</ele>
        <time>2015-02-15T08:29:32Z</time>
      </trkpt>
      <trkpt lat="41.574583980" lon="2.455479090">
        <ele>325.50</ele>
        <time>2015-02-15T08:29:37Z</time>
      </trkpt>
      <trkpt lat="41.574622790" lon="2.455427960">
        <ele>326.00</ele>
        <time>2015-02-15T08:29:41Z</time>
      </trkpt>
      <trkpt lat="41.574727810" lon="2.455332830">
        <ele>328.00</ele>
        <time>2015-02-15T08:29:50Z</time>
      </trkpt>
      <trkpt lat="41.574788920" lon="2.455276920">
        <ele>328.90</ele>
        <time>2015-02-15T08:29:56Z</time>
      </trkpt>
      <trkpt lat="41.574890670" lon="2.455278850">
        <ele>330.40</ele>
        <time>2015-02-15T08:30:03Z</time>
      </trkpt>
      <trkpt lat="41.574933340" lon="2.455293180">
        <ele>331.30</ele>
        <time>2015-02-15T08:30:09Z</time>
      </trkpt>
      <trkpt lat="41.574954710" lon="2.455297120">
        <ele>331.80</ele>
        <time>2015-02-15T08:30:16Z</time>
      </trkpt>
      <trkpt lat="41.575030400" lon="2.455335010">
        <ele>334.20</ele>
        <time>2015-02-15T08:30:27Z</time>
      </trkpt>
      <trkpt lat="41.575063840" lon="2.455359060">
        <ele>334.70</ele>
        <time>2015-02-15T08:30:36Z</time>
      </trkpt>
      <trkpt lat="41.575071140" lon="2.455361490">
        <ele>335.20</ele>
        <time>2015-02-15T08:30:37Z</time>
      </trkpt>
      <trkpt lat="41.575163080" lon="2.455396450">
        <ele>336.60</ele>
        <time>2015-02-15T08:30:47Z</time>
      </trkpt>
      <trkpt lat="41.575235920" lon="2.455450090">
        <ele>338.50</ele>
        <time>2015-02-15T08:30:58Z</time>
      </trkpt>
      <trkpt lat="41.575255200" lon="2.455484370">
        <ele>338.50</ele>
        <time>2015-02-15T08:31:05Z</time>
      </trkpt>
      <trkpt lat="41.575263500" lon="2.455515970">
        <ele>339.00</ele>
        <time>2015-02-15T08:31:08Z</time>
      </trkpt>
      <trkpt lat="41.575288730" lon="2.455586380">
        <ele>339.50</ele>
        <time>2015-02-15T08:31:13Z</time>
      </trkpt>
      <trkpt lat="41.575319990" lon="2.455718900">
        <ele>340.40</ele>
        <time>2015-02-15T08:31:23Z</time>
      </trkpt>
      <trkpt lat="41.575352930" lon="2.455834150">
        <ele>342.40</ele>
        <time>2015-02-15T08:31:33Z</time>
      </trkpt>
      <trkpt lat="41.575358380" lon="2.455838840">
        <ele>342.40</ele>
        <time>2015-02-15T08:31:34Z</time>
      </trkpt>
      <trkpt lat="41.575422670" lon="2.455948480">
        <ele>342.90</ele>
        <time>2015-02-15T08:31:41Z</time>
      </trkpt>
      <trkpt lat="41.575447730" lon="2.456010250">
        <ele>341.40</ele>
        <time>2015-02-15T08:31:44Z</time>
      </trkpt>
      <trkpt lat="41.575475980" lon="2.456078480">
        <ele>339.50</ele>
        <time>2015-02-15T08:31:47Z</time>
      </trkpt>
      <trkpt lat="41.575579500" lon="2.456234720">
        <ele>337.10</ele>
        <time>2015-02-15T08:31:53Z</time>
      </trkpt>
      <trkpt lat="41.575778990" lon="2.456417280">
        <ele>334.70</ele>
        <time>2015-02-15T08:31:59Z</time>
      </trkpt>
      <trkpt lat="41.575969590" lon="2.456503610">
        <ele>334.70</ele>
        <time>2015-02-15T08:32:05Z</time>
      </trkpt>
      <trkpt lat="41.575956850" lon="2.456655320">
        <ele>334.20</ele>
        <time>2015-02-15T08:32:11Z</time>
      </trkpt>
      <trkpt lat="41.575910080" lon="2.456752640">
        <ele>335.20</ele>
        <time>2015-02-15T08:32:16Z</time>
      </trkpt>
      <trkpt lat="41.575843610" lon="2.456988170">
        <ele>337.10</ele>
        <time>2015-02-15T08:32:26Z</time>
      </trkpt>
      <trkpt lat="41.575836990" lon="2.457089590">
        <ele>337.60</ele>
        <time>2015-02-15T08:32:31Z</time>
      </trkpt>
      <trkpt lat="41.575950150" lon="2.457274910">
        <ele>339.50</ele>
        <time>2015-02-15T08:32:41Z</time>
      </trkpt>
      <trkpt lat="41.576004210" lon="2.457446830">
        <ele>340.00</ele>
        <time>2015-02-15T08:32:50Z</time>
      </trkpt>
      <trkpt lat="41.576030780" lon="2.457555790">
        <ele>338.50</ele>
        <time>2015-02-15T08:32:55Z</time>
      </trkpt>
      <trkpt lat="41.576035980" lon="2.457612120">
        <ele>338.00</ele>
        <time>2015-02-15T08:32:58Z</time>
      </trkpt>
      <trkpt lat="41.575909910" lon="2.457761400">
        <ele>337.60</ele>
        <time>2015-02-15T08:33:05Z</time>
      </trkpt>
      <trkpt lat="41.575817210" lon="2.457832650">
        <ele>339.00</ele>
        <time>2015-02-15T08:33:10Z</time>
      </trkpt>
      <trkpt lat="41.575693240" lon="2.457959050">
        <ele>341.40</ele>
        <time>2015-02-15T08:33:19Z</time>
      </trkpt>
      <trkpt lat="41.575656780" lon="2.458038760">
        <ele>341.90</ele>
        <time>2015-02-15T08:33:23Z</time>
      </trkpt>
      <trkpt lat="41.575534490" lon="2.458190220">
        <ele>343.30</ele>
        <time>2015-02-15T08:33:33Z</time>
      </trkpt>
      <trkpt lat="41.575529710" lon="2.458206140">
        <ele>343.30</ele>
        <time>2015-02-15T08:33:34Z</time>
      </trkpt>
      <trkpt lat="41.575464250" lon="2.458438070">
        <ele>343.30</ele>
        <time>2015-02-15T08:33:41Z</time>
      </trkpt>
      <trkpt lat="41.575427950" lon="2.458734200">
        <ele>341.40</ele>
        <time>2015-02-15T08:33:48Z</time>
      </trkpt>
      <trkpt lat="41.575381180" lon="2.458906950">
        <ele>340.40</ele>
        <time>2015-02-15T08:33:54Z</time>
      </trkpt>
      <trkpt lat="41.575339520" lon="2.459029000">
        <ele>339.50</ele>
        <time>2015-02-15T08:34:01Z</time>
      </trkpt>
      <trkpt lat="41.575245650" lon="2.459211470">
        <ele>338.50</ele>
        <time>2015-02-15T08:34:10Z</time>
      </trkpt>
      <trkpt lat="41.575115640" lon="2.459395950">
        <ele>336.60</ele>
        <time>2015-02-15T08:34:16Z</time>
      </trkpt>
      <trkpt lat="41.574857730" lon="2.459640710">
        <ele>335.60</ele>
        <time>2015-02-15T08:34:24Z</time>
      </trkpt>
      <trkpt lat="41.574717420" lon="2.459721420">
        <ele>335.20</ele>
        <time>2015-02-15T08:34:30Z</time>
      </trkpt>
      <trkpt lat="41.574499070" lon="2.459703820">
        <ele>334.70</ele>
        <time>2015-02-15T08:34:38Z</time>
      </trkpt>
      <trkpt lat="41.574320030" lon="2.459622940">
        <ele>333.70</ele>
        <time>2015-02-15T08:34:44Z</time>
      </trkpt>
      <trkpt lat="41.574202350" lon="2.459595700">
        <ele>334.20</ele>
        <time>2015-02-15T08:34:50Z</time>
      </trkpt>
      <trkpt lat="41.574112580" lon="2.459545150">
        <ele>335.20</ele>
        <time>2015-02-15T08:34:55Z</time>
      </trkpt>
      <trkpt lat="41.574023400" lon="2.459425040">
        <ele>335.60</ele>
        <time>2015-02-15T08:35:02Z</time>
      </trkpt>
      <trkpt lat="41.573903120" lon="2.459310790">
        <ele>336.10</ele>
        <time>2015-02-15T08:35:10Z</time>
      </trkpt>
      <trkpt lat="41.573785600" lon="2.459211300">
        <ele>334.70</ele>
        <time>2015-02-15T08:35:17Z</time>
      </trkpt>
      <trkpt lat="41.573709660" lon="2.459150370">
        <ele>333.20</ele>
        <time>2015-02-15T08:35:24Z</time>
      </trkpt>
      <trkpt lat="41.573667750" lon="2.459257900">
        <ele>331.80</ele>
        <time>2015-02-15T08:35:31Z</time>
      </trkpt>
      <trkpt lat="41.573671440" lon="2.459300820">
        <ele>331.80</ele>
        <time>2015-02-15T08:35:34Z</time>
      </trkpt>
      <trkpt lat="41.573679490" lon="2.459326390">
        <ele>331.30</ele>
        <time>2015-02-15T08:35:36Z</time>
      </trkpt>
      <trkpt lat="41.573660630" lon="2.459353880">
        <ele>330.40</ele>
        <time>2015-02-15T08:35:39Z</time>
      </trkpt>
      <trkpt lat="41.573581080" lon="2.459366620">
        <ele>327.50</ele>
        <time>2015-02-15T08:35:45Z</time>
      </trkpt>
      <trkpt lat="41.573533640" lon="2.459372070">
        <ele>326.00</ele>
        <time>2015-02-15T08:35:52Z</time>
      </trkpt>
      <trkpt lat="41.573498270" lon="2.459396040">
        <ele>325.10</ele>
        <time>2015-02-15T08:35:58Z</time>
      </trkpt>
      <trkpt lat="41.573479660" lon="2.459444230">
        <ele>324.10</ele>
        <time>2015-02-15T08:36:05Z</time>
      </trkpt>
      <trkpt lat="41.573503300" lon="2.459405260">
        <ele>324.10</ele>
        <time>2015-02-15T08:36:14Z</time>
      </trkpt>
      <trkpt lat="41.573510170" lon="2.459397210">
        <ele>325.50</ele>
        <time>2015-02-15T08:36:22Z</time>
      </trkpt>
      <trkpt lat="41.573528610" lon="2.459397970">
        <ele>326.50</ele>
        <time>2015-02-15T08:36:32Z</time>
      </trkpt>
      <trkpt lat="41.573581250" lon="2.459379780">
        <ele>328.90</ele>
        <time>2015-02-15T08:36:43Z</time>
      </trkpt>
      <trkpt lat="41.573623660" lon="2.459374660">
        <ele>329.90</ele>
        <time>2015-02-15T08:36:52Z</time>
      </trkpt>
      <trkpt lat="41.573624250" lon="2.459317080">
        <ele>331.30</ele>
        <time>2015-02-15T08:37:01Z</time>
      </trkpt>
      <trkpt lat="41.573627860" lon="2.459265030">
        <ele>331.80</ele>
        <time>2015-02-15T08:37:07Z</time>
      </trkpt>
      <trkpt lat="41.573634980" lon="2.459194290">
        <ele>332.30</ele>
        <time>2015-02-15T08:37:17Z</time>
      </trkpt>
      <trkpt lat="41.573640850" lon="2.459174840">
        <ele>332.30</ele>
        <time>2015-02-15T08:37:19Z</time>
      </trkpt>
      <trkpt lat="41.573701530" lon="2.459154720">
        <ele>333.70</ele>
        <time>2015-02-15T08:37:29Z</time>
      </trkpt>
      <trkpt lat="41.573766240" lon="2.459221360">
        <ele>335.20</ele>
        <time>2015-02-15T08:37:39Z</time>
      </trkpt>
      <trkpt lat="41.573806470" lon="2.459251030">
        <ele>335.60</ele>
        <time>2015-02-15T08:37:47Z</time>
      </trkpt>
      <trkpt lat="41.573827510" lon="2.459272150">
        <ele>336.10</ele>
        <time>2015-02-15T08:37:50Z</time>
      </trkpt>
      <trkpt lat="41.573907310" lon="2.459327060">
        <ele>336.60</ele>
        <time>2015-02-15T08:37:57Z</time>
      </trkpt>
      <trkpt lat="41.573949800" lon="2.459372900">
        <ele>336.60</ele>
        <time>2015-02-15T08:38:01Z</time>
      </trkpt>
      <trkpt lat="41.574047370" lon="2.459509530">
        <ele>336.60</ele>
        <time>2015-02-15T08:38:08Z</time>
      </trkpt>
      <trkpt lat="41.574160690" lon="2.459583290">
        <ele>335.20</ele>
        <time>2015-02-15T08:38:13Z</time>
      </trkpt>
      <trkpt lat="41.574248200" lon="2.459608440">
        <ele>334.70</ele>
        <time>2015-02-15T08:38:16Z</time>
      </trkpt>
      <trkpt lat="41.574238310" lon="2.459525960">
        <ele>333.20</ele>
        <time>2015-02-15T08:38:21Z</time>
      </trkpt>
      <trkpt lat="41.574148620" lon="2.459380530">
        <ele>332.30</ele>
        <time>2015-02-15T08:38:25Z</time>
      </trkpt>
      <trkpt lat="41.574042090" lon="2.459155480">
        <ele>331.30</ele>
        <time>2015-02-15T08:38:29Z</time>
      </trkpt>
      <trkpt lat="41.573972350" lon="2.459033440">
        <ele>329.90</ele>
        <time>2015-02-15T08:38:31Z</time>
      </trkpt>
      <trkpt lat="41.573789210" lon="2.458896140">
        <ele>326.50</ele>
        <time>2015-02-15T08:38:36Z</time>
      </trkpt>
      <trkpt lat="41.573604300" lon="2.458890950">
        <ele>324.10</ele>
        <time>2015-02-15T08:38:41Z</time>
      </trkpt>
      <trkpt lat="41.573538670" lon="2.458913910">
        <ele>323.10</ele>
        <time>2015-02-15T08:38:45Z</time>
      </trkpt>
      <trkpt lat="41.573453010" lon="2.458971830">
        <ele>322.20</ele>
        <time>2015-02-15T08:38:50Z</time>
      </trkpt>
      <trkpt lat="41.573342450" lon="2.459029920">
        <ele>320.70</ele>
        <time>2015-02-15T08:38:54Z</time>
      </trkpt>
      <trkpt lat="41.573266010" lon="2.459088000">
        <ele>319.30</ele>
        <time>2015-02-15T08:38:58Z</time>
      </trkpt>
      <trkpt lat="41.573167440" lon="2.459011560">
        <ele>317.40</ele>
        <time>2015-02-15T08:39:04Z</time>
      </trkpt>
      <trkpt lat="41.573103230" lon="2.458963700">
        <ele>315.90</ele>
        <time>2015-02-15T08:39:07Z</time>
      </trkpt>
      <trkpt lat="41.572965600" lon="2.458848030">
        <ele>312.60</ele>
        <time>2015-02-15T08:39:14Z</time>
      </trkpt>
      <trkpt lat="41.572876670" lon="2.458921290">
        <ele>312.60</ele>
        <time>2015-02-15T08:39:22Z</time>
      </trkpt>
      <trkpt lat="41.572861410" lon="2.458925650">
        <ele>312.60</ele>
        <time>2015-02-15T08:39:36Z</time>
      </trkpt>
      <trkpt lat="41.572859570" lon="2.458891530">
        <ele>312.60</ele>
        <time>2015-02-15T08:39:45Z</time>
      </trkpt>
      <trkpt lat="41.572854120" lon="2.458889270">
        <ele>312.60</ele>
        <time>2015-02-15T08:39:59Z</time>
      </trkpt>
      <trkpt lat="41.572850430" lon="2.458887680">
        <ele>312.60</ele>
        <time>2015-02-15T08:40:24Z</time>
      </trkpt>
      <trkpt lat="41.572842810" lon="2.458884660">
        <ele>312.60</ele>
        <time>2015-02-15T08:40:44Z</time>
      </trkpt>
      <trkpt lat="41.572844480" lon="2.458890360">
        <ele>312.60</ele>
        <time>2015-02-15T08:41:04Z</time>
      </trkpt>
      <trkpt lat="41.572842970" lon="2.458886670">
        <ele>312.60</ele>
        <time>2015-02-15T08:41:26Z</time>
      </trkpt>
      <trkpt lat="41.572834680" lon="2.458890950">
        <ele>312.60</ele>
        <time>2015-02-15T08:41:48Z</time>
      </trkpt>
      <trkpt lat="41.572836020" lon="2.458878200">
        <ele>312.60</ele>
        <time>2015-02-15T08:42:13Z</time>
      </trkpt>
      <trkpt lat="41.572839370" lon="2.458869660">
        <ele>312.60</ele>
        <time>2015-02-15T08:42:37Z</time>
      </trkpt>
      <trkpt lat="41.572839960" lon="2.458877200">
        <ele>312.60</ele>
        <time>2015-02-15T08:43:01Z</time>
      </trkpt>
      <trkpt lat="41.572852190" lon="2.458892540">
        <ele>312.60</ele>
        <time>2015-02-15T08:43:24Z</time>
      </trkpt>
      <trkpt lat="41.572842220" lon="2.458893880">
        <ele>312.60</ele>
        <time>2015-02-15T08:43:51Z</time>
      </trkpt>
      <trkpt lat="41.572841050" lon="2.458901760">
        <ele>312.60</ele>
        <time>2015-02-15T08:44:10Z</time>
      </trkpt>
      <trkpt lat="41.572841130" lon="2.458902930">
        <ele>312.60</ele>
        <time>2015-02-15T08:44:34Z</time>
      </trkpt>
      <trkpt lat="41.572835260" lon="2.458889190">
        <ele>312.60</ele>
        <time>2015-02-15T08:44:55Z</time>
      </trkpt>
      <trkpt lat="41.572825540" lon="2.458879380">
        <ele>312.60</ele>
        <time>2015-02-15T08:45:16Z</time>
      </trkpt>
      <trkpt lat="41.572834010" lon="2.458884410">
        <ele>312.60</ele>
        <time>2015-02-15T08:45:46Z</time>
      </trkpt>
      <trkpt lat="41.572837020" lon="2.458875610">
        <ele>312.60</ele>
        <time>2015-02-15T08:46:08Z</time>
      </trkpt>
      <trkpt lat="41.572838280" lon="2.458906540">
        <ele>312.60</ele>
        <time>2015-02-15T08:46:23Z</time>
      </trkpt>
      <trkpt lat="41.572833170" lon="2.458951970">
        <ele>312.60</ele>
        <time>2015-02-15T08:46:30Z</time>
      </trkpt>
      <trkpt lat="41.572813800" lon="2.459011390">
        <ele>312.10</ele>
        <time>2015-02-15T08:46:38Z</time>
      </trkpt>
      <trkpt lat="41.572790080" lon="2.459105020">
        <ele>309.20</ele>
        <time>2015-02-15T08:46:48Z</time>
      </trkpt>
      <trkpt lat="41.572785310" lon="2.459134440">
        <ele>308.70</ele>
        <time>2015-02-15T08:46:51Z</time>
      </trkpt>
      <trkpt lat="41.572776920" lon="2.459177020">
        <ele>308.20</ele>
        <time>2015-02-15T08:46:58Z</time>
      </trkpt>
      <trkpt lat="41.572766360" lon="2.459223710">
        <ele>306.30</ele>
        <time>2015-02-15T08:47:06Z</time>
      </trkpt>
      <trkpt lat="41.572751780" lon="2.459220770">
        <ele>305.40</ele>
        <time>2015-02-15T08:47:11Z</time>
      </trkpt>
      <trkpt lat="41.572738030" lon="2.459206520">
        <ele>305.40</ele>
        <time>2015-02-15T08:47:17Z</time>
      </trkpt>
      <trkpt lat="41.572732420" lon="2.459200320">
        <ele>305.40</ele>
        <time>2015-02-15T08:47:25Z</time>
      </trkpt>
      <trkpt lat="41.572628650" lon="2.459058250">
        <ele>304.40</ele>
        <time>2015-02-15T08:47:32Z</time>
      </trkpt>
      <trkpt lat="41.572445760" lon="2.458993120">
        <ele>302.50</ele>
        <time>2015-02-15T08:47:39Z</time>
      </trkpt>
      <trkpt lat="41.572259840" lon="2.458951630">
        <ele>301.00</ele>
        <time>2015-02-15T08:47:45Z</time>
      </trkpt>
      <trkpt lat="41.572236210" lon="2.458955150">
        <ele>301.00</ele>
        <time>2015-02-15T08:47:51Z</time>
      </trkpt>
      <trkpt lat="41.572222800" lon="2.458959430">
        <ele>301.00</ele>
        <time>2015-02-15T08:48:01Z</time>
      </trkpt>
      <trkpt lat="41.572178710" lon="2.459004270">
        <ele>301.00</ele>
        <time>2015-02-15T08:48:08Z</time>
      </trkpt>
      <trkpt lat="41.572154570" lon="2.459038550">
        <ele>301.00</ele>
        <time>2015-02-15T08:48:14Z</time>
      </trkpt>
      <trkpt lat="41.572131940" lon="2.459064620">
        <ele>301.00</ele>
        <time>2015-02-15T08:48:24Z</time>
      </trkpt>
      <trkpt lat="41.572063290" lon="2.459207950">
        <ele>301.00</ele>
        <time>2015-02-15T08:48:31Z</time>
      </trkpt>
      <trkpt lat="41.572033200" lon="2.459297640">
        <ele>300.60</ele>
        <time>2015-02-15T08:48:34Z</time>
      </trkpt>
      <trkpt lat="41.571962960" lon="2.459536850">
        <ele>300.60</ele>
        <time>2015-02-15T08:48:41Z</time>
      </trkpt>
      <trkpt lat="41.571952480" lon="2.459721260">
        <ele>299.10</ele>
        <time>2015-02-15T08:48:45Z</time>
      </trkpt>
      <trkpt lat="41.572074100" lon="2.460124010">
        <ele>297.20</ele>
        <time>2015-02-15T08:48:52Z</time>
      </trkpt>
      <trkpt lat="41.572122720" lon="2.460364320">
        <ele>296.20</ele>
        <time>2015-02-15T08:48:57Z</time>
      </trkpt>
      <trkpt lat="41.572045020" lon="2.460644020">
        <ele>293.30</ele>
        <time>2015-02-15T08:49:03Z</time>
      </trkpt>
      <trkpt lat="41.572115010" lon="2.460845770">
        <ele>290.90</ele>
        <time>2015-02-15T08:49:07Z</time>
      </trkpt>
      <trkpt lat="41.572162280" lon="2.460976200">
        <ele>289.00</ele>
        <time>2015-02-15T08:49:10Z</time>
      </trkpt>
      <trkpt lat="41.572027410" lon="2.461151040">
        <ele>284.70</ele>
        <time>2015-02-15T08:49:15Z</time>
      </trkpt>
      <trkpt lat="41.571848040" lon="2.461190270">
        <ele>280.80</ele>
        <time>2015-02-15T08:49:19Z</time>
      </trkpt>
      <trkpt lat="41.571771680" lon="2.461204430">
        <ele>278.90</ele>
        <time>2015-02-15T08:49:21Z</time>
      </trkpt>
      <trkpt lat="41.571603630" lon="2.461259080">
        <ele>274.60</ele>
        <time>2015-02-15T08:49:26Z</time>
      </trkpt>
      <trkpt lat="41.571480750" lon="2.461278030">
        <ele>271.20</ele>
        <time>2015-02-15T08:49:30Z</time>
      </trkpt>
      <trkpt lat="41.571398100" lon="2.461334520">
        <ele>268.80</ele>
        <time>2015-02-15T08:49:33Z</time>
      </trkpt>
      <trkpt lat="41.571371870" lon="2.461467880">
        <ele>266.90</ele>
        <time>2015-02-15T08:49:37Z</time>
      </trkpt>
      <trkpt lat="41.571363480" lon="2.461530240">
        <ele>266.40</ele>
        <time>2015-02-15T08:49:39Z</time>
      </trkpt>
      <trkpt lat="41.571406990" lon="2.461682710">
        <ele>264.50</ele>
        <time>2015-02-15T08:49:43Z</time>
      </trkpt>
      <trkpt lat="41.571446970" lon="2.461924360">
        <ele>261.10</ele>
        <time>2015-02-15T08:49:49Z</time>
      </trkpt>
      <trkpt lat="41.571301210" lon="2.462019410">
        <ele>257.80</ele>
        <time>2015-02-15T08:49:54Z</time>
      </trkpt>
      <trkpt lat="41.571091490" lon="2.462059720">
        <ele>254.40</ele>
        <time>2015-02-15T08:49:59Z</time>
      </trkpt>
      <trkpt lat="41.570862160" lon="2.462098110">
        <ele>252.00</ele>
        <time>2015-02-15T08:50:03Z</time>
      </trkpt>
      <trkpt lat="41.570741300" lon="2.462145050">
        <ele>250.10</ele>
        <time>2015-02-15T08:50:05Z</time>
      </trkpt>
      <trkpt lat="41.570527720" lon="2.462259300">
        <ele>245.30</ele>
        <time>2015-02-15T08:50:10Z</time>
      </trkpt>
      <trkpt lat="41.570360170" lon="2.462397680">
        <ele>242.90</ele>
        <time>2015-02-15T08:50:15Z</time>
      </trkpt>
      <trkpt lat="41.570257070" lon="2.462504550">
        <ele>241.40</ele>
        <time>2015-02-15T08:50:17Z</time>
      </trkpt>
      <trkpt lat="41.570060010" lon="2.462865560">
        <ele>236.60</ele>
        <time>2015-02-15T08:50:22Z</time>
      </trkpt>
      <trkpt lat="41.569958590" lon="2.463121880">
        <ele>234.20</ele>
        <time>2015-02-15T08:50:25Z</time>
      </trkpt>
      <trkpt lat="41.569842760" lon="2.463500490">
        <ele>231.30</ele>
        <time>2015-02-15T08:50:29Z</time>
      </trkpt>
      <trkpt lat="41.569611000" lon="2.463826550">
        <ele>227.00</ele>
        <time>2015-02-15T08:50:34Z</time>
      </trkpt>
      <trkpt lat="41.569544860" lon="2.463870800">
        <ele>226.10</ele>
        <time>2015-02-15T08:50:35Z</time>
      </trkpt>
      <trkpt lat="41.569341600" lon="2.464018990">
        <ele>222.70</ele>
        <time>2015-02-15T08:50:39Z</time>
      </trkpt>
      <trkpt lat="41.569230880" lon="2.464203230">
        <ele>221.20</ele>
        <time>2015-02-15T08:50:45Z</time>
      </trkpt>
      <trkpt lat="41.569192400" lon="2.464252350">
        <ele>219.80</ele>
        <time>2015-02-15T08:50:51Z</time>
      </trkpt>
      <trkpt lat="41.569144880" lon="2.464290730">
        <ele>219.80</ele>
        <time>2015-02-15T08:51:03Z</time>
      </trkpt>
      <trkpt lat="41.569114030" lon="2.464324090">
        <ele>219.80</ele>
        <time>2015-02-15T08:51:05Z</time>
      </trkpt>
      <trkpt lat="41.568956540" lon="2.464385370">
        <ele>217.90</ele>
        <time>2015-02-15T08:51:11Z</time>
      </trkpt>
      <trkpt lat="41.568902640" lon="2.464387290">
        <ele>216.90</ele>
        <time>2015-02-15T08:51:14Z</time>
      </trkpt>
      <trkpt lat="41.568766350" lon="2.464386120">
        <ele>215.00</ele>
        <time>2015-02-15T08:51:20Z</time>
      </trkpt>
      <trkpt lat="41.568675410" lon="2.464297270">
        <ele>214.00</ele>
        <time>2015-02-15T08:51:23Z</time>
      </trkpt>
      <trkpt lat="41.568466030" lon="2.464149670">
        <ele>212.10</ele>
        <time>2015-02-15T08:51:29Z</time>
      </trkpt>
      <trkpt lat="41.568375500" lon="2.464117820">
        <ele>211.60</ele>
        <time>2015-02-15T08:51:31Z</time>
      </trkpt>
      <trkpt lat="41.568284220" lon="2.464101220">
        <ele>211.20</ele>
        <time>2015-02-15T08:51:33Z</time>
      </trkpt>
      <trkpt lat="41.568171240" lon="2.464004410">
        <ele>209.70</ele>
        <time>2015-02-15T08:51:38Z</time>
      </trkpt>
      <trkpt lat="41.568135190" lon="2.463955960">
        <ele>209.20</ele>
        <time>2015-02-15T08:51:45Z</time>
      </trkpt>
      <trkpt lat="41.568127060" lon="2.463969790">
        <ele>209.20</ele>
        <time>2015-02-15T08:51:52Z</time>
      </trkpt>
      <trkpt lat="41.568104260" lon="2.464007850">
        <ele>209.20</ele>
        <time>2015-02-15T08:51:59Z</time>
      </trkpt>
      <trkpt lat="41.568094460" lon="2.464010610">
        <ele>209.20</ele>
        <time>2015-02-15T08:52:00Z</time>
      </trkpt>
      <trkpt lat="41.567943840" lon="2.464001890">
        <ele>209.20</ele>
        <time>2015-02-15T08:52:07Z</time>
      </trkpt>
      <trkpt lat="41.567903430" lon="2.463992840">
        <ele>208.30</ele>
        <time>2015-02-15T08:52:09Z</time>
      </trkpt>
      <trkpt lat="41.567869150" lon="2.463990160">
        <ele>207.80</ele>
        <time>2015-02-15T08:52:11Z</time>
      </trkpt>
      <trkpt lat="41.567797150" lon="2.464074900">
        <ele>207.80</ele>
        <time>2015-02-15T08:52:18Z</time>
      </trkpt>
      <trkpt lat="41.567718110" lon="2.464237090">
        <ele>206.30</ele>
        <time>2015-02-15T08:52:23Z</time>
      </trkpt>
      <trkpt lat="41.567590290" lon="2.464495760">
        <ele>204.90</ele>
        <time>2015-02-15T08:52:28Z</time>
      </trkpt>
      <trkpt lat="41.567462630" lon="2.464728440">
        <ele>202.50</ele>
        <time>2015-02-15T08:52:33Z</time>
      </trkpt>
      <trkpt lat="41.567262550" lon="2.464872360">
        <ele>199.60</ele>
        <time>2015-02-15T08:52:38Z</time>
      </trkpt>
      <trkpt lat="41.567212180" lon="2.464884090">
        <ele>198.20</ele>
        <time>2015-02-15T08:52:39Z</time>
      </trkpt>
      <trkpt lat="41.566983770" lon="2.464895990">
        <ele>194.80</ele>
        <time>2015-02-15T08:52:44Z</time>
      </trkpt>
      <trkpt lat="41.566790650" lon="2.464729440">
        <ele>191.90</ele>
        <time>2015-02-15T08:52:48Z</time>
      </trkpt>
      <trkpt lat="41.566637350" lon="2.464424760">
        <ele>188.10</ele>
        <time>2015-02-15T08:52:53Z</time>
      </trkpt>
      <trkpt lat="41.566610690" lon="2.464372290">
        <ele>187.10</ele>
        <time>2015-02-15T08:52:54Z</time>
      </trkpt>
      <trkpt lat="41.566540870" lon="2.464291150">
        <ele>186.20</ele>
        <time>2015-02-15T08:52:56Z</time>
      </trkpt>
      <trkpt lat="41.566420680" lon="2.464330210">
        <ele>185.20</ele>
        <time>2015-02-15T08:52:59Z</time>
      </trkpt>
      <trkpt lat="41.566320680" lon="2.464481510">
        <ele>183.80</ele>
        <time>2015-02-15T08:53:02Z</time>
      </trkpt>
      <trkpt lat="41.566248930" lon="2.464617380">
        <ele>182.80</ele>
        <time>2015-02-15T08:53:04Z</time>
      </trkpt>
      <trkpt lat="41.566182800" lon="2.464777140">
        <ele>181.40</ele>
        <time>2015-02-15T08:53:06Z</time>
      </trkpt>
      <trkpt lat="41.566133340" lon="2.465132030">
        <ele>178.90</ele>
        <time>2015-02-15T08:53:10Z</time>
      </trkpt>
      <trkpt lat="41.566208450" lon="2.465414080">
        <ele>176.10</ele>
        <time>2015-02-15T08:53:13Z</time>
      </trkpt>
      <trkpt lat="41.566297630" lon="2.465580290">
        <ele>175.10</ele>
        <time>2015-02-15T08:53:15Z</time>
      </trkpt>
      <trkpt lat="41.566499550" lon="2.465855640">
        <ele>171.70</ele>
        <time>2015-02-15T08:53:19Z</time>
      </trkpt>
      <trkpt lat="41.566710520" lon="2.465998380">
        <ele>169.80</ele>
        <time>2015-02-15T08:53:22Z</time>
      </trkpt>
      <trkpt lat="41.566990900" lon="2.466111870">
        <ele>166.90</ele>
        <time>2015-02-15T08:53:25Z</time>
      </trkpt>
      <trkpt lat="41.567175720" lon="2.466194600">
        <ele>164.50</ele>
        <time>2015-02-15T08:53:27Z</time>
      </trkpt>
      <trkpt lat="41.567365650" lon="2.466460390">
        <ele>161.20</ele>
        <time>2015-02-15T08:53:31Z</time>
      </trkpt>
      <trkpt lat="41.567337240" lon="2.466844620">
        <ele>157.30</ele>
        <time>2015-02-15T08:53:35Z</time>
      </trkpt>
      <trkpt lat="41.567127770" lon="2.467170510">
        <ele>153.50</ele>
        <time>2015-02-15T08:53:39Z</time>
      </trkpt>
      <trkpt lat="41.566874640" lon="2.467384160">
        <ele>149.10</ele>
        <time>2015-02-15T08:53:43Z</time>
      </trkpt>
      <trkpt lat="41.566703730" lon="2.467500500">
        <ele>146.30</ele>
        <time>2015-02-15T08:53:47Z</time>
      </trkpt>
      <trkpt lat="41.566674310" lon="2.467495970">
        <ele>146.30</ele>
        <time>2015-02-15T08:53:52Z</time>
      </trkpt>
      <trkpt lat="41.566664590" lon="2.467495560">
        <ele>145.80</ele>
        <time>2015-02-15T08:53:54Z</time>
      </trkpt>
      <trkpt lat="41.566618150" lon="2.467439310">
        <ele>146.30</ele>
        <time>2015-02-15T08:53:58Z</time>
      </trkpt>
      <trkpt lat="41.566519500" lon="2.467232950">
        <ele>146.30</ele>
        <time>2015-02-15T08:54:05Z</time>
      </trkpt>
      <trkpt lat="41.566391670" lon="2.467014100">
        <ele>146.30</ele>
        <time>2015-02-15T08:54:13Z</time>
      </trkpt>
      <trkpt lat="41.566290420" lon="2.466904040">
        <ele>147.70</ele>
        <time>2015-02-15T08:54:18Z</time>
      </trkpt>
      <trkpt lat="41.566080370" lon="2.466804130">
        <ele>147.70</ele>
        <time>2015-02-15T08:54:25Z</time>
      </trkpt>
      <trkpt lat="41.565724310" lon="2.466701030">
        <ele>148.20</ele>
        <time>2015-02-15T08:54:35Z</time>
      </trkpt>
      <trkpt lat="41.565505200" lon="2.466590480">
        <ele>148.20</ele>
        <time>2015-02-15T08:54:41Z</time>
      </trkpt>
      <trkpt lat="41.565353070" lon="2.466336090">
        <ele>148.20</ele>
        <time>2015-02-15T08:54:47Z</time>
      </trkpt>
      <trkpt lat="41.565277050" lon="2.466010110">
        <ele>148.20</ele>
        <time>2015-02-15T08:54:53Z</time>
      </trkpt>
      <trkpt lat="41.565164900" lon="2.465401500">
        <ele>148.20</ele>
        <time>2015-02-15T08:55:03Z</time>
      </trkpt>
      <trkpt lat="41.565103290" lon="2.464760540">
        <ele>148.20</ele>
        <time>2015-02-15T08:55:13Z</time>
      </trkpt>
      <trkpt lat="41.565076720" lon="2.464183360">
        <ele>146.70</ele>
        <time>2015-02-15T08:55:22Z</time>
      </trkpt>
      <trkpt lat="41.565070100" lon="2.463887980">
        <ele>146.70</ele>
        <time>2015-02-15T08:55:27Z</time>
      </trkpt>
      <trkpt lat="41.565031960" lon="2.463716910">
        <ele>147.70</ele>
        <time>2015-02-15T08:55:30Z</time>
      </trkpt>
      <trkpt lat="41.564979910" lon="2.463607530">
        <ele>147.70</ele>
        <time>2015-02-15T08:55:32Z</time>
      </trkpt>
      <trkpt lat="41.564925010" lon="2.463510210">
        <ele>147.70</ele>
        <time>2015-02-15T08:55:34Z</time>
      </trkpt>
      <trkpt lat="41.564764830" lon="2.463268900">
        <ele>147.70</ele>
        <time>2015-02-15T08:55:39Z</time>
      </trkpt>
      <trkpt lat="41.564650170" lon="2.463146020">
        <ele>147.70</ele>
        <time>2015-02-15T08:55:42Z</time>
      </trkpt>
      <trkpt lat="41.564430140" lon="2.463103100">
        <ele>148.20</ele>
        <time>2015-02-15T08:55:47Z</time>
      </trkpt>
      <trkpt lat="41.564048930" lon="2.463248530">
        <ele>149.10</ele>
        <time>2015-02-15T08:55:56Z</time>
      </trkpt>
      <trkpt lat="41.563724470" lon="2.463366290">
        <ele>149.60</ele>
        <time>2015-02-15T08:56:03Z</time>
      </trkpt>
      <trkpt lat="41.563568980" lon="2.463429580">
        <ele>149.60</ele>
        <time>2015-02-15T08:56:06Z</time>
      </trkpt>
      <trkpt lat="41.563418530" lon="2.463430160">
        <ele>150.10</ele>
        <time>2015-02-15T08:56:09Z</time>
      </trkpt>
      <trkpt lat="41.563145950" lon="2.463260430">
        <ele>150.10</ele>
        <time>2015-02-15T08:56:15Z</time>
      </trkpt>
      <trkpt lat="41.562802380" lon="2.462946030">
        <ele>150.10</ele>
        <time>2015-02-15T08:56:23Z</time>
      </trkpt>
      <trkpt lat="41.562768930" lon="2.462910650">
        <ele>150.10</ele>
        <time>2015-02-15T08:56:24Z</time>
      </trkpt>
      <trkpt lat="41.562641440" lon="2.462620050">
        <ele>150.10</ele>
        <time>2015-02-15T08:56:30Z</time>
      </trkpt>
      <trkpt lat="41.562634230" lon="2.462565660">
        <ele>150.10</ele>
        <time>2015-02-15T08:56:31Z</time>
      </trkpt>
      <trkpt lat="41.562619990" lon="2.462467420">
        <ele>148.70</ele>
        <time>2015-02-15T08:56:33Z</time>
      </trkpt>
      <trkpt lat="41.562552340" lon="2.462448390">
        <ele>148.70</ele>
        <time>2015-02-15T08:56:37Z</time>
      </trkpt>
      <trkpt lat="41.562405830" lon="2.462546040">
        <ele>148.70</ele>
        <time>2015-02-15T08:56:45Z</time>
      </trkpt>
      <trkpt lat="41.562144230" lon="2.462717790">
        <ele>148.70</ele>
        <time>2015-02-15T08:56:54Z</time>
      </trkpt>
      <trkpt lat="41.562074490" lon="2.462823990">
        <ele>148.70</ele>
        <time>2015-02-15T08:56:57Z</time>
      </trkpt>
      <trkpt lat="41.561949350" lon="2.462988610">
        <ele>147.70</ele>
        <time>2015-02-15T08:57:01Z</time>
      </trkpt>
      <trkpt lat="41.561745840" lon="2.463128500">
        <ele>145.80</ele>
        <time>2015-02-15T08:57:05Z</time>
      </trkpt>
      <trkpt lat="41.561520030" lon="2.463193800">
        <ele>142.90</ele>
        <time>2015-02-15T08:57:08Z</time>
      </trkpt>
      <trkpt lat="41.561195150" lon="2.463432680">
        <ele>141.00</ele>
        <time>2015-02-15T08:57:13Z</time>
      </trkpt>
      <trkpt lat="41.560971010" lon="2.463496550">
        <ele>140.00</ele>
        <time>2015-02-15T08:57:16Z</time>
      </trkpt>
      <trkpt lat="41.560629620" lon="2.463528480">
        <ele>136.60</ele>
        <time>2015-02-15T08:57:20Z</time>
      </trkpt>
      <trkpt lat="41.560293500" lon="2.463779440">
        <ele>134.20</ele>
        <time>2015-02-15T08:57:25Z</time>
      </trkpt>
      <trkpt lat="41.560021090" lon="2.464072470">
        <ele>130.40</ele>
        <time>2015-02-15T08:57:29Z</time>
      </trkpt>
      <trkpt lat="41.559945150" lon="2.464145230">
        <ele>129.40</ele>
        <time>2015-02-15T08:57:30Z</time>
      </trkpt>
      <trkpt lat="41.559640300" lon="2.464389640">
        <ele>124.20</ele>
        <time>2015-02-15T08:57:34Z</time>
      </trkpt>
      <trkpt lat="41.559274770" lon="2.464668090">
        <ele>120.30</ele>
        <time>2015-02-15T08:57:38Z</time>
      </trkpt>
      <trkpt lat="41.558865810" lon="2.464951480">
        <ele>116.50</ele>
        <time>2015-02-15T08:57:42Z</time>
      </trkpt>
      <trkpt lat="41.558578480" lon="2.465194140">
        <ele>114.50</ele>
        <time>2015-02-15T08:57:45Z</time>
      </trkpt>
      <trkpt lat="41.558105410" lon="2.465730330">
        <ele>112.10</ele>
        <time>2015-02-15T08:57:51Z</time>
      </trkpt>
      <trkpt lat="41.557725290" lon="2.466145480">
        <ele>110.70</ele>
        <time>2015-02-15T08:57:57Z</time>
      </trkpt>
      <trkpt lat="41.557547590" lon="2.466296270">
        <ele>110.20</ele>
        <time>2015-02-15T08:58:00Z</time>
      </trkpt>
      <trkpt lat="41.557214080" lon="2.466531390">
        <ele>107.80</ele>
        <time>2015-02-15T08:58:05Z</time>
      </trkpt>
      <trkpt lat="41.557071330" lon="2.466659380">
        <ele>106.80</ele>
        <time>2015-02-15T08:58:07Z</time>
      </trkpt>
      <trkpt lat="41.556752230" lon="2.466969170">
        <ele>103.50</ele>
        <time>2015-02-15T08:58:11Z</time>
      </trkpt>
      <trkpt lat="41.556485440" lon="2.467258930">
        <ele>100.60</ele>
        <time>2015-02-15T08:58:15Z</time>
      </trkpt>
      <trkpt lat="41.556360210" lon="2.467371750">
        <ele>99.60</ele>
        <time>2015-02-15T08:58:17Z</time>
      </trkpt>
      <trkpt lat="41.556163150" lon="2.467558340">
        <ele>97.20</ele>
        <time>2015-02-15T08:58:20Z</time>
      </trkpt>
      <trkpt lat="41.556010770" lon="2.467855060">
        <ele>93.90</ele>
        <time>2015-02-15T08:58:24Z</time>
      </trkpt>
      <trkpt lat="41.555924770" lon="2.467986480">
        <ele>92.40</ele>
        <time>2015-02-15T08:58:28Z</time>
      </trkpt>
      <trkpt lat="41.555906750" lon="2.467971900">
        <ele>91.50</ele>
        <time>2015-02-15T08:58:29Z</time>
      </trkpt>
      <trkpt lat="41.555874650" lon="2.467941470">
        <ele>92.40</ele>
        <time>2015-02-15T08:58:36Z</time>
      </trkpt>
      <trkpt lat="41.555857050" lon="2.467932500">
        <ele>92.40</ele>
        <time>2015-02-15T08:58:40Z</time>
      </trkpt>
      <trkpt lat="41.555790160" lon="2.467823540">
        <ele>89.50</ele>
        <time>2015-02-15T08:58:47Z</time>
      </trkpt>
      <trkpt lat="41.555775160" lon="2.467814240">
        <ele>88.60</ele>
        <time>2015-02-15T08:58:48Z</time>
      </trkpt>
      <trkpt lat="41.555663010" lon="2.467774510">
        <ele>86.70</ele>
        <time>2015-02-15T08:58:54Z</time>
      </trkpt>
      <trkpt lat="41.555534600" lon="2.467828990">
        <ele>83.30</ele>
        <time>2015-02-15T08:59:02Z</time>
      </trkpt>
      <trkpt lat="41.555506180" lon="2.467850860">
        <ele>81.90</ele>
        <time>2015-02-15T08:59:04Z</time>
      </trkpt>
      <trkpt lat="41.555426550" lon="2.467796300">
        <ele>79.50</ele>
        <time>2015-02-15T08:59:10Z</time>
      </trkpt>
      <trkpt lat="41.555374330" lon="2.467718010">
        <ele>77.00</ele>
        <time>2015-02-15T08:59:16Z</time>
      </trkpt>
      <trkpt lat="41.555350530" lon="2.467674680">
        <ele>76.10</ele>
        <time>2015-02-15T08:59:18Z</time>
      </trkpt>
      <trkpt lat="41.555275340" lon="2.467551130">
        <ele>73.20</ele>
        <time>2015-02-15T08:59:24Z</time>
      </trkpt>
      <trkpt lat="41.555218260" lon="2.467452810">
        <ele>71.30</ele>
        <time>2015-02-15T08:59:28Z</time>
      </trkpt>
      <trkpt lat="41.555197390" lon="2.467295400">
        <ele>69.80</ele>
        <time>2015-02-15T08:59:32Z</time>
      </trkpt>
      <trkpt lat="41.555192700" lon="2.467096830">
        <ele>67.40</ele>
        <time>2015-02-15T08:59:39Z</time>
      </trkpt>
      <trkpt lat="41.555191780" lon="2.467098090">
        <ele>67.90</ele>
        <time>2015-02-15T08:59:54Z</time>
      </trkpt>
      <trkpt lat="41.555180290" lon="2.467093060">
        <ele>67.90</ele>
        <time>2015-02-15T09:00:06Z</time>
      </trkpt>
      <trkpt lat="41.555183730" lon="2.467097750">
        <ele>67.90</ele>
        <time>2015-02-15T09:00:21Z</time>
      </trkpt>
      <trkpt lat="41.555177270" lon="2.467099680">
        <ele>67.40</ele>
        <time>2015-02-15T09:00:32Z</time>
      </trkpt>
      <trkpt lat="41.555210800" lon="2.467046540">
        <ele>67.40</ele>
        <time>2015-02-15T09:00:43Z</time>
      </trkpt>
      <trkpt lat="41.555277350" lon="2.467014520">
        <ele>67.40</ele>
        <time>2015-02-15T09:00:49Z</time>
      </trkpt>
      <trkpt lat="41.555287080" lon="2.467004210">
        <ele>67.40</ele>
        <time>2015-02-15T09:00:50Z</time>
      </trkpt>
      <trkpt lat="41.555286240" lon="2.466880830">
        <ele>65.50</ele>
        <time>2015-02-15T09:00:55Z</time>
      </trkpt>
      <trkpt lat="41.555271650" lon="2.466868000">
        <ele>65.00</ele>
        <time>2015-02-15T09:01:00Z</time>
      </trkpt>
      <trkpt lat="41.555272580" lon="2.466852240">
        <ele>65.00</ele>
        <time>2015-02-15T09:01:09Z</time>
      </trkpt>
      <trkpt lat="41.555271570" lon="2.466852160">
        <ele>65.00</ele>
        <time>2015-02-15T09:01:10Z</time>
      </trkpt>
      <trkpt lat="41.555163280" lon="2.466879740">
        <ele>64.60</ele>
        <time>2015-02-15T09:01:17Z</time>
      </trkpt>
      <trkpt lat="41.555091860" lon="2.466960710">
        <ele>64.60</ele>
        <time>2015-02-15T09:01:25Z</time>
      </trkpt>
      <trkpt lat="41.555073340" lon="2.466988370">
        <ele>64.60</ele>
        <time>2015-02-15T09:01:33Z</time>
      </trkpt>
      <trkpt lat="41.555053560" lon="2.466998170">
        <ele>64.10</ele>
        <time>2015-02-15T09:01:41Z</time>
      </trkpt>
      <trkpt lat="41.555013740" lon="2.467016870">
        <ele>64.10</ele>
        <time>2015-02-15T09:01:49Z</time>
      </trkpt>
      <trkpt lat="41.555003180" lon="2.467027090">
        <ele>64.10</ele>
        <time>2015-02-15T09:01:59Z</time>
      </trkpt>
      <trkpt lat="41.555077110" lon="2.466980400">
        <ele>64.10</ele>
        <time>2015-02-15T09:02:08Z</time>
      </trkpt>
      <trkpt lat="41.555085240" lon="2.466974540">
        <ele>64.10</ele>
        <time>2015-02-15T09:02:09Z</time>
      </trkpt>
      <trkpt lat="41.555138050" lon="2.466938580">
        <ele>64.60</ele>
        <time>2015-02-15T09:02:17Z</time>
      </trkpt>
      <trkpt lat="41.555236120" lon="2.466909070">
        <ele>64.60</ele>
        <time>2015-02-15T09:02:26Z</time>
      </trkpt>
      <trkpt lat="41.555265620" lon="2.466924660">
        <ele>64.60</ele>
        <time>2015-02-15T09:02:29Z</time>
      </trkpt>
      <trkpt lat="41.555305850" lon="2.466952910">
        <ele>66.50</ele>
        <time>2015-02-15T09:02:35Z</time>
      </trkpt>
      <trkpt lat="41.555304010" lon="2.466975120">
        <ele>67.90</ele>
        <time>2015-02-15T09:02:43Z</time>
      </trkpt>
      <trkpt lat="41.555304340" lon="2.466981830">
        <ele>67.40</ele>
        <time>2015-02-15T09:02:47Z</time>
      </trkpt>
      <trkpt lat="41.555173170" lon="2.467069000">
        <ele>67.40</ele>
        <time>2015-02-15T09:02:56Z</time>
      </trkpt>
      <trkpt lat="41.555163530" lon="2.467085430">
        <ele>67.40</ele>
        <time>2015-02-15T09:02:57Z</time>
      </trkpt>
      <trkpt lat="41.555154060" lon="2.467141420">
        <ele>67.40</ele>
        <time>2015-02-15T09:03:00Z</time>
      </trkpt>
      <trkpt lat="41.555159000" lon="2.467173100">
        <ele>67.40</ele>
        <time>2015-02-15T09:03:02Z</time>
      </trkpt>
      <trkpt lat="41.555169810" lon="2.467244010">
        <ele>67.40</ele>
        <time>2015-02-15T09:03:09Z</time>
      </trkpt>
      <trkpt lat="41.555168640" lon="2.467279130">
        <ele>67.90</ele>
        <time>2015-02-15T09:03:15Z</time>
      </trkpt>
      <trkpt lat="41.555192190" lon="2.467393970">
        <ele>69.40</ele>
        <time>2015-02-15T09:03:24Z</time>
      </trkpt>
      <trkpt lat="41.555172830" lon="2.467418270">
        <ele>69.80</ele>
        <time>2015-02-15T09:03:30Z</time>
      </trkpt>
      <trkpt lat="41.555158830" lon="2.467368570">
        <ele>68.90</ele>
        <time>2015-02-15T09:03:37Z</time>
      </trkpt>
      <trkpt lat="41.555154730" lon="2.467356500">
        <ele>68.40</ele>
        <time>2015-02-15T09:03:41Z</time>
      </trkpt>
      <trkpt lat="41.555138130" lon="2.467278130">
        <ele>67.40</ele>
        <time>2015-02-15T09:03:45Z</time>
      </trkpt>
      <trkpt lat="41.555124380" lon="2.467239820">
        <ele>66.50</ele>
        <time>2015-02-15T09:03:47Z</time>
      </trkpt>
      <trkpt lat="41.555121030" lon="2.467184590">
        <ele>65.50</ele>
        <time>2015-02-15T09:03:53Z</time>
      </trkpt>
      <trkpt lat="41.555119190" lon="2.467198750">
        <ele>65.50</ele>
        <time>2015-02-15T09:03:55Z</time>
      </trkpt>
      <trkpt lat="41.555053470" lon="2.467157350">
        <ele>64.60</ele>
        <time>2015-02-15T09:04:01Z</time>
      </trkpt>
      <trkpt lat="41.554990190" lon="2.467114260">
        <ele>63.10</ele>
        <time>2015-02-15T09:04:08Z</time>
      </trkpt>
      <trkpt lat="41.554959600" lon="2.467053750">
        <ele>62.10</ele>
        <time>2015-02-15T09:04:16Z</time>
      </trkpt>
      <trkpt lat="41.554952970" lon="2.466999680">
        <ele>61.70</ele>
        <time>2015-02-15T09:04:23Z</time>
      </trkpt>
      <trkpt lat="41.554948780" lon="2.466930280">
        <ele>60.20</ele>
        <time>2015-02-15T09:04:29Z</time>
      </trkpt>
      <trkpt lat="41.554955070" lon="2.466877390">
        <ele>58.30</ele>
        <time>2015-02-15T09:04:35Z</time>
      </trkpt>
      <trkpt lat="41.554935370" lon="2.466816870">
        <ele>57.80</ele>
        <time>2015-02-15T09:04:42Z</time>
      </trkpt>
      <trkpt lat="41.554927410" lon="2.466735570">
        <ele>56.90</ele>
        <time>2015-02-15T09:04:48Z</time>
      </trkpt>
      <trkpt lat="41.554908800" lon="2.466571120">
        <ele>54.90</ele>
        <time>2015-02-15T09:04:54Z</time>
      </trkpt>
      <trkpt lat="41.554904020" lon="2.466560300">
        <ele>54.90</ele>
        <time>2015-02-15T09:05:03Z</time>
      </trkpt>
      <trkpt lat="41.554895220" lon="2.466551840">
        <ele>54.90</ele>
        <time>2015-02-15T09:05:18Z</time>
      </trkpt>
      <trkpt lat="41.554806380" lon="2.466611350">
        <ele>51.10</ele>
        <time>2015-02-15T09:05:23Z</time>
      </trkpt>
      <trkpt lat="41.554769660" lon="2.466625260">
        <ele>54.50</ele>
        <time>2015-02-15T09:05:24Z</time>
      </trkpt>
      <trkpt lat="41.554641420" lon="2.466591320">
        <ele>51.60</ele>
        <time>2015-02-15T09:05:29Z</time>
      </trkpt>
      <trkpt lat="41.554485940" lon="2.466511690">
        <ele>50.60</ele>
        <time>2015-02-15T09:05:35Z</time>
      </trkpt>
      <trkpt lat="41.554336150" lon="2.466467850">
        <ele>49.70</ele>
        <time>2015-02-15T09:05:40Z</time>
      </trkpt>
      <trkpt lat="41.554083180" lon="2.466410940">
        <ele>46.80</ele>
        <time>2015-02-15T09:05:47Z</time>
      </trkpt>
      <trkpt lat="41.553903640" lon="2.466434990">
        <ele>45.80</ele>
        <time>2015-02-15T09:05:52Z</time>
      </trkpt>
      <trkpt lat="41.553776490" lon="2.466459640">
        <ele>44.40</ele>
        <time>2015-02-15T09:05:55Z</time>
      </trkpt>
      <trkpt lat="41.553685550" lon="2.466453600">
        <ele>43.90</ele>
        <time>2015-02-15T09:05:57Z</time>
      </trkpt>
      <trkpt lat="41.553454710" lon="2.466406240">
        <ele>42.40</ele>
        <time>2015-02-15T09:06:02Z</time>
      </trkpt>
      <trkpt lat="41.553081300" lon="2.466242710">
        <ele>41.00</ele>
        <time>2015-02-15T09:06:08Z</time>
      </trkpt>
      <trkpt lat="41.553027900" lon="2.466227540">
        <ele>40.50</ele>
        <time>2015-02-15T09:06:09Z</time>
      </trkpt>
      <trkpt lat="41.552797400" lon="2.466216480">
        <ele>39.60</ele>
        <time>2015-02-15T09:06:13Z</time>
      </trkpt>
      <trkpt lat="41.552247130" lon="2.466157550">
        <ele>36.20</ele>
        <time>2015-02-15T09:06:22Z</time>
      </trkpt>
      <trkpt lat="41.551983940" lon="2.466165520">
        <ele>33.80</ele>
        <time>2015-02-15T09:06:28Z</time>
      </trkpt>
      <trkpt lat="41.551925180" lon="2.466209020">
        <ele>33.80</ele>
        <time>2015-02-15T09:06:33Z</time>
      </trkpt>
      <trkpt lat="41.551898110" lon="2.466410520">
        <ele>32.30</ele>
        <time>2015-02-15T09:06:39Z</time>
      </trkpt>
      <trkpt lat="41.551877320" lon="2.466522250">
        <ele>31.90</ele>
        <time>2015-02-15T09:06:41Z</time>
      </trkpt>
      <trkpt lat="41.551727450" lon="2.466863060">
        <ele>30.40</ele>
        <time>2015-02-15T09:06:47Z</time>
      </trkpt>
      <trkpt lat="41.551689560" lon="2.467093890">
        <ele>29.00</ele>
        <time>2015-02-15T09:06:51Z</time>
      </trkpt>
      <trkpt lat="41.551772800" lon="2.467370160">
        <ele>29.90</ele>
        <time>2015-02-15T09:06:56Z</time>
      </trkpt>
      <trkpt lat="41.551932890" lon="2.467724720">
        <ele>29.00</ele>
        <time>2015-02-15T09:07:02Z</time>
      </trkpt>
      <trkpt lat="41.552086950" lon="2.468291000">
        <ele>28.50</ele>
        <time>2015-02-15T09:07:10Z</time>
      </trkpt>
      <trkpt lat="41.552125000" lon="2.468656620">
        <ele>28.00</ele>
        <time>2015-02-15T09:07:15Z</time>
      </trkpt>
      <trkpt lat="41.552195580" lon="2.469108490">
        <ele>26.10</ele>
        <time>2015-02-15T09:07:21Z</time>
      </trkpt>
      <trkpt lat="41.552188460" lon="2.469763030">
        <ele>25.60</ele>
        <time>2015-02-15T09:07:30Z</time>
      </trkpt>
      <trkpt lat="41.552099860" lon="2.470253960">
        <ele>25.61</ele>
        <time>2015-02-15T09:07:37Z</time>
      </trkpt>
      <trkpt lat="41.552041100" lon="2.470780840">
        <ele>27.05</ele>
        <time>2015-02-15T09:07:45Z</time>
      </trkpt>
      <trkpt lat="41.552063150" lon="2.471147050">
        <ele>27.53</ele>
        <time>2015-02-15T09:07:51Z</time>
      </trkpt>
      <trkpt lat="41.552088540" lon="2.471256770">
        <ele>27.53</ele>
        <time>2015-02-15T09:07:53Z</time>
      </trkpt>
      <trkpt lat="41.552149480" lon="2.471848610">
        <ele>28.50</ele>
        <time>2015-02-15T09:08:03Z</time>
      </trkpt>
      <trkpt lat="41.552108660" lon="2.472477420">
        <ele>28.98</ele>
        <time>2015-02-15T09:08:13Z</time>
      </trkpt>
      <trkpt lat="41.552146550" lon="2.472922590">
        <ele>29.46</ele>
        <time>2015-02-15T09:08:20Z</time>
      </trkpt>
      <trkpt lat="41.552306390" lon="2.473440670">
        <ele>31.86</ele>
        <time>2015-02-15T09:08:30Z</time>
      </trkpt>
      <trkpt lat="41.552319550" lon="2.473490540">
        <ele>32.82</ele>
        <time>2015-02-15T09:08:31Z</time>
      </trkpt>
      <trkpt lat="41.552353910" lon="2.473679050">
        <ele>32.34</ele>
        <time>2015-02-15T09:08:34Z</time>
      </trkpt>
      <trkpt lat="41.552525240" lon="2.473928500">
        <ele>32.34</ele>
        <time>2015-02-15T09:08:39Z</time>
      </trkpt>
      <trkpt lat="41.552573100" lon="2.473954310">
        <ele>32.34</ele>
        <time>2015-02-15T09:08:40Z</time>
      </trkpt>
      <trkpt lat="41.552810140" lon="2.473963870">
        <ele>33.78</ele>
        <time>2015-02-15T09:08:47Z</time>
      </trkpt>
      <trkpt lat="41.552838050" lon="2.473958920">
        <ele>34.26</ele>
        <time>2015-02-15T09:08:48Z</time>
      </trkpt>
      <trkpt lat="41.553046760" lon="2.474013830">
        <ele>37.63</ele>
        <time>2015-02-15T09:08:56Z</time>
      </trkpt>
      <trkpt lat="41.553223540" lon="2.474285230">
        <ele>38.11</ele>
        <time>2015-02-15T09:09:03Z</time>
      </trkpt>
      <trkpt lat="41.553470300" lon="2.474722430">
        <ele>34.74</ele>
        <time>2015-02-15T09:09:09Z</time>
      </trkpt>
      <trkpt lat="41.553520090" lon="2.474820000">
        <ele>34.26</ele>
        <time>2015-02-15T09:09:10Z</time>
      </trkpt>
      <trkpt lat="41.553672720" lon="2.475333050">
        <ele>32.82</ele>
        <time>2015-02-15T09:09:15Z</time>
      </trkpt>
      <trkpt lat="41.553860060" lon="2.475852400">
        <ele>32.82</ele>
        <time>2015-02-15T09:09:22Z</time>
      </trkpt>
      <trkpt lat="41.553922420" lon="2.475990950">
        <ele>34.26</ele>
        <time>2015-02-15T09:09:24Z</time>
      </trkpt>
      <trkpt lat="41.554015380" lon="2.476213070">
        <ele>34.26</ele>
        <time>2015-02-15T09:09:27Z</time>
      </trkpt>
      <trkpt lat="41.554353750" lon="2.476646920">
        <ele>34.26</ele>
        <time>2015-02-15T09:09:35Z</time>
      </trkpt>
      <trkpt lat="41.554470510" lon="2.476784130">
        <ele>34.26</ele>
        <time>2015-02-15T09:09:38Z</time>
      </trkpt>
      <trkpt lat="41.554647790" lon="2.477140950">
        <ele>32.82</ele>
        <time>2015-02-15T09:09:44Z</time>
      </trkpt>
      <trkpt lat="41.555005360" lon="2.477825750">
        <ele>32.82</ele>
        <time>2015-02-15T09:09:56Z</time>
      </trkpt>
      <trkpt lat="41.555274840" lon="2.478282730">
        <ele>32.82</ele>
        <time>2015-02-15T09:10:04Z</time>
      </trkpt>
      <trkpt lat="41.555629480" lon="2.478977920">
        <ele>32.34</ele>
        <time>2015-02-15T09:10:15Z</time>
      </trkpt>
      <trkpt lat="41.555811700" lon="2.479373300">
        <ele>31.86</ele>
        <time>2015-02-15T09:10:21Z</time>
      </trkpt>
      <trkpt lat="41.555794940" lon="2.479662470">
        <ele>30.42</ele>
        <time>2015-02-15T09:10:26Z</time>
      </trkpt>
      <trkpt lat="41.555757720" lon="2.479703130">
        <ele>29.94</ele>
        <time>2015-02-15T09:10:27Z</time>
      </trkpt>
      <trkpt lat="41.555680440" lon="2.479792560">
        <ele>29.94</ele>
        <time>2015-02-15T09:10:29Z</time>
      </trkpt>
      <trkpt lat="41.555689070" lon="2.479939160">
        <ele>28.98</ele>
        <time>2015-02-15T09:10:33Z</time>
      </trkpt>
      <trkpt lat="41.555713800" lon="2.479954170">
        <ele>28.98</ele>
        <time>2015-02-15T09:10:34Z</time>
      </trkpt>
      <trkpt lat="41.556034660" lon="2.480112580">
        <ele>30.42</ele>
        <time>2015-02-15T09:10:44Z</time>
      </trkpt>
      <trkpt lat="41.556198610" lon="2.480204280">
        <ele>31.86</ele>
        <time>2015-02-15T09:10:50Z</time>
      </trkpt>
      <trkpt lat="41.556348650" lon="2.480277540">
        <ele>32.34</ele>
        <time>2015-02-15T09:10:56Z</time>
      </trkpt>
      <trkpt lat="41.556602280" lon="2.480429000">
        <ele>34.26</ele>
        <time>2015-02-15T09:11:04Z</time>
      </trkpt>
      <trkpt lat="41.556849880" lon="2.480567390">
        <ele>35.71</ele>
        <time>2015-02-15T09:11:11Z</time>
      </trkpt>
      <trkpt lat="41.557124730" lon="2.480694790">
        <ele>37.63</ele>
        <time>2015-02-15T09:11:19Z</time>
      </trkpt>
      <trkpt lat="41.557346930" lon="2.480638970">
        <ele>38.59</ele>
        <time>2015-02-15T09:11:25Z</time>
      </trkpt>
      <trkpt lat="41.557558070" lon="2.480635450">
        <ele>40.03</ele>
        <time>2015-02-15T09:11:31Z</time>
      </trkpt>
      <trkpt lat="41.557684550" lon="2.480653890">
        <ele>40.99</ele>
        <time>2015-02-15T09:11:35Z</time>
      </trkpt>
      <trkpt lat="41.557912790" lon="2.480905180">
        <ele>42.44</ele>
        <time>2015-02-15T09:11:44Z</time>
      </trkpt>
      <trkpt lat="41.558091660" lon="2.481024110">
        <ele>43.40</ele>
        <time>2015-02-15T09:11:50Z</time>
      </trkpt>
      <trkpt lat="41.558158380" lon="2.481170880">
        <ele>44.36</ele>
        <time>2015-02-15T09:11:54Z</time>
      </trkpt>
      <trkpt lat="41.558230720" lon="2.481612270">
        <ele>44.36</ele>
        <time>2015-02-15T09:12:02Z</time>
      </trkpt>
      <trkpt lat="41.558362980" lon="2.482189280">
        <ele>44.36</ele>
        <time>2015-02-15T09:12:11Z</time>
      </trkpt>
      <trkpt lat="41.558531540" lon="2.482792450">
        <ele>43.40</ele>
        <time>2015-02-15T09:12:20Z</time>
      </trkpt>
      <trkpt lat="41.558594580" lon="2.482974080">
        <ele>42.92</ele>
        <time>2015-02-15T09:12:23Z</time>
      </trkpt>
      <trkpt lat="41.558663310" lon="2.483232160">
        <ele>42.92</ele>
        <time>2015-02-15T09:12:27Z</time>
      </trkpt>
      <trkpt lat="41.558843270" lon="2.483887460">
        <ele>40.99</ele>
        <time>2015-02-15T09:12:36Z</time>
      </trkpt>
      <trkpt lat="41.558908560" lon="2.484271520">
        <ele>38.59</ele>
        <time>2015-02-15T09:12:40Z</time>
      </trkpt>
      <trkpt lat="41.559009400" lon="2.484542330">
        <ele>35.23</ele>
        <time>2015-02-15T09:12:44Z</time>
      </trkpt>
      <trkpt lat="41.559174770" lon="2.484564130">
        <ele>35.23</ele>
        <time>2015-02-15T09:12:50Z</time>
      </trkpt>
      <trkpt lat="41.559444250" lon="2.484436720">
        <ele>36.67</ele>
        <time>2015-02-15T09:12:58Z</time>
      </trkpt>
      <trkpt lat="41.559520860" lon="2.484403780">
        <ele>37.15</ele>
        <time>2015-02-15T09:13:00Z</time>
      </trkpt>
      <trkpt lat="41.559753460" lon="2.484443340">
        <ele>40.03</ele>
        <time>2015-02-15T09:13:07Z</time>
      </trkpt>
      <trkpt lat="41.559995530" lon="2.484635880">
        <ele>43.40</ele>
        <time>2015-02-15T09:13:16Z</time>
      </trkpt>
      <trkpt lat="41.560214880" lon="2.484870070">
        <ele>45.80</ele>
        <time>2015-02-15T09:13:25Z</time>
      </trkpt>
      <trkpt lat="41.560382690" lon="2.485114990">
        <ele>46.76</ele>
        <time>2015-02-15T09:13:32Z</time>
      </trkpt>
      <trkpt lat="41.560542280" lon="2.485418580">
        <ele>47.72</ele>
        <time>2015-02-15T09:13:40Z</time>
      </trkpt>
      <trkpt lat="41.560661890" lon="2.485759810">
        <ele>48.20</ele>
        <time>2015-02-15T09:13:48Z</time>
      </trkpt>
      <trkpt lat="41.560795920" lon="2.486136240">
        <ele>49.65</ele>
        <time>2015-02-15T09:13:57Z</time>
      </trkpt>
      <trkpt lat="41.560909570" lon="2.486362880">
        <ele>51.09</ele>
        <time>2015-02-15T09:14:03Z</time>
      </trkpt>
      <trkpt lat="41.561110740" lon="2.486629010">
        <ele>52.53</ele>
        <time>2015-02-15T09:14:12Z</time>
      </trkpt>
      <trkpt lat="41.561277460" lon="2.486869570">
        <ele>54.45</ele>
        <time>2015-02-15T09:14:20Z</time>
      </trkpt>
      <trkpt lat="41.561419110" lon="2.487080710">
        <ele>55.89</ele>
        <time>2015-02-15T09:14:27Z</time>
      </trkpt>
      <trkpt lat="41.561538470" lon="2.487283220">
        <ele>57.34</ele>
        <time>2015-02-15T09:14:33Z</time>
      </trkpt>
      <trkpt lat="41.561712230" lon="2.487559070">
        <ele>57.34</ele>
        <time>2015-02-15T09:14:41Z</time>
      </trkpt>
      <trkpt lat="41.561877850" lon="2.487810440">
        <ele>57.34</ele>
        <time>2015-02-15T09:14:48Z</time>
      </trkpt>
      <trkpt lat="41.561903170" lon="2.487837090">
        <ele>57.34</ele>
        <time>2015-02-15T09:14:49Z</time>
      </trkpt>
      <trkpt lat="41.562071640" lon="2.488106990">
        <ele>58.30</ele>
        <time>2015-02-15T09:14:57Z</time>
      </trkpt>
      <trkpt lat="41.562244390" lon="2.488331460">
        <ele>58.30</ele>
        <time>2015-02-15T09:15:03Z</time>
      </trkpt>
      <trkpt lat="41.562484030" lon="2.488642850">
        <ele>58.30</ele>
        <time>2015-02-15T09:15:10Z</time>
      </trkpt>
      <trkpt lat="41.562552600" lon="2.488719710">
        <ele>56.86</ele>
        <time>2015-02-15T09:15:12Z</time>
      </trkpt>
      <trkpt lat="41.562665580" lon="2.488850470">
        <ele>55.41</ele>
        <time>2015-02-15T09:15:15Z</time>
      </trkpt>
      <trkpt lat="41.562888210" lon="2.489181050">
        <ele>53.97</ele>
        <time>2015-02-15T09:15:22Z</time>
      </trkpt>
      <trkpt lat="41.563063890" lon="2.489350450">
        <ele>53.97</ele>
        <time>2015-02-15T09:15:28Z</time>
      </trkpt>
      <trkpt lat="41.563127170" lon="2.489391600">
        <ele>55.41</ele>
        <time>2015-02-15T09:15:30Z</time>
      </trkpt>
      <trkpt lat="41.563404110" lon="2.489494030">
        <ele>56.37</ele>
        <time>2015-02-15T09:15:38Z</time>
      </trkpt>
      <trkpt lat="41.563702590" lon="2.489476340">
        <ele>57.34</ele>
        <time>2015-02-15T09:15:47Z</time>
      </trkpt>
      <trkpt lat="41.563959160" lon="2.489440550">
        <ele>58.78</ele>
        <time>2015-02-15T09:15:55Z</time>
      </trkpt>
      <trkpt lat="41.564162340" lon="2.489450530">
        <ele>60.22</ele>
        <time>2015-02-15T09:16:02Z</time>
      </trkpt>
      <trkpt lat="41.564389660" lon="2.489647920">
        <ele>62.62</ele>
        <time>2015-02-15T09:16:11Z</time>
      </trkpt>
      <trkpt lat="41.564597530" lon="2.489847410">
        <ele>63.10</ele>
        <time>2015-02-15T09:16:19Z</time>
      </trkpt>
      <trkpt lat="41.564872790" lon="2.490078250">
        <ele>63.58</ele>
        <time>2015-02-15T09:16:28Z</time>
      </trkpt>
      <trkpt lat="41.565067420" lon="2.490262400">
        <ele>62.14</ele>
        <time>2015-02-15T09:16:34Z</time>
      </trkpt>
      <trkpt lat="41.565261540" lon="2.490355860">
        <ele>61.18</ele>
        <time>2015-02-15T09:16:40Z</time>
      </trkpt>
      <trkpt lat="41.565413670" lon="2.490217640">
        <ele>61.18</ele>
        <time>2015-02-15T09:16:46Z</time>
      </trkpt>
      <trkpt lat="41.565611910" lon="2.489931980">
        <ele>63.58</ele>
        <time>2015-02-15T09:16:55Z</time>
      </trkpt>
      <trkpt lat="41.565714920" lon="2.489786390">
        <ele>64.55</ele>
        <time>2015-02-15T09:17:01Z</time>
      </trkpt>
      <trkpt lat="41.565878700" lon="2.489860150">
        <ele>64.55</ele>
        <time>2015-02-15T09:17:06Z</time>
      </trkpt>
      <trkpt lat="41.565928410" lon="2.489892250">
        <ele>63.10</ele>
        <time>2015-02-15T09:17:07Z</time>
      </trkpt>
      <trkpt lat="41.565970820" lon="2.490041450">
        <ele>63.10</ele>
        <time>2015-02-15T09:17:11Z</time>
      </trkpt>
      <trkpt lat="41.565951040" lon="2.490072550">
        <ele>63.10</ele>
        <time>2015-02-15T09:17:12Z</time>
      </trkpt>
      <trkpt lat="41.565834860" lon="2.490241440">
        <ele>63.10</ele>
        <time>2015-02-15T09:17:16Z</time>
      </trkpt>
      <trkpt lat="41.565512920" lon="2.490738320">
        <ele>60.70</ele>
        <time>2015-02-15T09:17:24Z</time>
      </trkpt>
      <trkpt lat="41.565158190" lon="2.491254060">
        <ele>58.30</ele>
        <time>2015-02-15T09:17:31Z</time>
      </trkpt>
      <trkpt lat="41.564708000" lon="2.491897790">
        <ele>55.41</ele>
        <time>2015-02-15T09:17:39Z</time>
      </trkpt>
      <trkpt lat="41.564250680" lon="2.492570020">
        <ele>52.53</ele>
        <time>2015-02-15T09:17:47Z</time>
      </trkpt>
      <trkpt lat="41.563828660" lon="2.493186760">
        <ele>49.16</ele>
        <time>2015-02-15T09:17:54Z</time>
      </trkpt>
      <trkpt lat="41.563651380" lon="2.493455730">
        <ele>47.72</ele>
        <time>2015-02-15T09:17:58Z</time>
      </trkpt>
      <trkpt lat="41.563584320" lon="2.493570900">
        <ele>47.24</ele>
        <time>2015-02-15T09:18:00Z</time>
      </trkpt>
      <trkpt lat="41.563291630" lon="2.494033250">
        <ele>45.32</ele>
        <time>2015-02-15T09:18:08Z</time>
      </trkpt>
      <trkpt lat="41.562998180" lon="2.494503890">
        <ele>43.40</ele>
        <time>2015-02-15T09:18:16Z</time>
      </trkpt>
      <trkpt lat="41.562743790" lon="2.494908230">
        <ele>41.47</ele>
        <time>2015-02-15T09:18:23Z</time>
      </trkpt>
      <trkpt lat="41.562674380" lon="2.495013260">
        <ele>40.51</ele>
        <time>2015-02-15T09:18:25Z</time>
      </trkpt>
      <trkpt lat="41.562599200" lon="2.495114760">
        <ele>40.03</ele>
        <time>2015-02-15T09:18:27Z</time>
      </trkpt>
      <trkpt lat="41.562479920" lon="2.495302940">
        <ele>40.03</ele>
        <time>2015-02-15T09:18:30Z</time>
      </trkpt>
      <trkpt lat="41.562335420" lon="2.495520620">
        <ele>37.15</ele>
        <time>2015-02-15T09:18:33Z</time>
      </trkpt>
      <trkpt lat="41.561856730" lon="2.496136270">
        <ele>35.23</ele>
        <time>2015-02-15T09:18:41Z</time>
      </trkpt>
      <trkpt lat="41.561460430" lon="2.496620410">
        <ele>32.34</ele>
        <time>2015-02-15T09:18:47Z</time>
      </trkpt>
      <trkpt lat="41.560971270" lon="2.497140840">
        <ele>30.42</ele>
        <time>2015-02-15T09:18:54Z</time>
      </trkpt>
      <trkpt lat="41.560547140" lon="2.497410400">
        <ele>27.05</ele>
        <time>2015-02-15T09:18:59Z</time>
      </trkpt>
      <trkpt lat="41.560024360" lon="2.497721790">
        <ele>25.13</ele>
        <time>2015-02-15T09:19:05Z</time>
      </trkpt>
      <trkpt lat="41.559473250" lon="2.498101990">
        <ele>21.29</ele>
        <time>2015-02-15T09:19:12Z</time>
      </trkpt>
      <trkpt lat="41.559327240" lon="2.498155800">
        <ele>20.81</ele>
        <time>2015-02-15T09:19:14Z</time>
      </trkpt>
      <trkpt lat="41.558724660" lon="2.498648740">
        <ele>17.44</ele>
        <time>2015-02-15T09:19:23Z</time>
      </trkpt>
      <trkpt lat="41.558323590" lon="2.498981840">
        <ele>14.56</ele>
        <time>2015-02-15T09:19:29Z</time>
      </trkpt>
      <trkpt lat="41.558229540" lon="2.499041350">
        <ele>14.08</ele>
        <time>2015-02-15T09:19:31Z</time>
      </trkpt>
      <trkpt lat="41.558171880" lon="2.499098100">
        <ele>13.60</ele>
        <time>2015-02-15T09:19:33Z</time>
      </trkpt>
      <trkpt lat="41.557911030" lon="2.499415850">
        <ele>11.67</ele>
        <time>2015-02-15T09:19:40Z</time>
      </trkpt>
      <trkpt lat="41.557602910" lon="2.499810640">
        <ele>10.23</ele>
        <time>2015-02-15T09:19:46Z</time>
      </trkpt>
      <trkpt lat="41.557246680" lon="2.500258320">
        <ele>7.83</ele>
        <time>2015-02-15T09:19:52Z</time>
      </trkpt>
      <trkpt lat="41.557018020" lon="2.500487060">
        <ele>5.42</ele>
        <time>2015-02-15T09:19:56Z</time>
      </trkpt>
      <trkpt lat="41.556860860" lon="2.500650510">
        <ele>3.02</ele>
        <time>2015-02-15T09:20:01Z</time>
      </trkpt>
      <trkpt lat="41.556759360" lon="2.500756880">
        <ele>2.54</ele>
        <time>2015-02-15T09:20:05Z</time>
      </trkpt>
      <trkpt lat="41.556654250" lon="2.500827200">
        <ele>1.10</ele>
        <time>2015-02-15T09:20:08Z</time>
      </trkpt>
      <trkpt lat="41.556711830" lon="2.501100700">
        <ele>1.58</ele>
        <time>2015-02-15T09:20:16Z</time>
      </trkpt>
      <trkpt lat="41.556731610" lon="2.501359950">
        <ele>1.10</ele>
        <time>2015-02-15T09:20:22Z</time>
      </trkpt>
      <trkpt lat="41.556853070" lon="2.501599840">
        <ele>1.10</ele>
        <time>2015-02-15T09:20:28Z</time>
      </trkpt>
      <trkpt lat="41.557079130" lon="2.502013410">
        <ele>0.62</ele>
        <time>2015-02-15T09:20:36Z</time>
      </trkpt>
      <trkpt lat="41.557138390" lon="2.502122540">
        <ele>0.62</ele>
        <time>2015-02-15T09:20:38Z</time>
      </trkpt>
      <trkpt lat="41.557192450" lon="2.502463510">
        <ele>0.14</ele>
        <time>2015-02-15T09:20:43Z</time>
      </trkpt>
      <trkpt lat="41.557234610" lon="2.502597290">
        <ele>0.14</ele>
        <time>2015-02-15T09:20:45Z</time>
      </trkpt>
      <trkpt lat="41.557526970" lon="2.503175560">
        <ele>-0.34</ele>
        <time>2015-02-15T09:20:55Z</time>
      </trkpt>
      <trkpt lat="41.557737190" lon="2.503539160">
        <ele>-0.34</ele>
        <time>2015-02-15T09:21:02Z</time>
      </trkpt>
      <trkpt lat="41.557927630" lon="2.503929010">
        <ele>-0.34</ele>
        <time>2015-02-15T09:21:09Z</time>
      </trkpt>
      <trkpt lat="41.558073390" lon="2.504116760">
        <ele>-0.34</ele>
        <time>2015-02-15T09:21:13Z</time>
      </trkpt>
      <trkpt lat="41.558286120" lon="2.504328820">
        <ele>-0.34</ele>
        <time>2015-02-15T09:21:18Z</time>
      </trkpt>
      <trkpt lat="41.558549820" lon="2.504789660">
        <ele>-0.34</ele>
        <time>2015-02-15T09:21:26Z</time>
      </trkpt>
      <trkpt lat="41.558673280" lon="2.505036260">
        <ele>-0.34</ele>
        <time>2015-02-15T09:21:30Z</time>
      </trkpt>
      <trkpt lat="41.558856430" lon="2.505364070">
        <ele>1.10</ele>
        <time>2015-02-15T09:21:36Z</time>
      </trkpt>
      <trkpt lat="41.558959270" lon="2.505506820">
        <ele>1.10</ele>
        <time>2015-02-15T09:21:39Z</time>
      </trkpt>
      <trkpt lat="41.559201510" lon="2.505980060">
        <ele>1.10</ele>
        <time>2015-02-15T09:21:47Z</time>
      </trkpt>
      <trkpt lat="41.559427820" lon="2.506427150">
        <ele>1.10</ele>
        <time>2015-02-15T09:21:54Z</time>
      </trkpt>
      <trkpt lat="41.559568470" lon="2.506697380">
        <ele>1.10</ele>
        <time>2015-02-15T09:21:58Z</time>
      </trkpt>
      <trkpt lat="41.559794280" lon="2.507135080">
        <ele>1.10</ele>
        <time>2015-02-15T09:22:05Z</time>
      </trkpt>
      <trkpt lat="41.559862260" lon="2.507261230">
        <ele>1.10</ele>
        <time>2015-02-15T09:22:07Z</time>
      </trkpt>
      <trkpt lat="41.559929650" lon="2.507462060">
        <ele>1.10</ele>
        <time>2015-02-15T09:22:10Z</time>
      </trkpt>
      <trkpt lat="41.560079600" lon="2.507629450">
        <ele>1.10</ele>
        <time>2015-02-15T09:22:14Z</time>
      </trkpt>
      <trkpt lat="41.560277080" lon="2.507937650">
        <ele>3.50</ele>
        <time>2015-02-15T09:22:20Z</time>
      </trkpt>
      <trkpt lat="41.560542870" lon="2.508410890">
        <ele>3.50</ele>
        <time>2015-02-15T09:22:28Z</time>
      </trkpt>
      <trkpt lat="41.560770770" lon="2.508878600">
        <ele>4.46</ele>
        <time>2015-02-15T09:22:36Z</time>
      </trkpt>
      <trkpt lat="41.560909240" lon="2.509151600">
        <ele>3.02</ele>
        <time>2015-02-15T09:22:40Z</time>
      </trkpt>
      <trkpt lat="41.561226830" lon="2.509831120">
        <ele>2.54</ele>
        <time>2015-02-15T09:22:50Z</time>
      </trkpt>
      <trkpt lat="41.561271090" lon="2.510130020">
        <ele>2.54</ele>
        <time>2015-02-15T09:22:54Z</time>
      </trkpt>
      <trkpt lat="41.561193220" lon="2.510625060">
        <ele>2.54</ele>
        <time>2015-02-15T09:23:00Z</time>
      </trkpt>
      <trkpt lat="41.561230270" lon="2.510961760">
        <ele>2.54</ele>
        <time>2015-02-15T09:23:04Z</time>
      </trkpt>
      <trkpt lat="41.561513490" lon="2.511784440">
        <ele>2.06</ele>
        <time>2015-02-15T09:23:15Z</time>
      </trkpt>
      <trkpt lat="41.561702750" lon="2.512280820">
        <ele>1.58</ele>
        <time>2015-02-15T09:23:24Z</time>
      </trkpt>
      <trkpt lat="41.561821360" lon="2.512642830">
        <ele>1.58</ele>
        <time>2015-02-15T09:23:32Z</time>
      </trkpt>
      <trkpt lat="41.561925800" lon="2.512927820">
        <ele>1.58</ele>
        <time>2015-02-15T09:23:40Z</time>
      </trkpt>
      <trkpt lat="41.562022860" lon="2.513196880">
        <ele>1.58</ele>
        <time>2015-02-15T09:23:48Z</time>
      </trkpt>
      <trkpt lat="41.562087820" lon="2.513302820">
        <ele>1.58</ele>
        <time>2015-02-15T09:23:52Z</time>
      </trkpt>
      <trkpt lat="41.562152440" lon="2.513491500">
        <ele>1.58</ele>
        <time>2015-02-15T09:23:59Z</time>
      </trkpt>
      <trkpt lat="41.562222930" lon="2.513655120">
        <ele>1.58</ele>
        <time>2015-02-15T09:24:05Z</time>
      </trkpt>
      <trkpt lat="41.562303480" lon="2.513851420">
        <ele>3.02</ele>
        <time>2015-02-15T09:24:12Z</time>
      </trkpt>
      <trkpt lat="41.562356790" lon="2.513959710">
        <ele>3.02</ele>
        <time>2015-02-15T09:24:16Z</time>
      </trkpt>
      <trkpt lat="41.562385880" lon="2.514145040">
        <ele>3.02</ele>
        <time>2015-02-15T09:24:22Z</time>
      </trkpt>
      <trkpt lat="41.562527870" lon="2.514505210">
        <ele>3.50</ele>
        <time>2015-02-15T09:24:31Z</time>
      </trkpt>
      <trkpt lat="41.562788380" lon="2.515066290">
        <ele>3.50</ele>
        <time>2015-02-15T09:24:41Z</time>
      </trkpt>
      <trkpt lat="41.563040340" lon="2.515575740">
        <ele>3.50</ele>
        <time>2015-02-15T09:24:50Z</time>
      </trkpt>
      <trkpt lat="41.563157270" lon="2.515815970">
        <ele>3.50</ele>
        <time>2015-02-15T09:24:54Z</time>
      </trkpt>
      <trkpt lat="41.563416690" lon="2.516359790">
        <ele>3.50</ele>
        <time>2015-02-15T09:25:03Z</time>
      </trkpt>
      <trkpt lat="41.563751790" lon="2.517048860">
        <ele>3.50</ele>
        <time>2015-02-15T09:25:14Z</time>
      </trkpt>
      <trkpt lat="41.564005510" lon="2.517588320">
        <ele>3.50</ele>
        <time>2015-02-15T09:25:23Z</time>
      </trkpt>
      <trkpt lat="41.564305500" lon="2.518226190">
        <ele>3.50</ele>
        <time>2015-02-15T09:25:33Z</time>
      </trkpt>
      <trkpt lat="41.564624520" lon="2.518892040">
        <ele>3.50</ele>
        <time>2015-02-15T09:25:44Z</time>
      </trkpt>
      <trkpt lat="41.564959790" lon="2.519573830">
        <ele>3.50</ele>
        <time>2015-02-15T09:25:55Z</time>
      </trkpt>
      <trkpt lat="41.565268920" lon="2.520182940">
        <ele>3.50</ele>
        <time>2015-02-15T09:26:05Z</time>
      </trkpt>
      <trkpt lat="41.565640740" lon="2.520876960">
        <ele>3.50</ele>
        <time>2015-02-15T09:26:16Z</time>
      </trkpt>
      <trkpt lat="41.565902170" lon="2.521368810">
        <ele>3.50</ele>
        <time>2015-02-15T09:26:24Z</time>
      </trkpt>
      <trkpt lat="41.566139550" lon="2.521883710">
        <ele>3.50</ele>
        <time>2015-02-15T09:26:32Z</time>
      </trkpt>
      <trkpt lat="41.566373820" lon="2.522501290">
        <ele>3.50</ele>
        <time>2015-02-15T09:26:41Z</time>
      </trkpt>
      <trkpt lat="41.566613120" lon="2.523132450">
        <ele>3.50</ele>
        <time>2015-02-15T09:26:50Z</time>
      </trkpt>
      <trkpt lat="41.566865000" lon="2.523821690">
        <ele>3.50</ele>
        <time>2015-02-15T09:27:00Z</time>
      </trkpt>
      <trkpt lat="41.567100280" lon="2.524408090">
        <ele>3.50</ele>
        <time>2015-02-15T09:27:09Z</time>
      </trkpt>
      <trkpt lat="41.567238410" lon="2.524803300">
        <ele>3.50</ele>
        <time>2015-02-15T09:27:15Z</time>
      </trkpt>
      <trkpt lat="41.567354500" lon="2.525053580">
        <ele>3.50</ele>
        <time>2015-02-15T09:27:19Z</time>
      </trkpt>
      <trkpt lat="41.567585170" lon="2.525707290">
        <ele>3.50</ele>
        <time>2015-02-15T09:27:29Z</time>
      </trkpt>
      <trkpt lat="41.567880300" lon="2.526459390">
        <ele>3.50</ele>
        <time>2015-02-15T09:27:40Z</time>
      </trkpt>
      <trkpt lat="41.568034690" lon="2.526836160">
        <ele>3.50</ele>
        <time>2015-02-15T09:27:46Z</time>
      </trkpt>
      <trkpt lat="41.568153630" lon="2.527050320">
        <ele>3.50</ele>
        <time>2015-02-15T09:27:51Z</time>
      </trkpt>
      <trkpt lat="41.568250360" lon="2.527173030">
        <ele>3.50</ele>
        <time>2015-02-15T09:27:54Z</time>
      </trkpt>
      <trkpt lat="41.568433250" lon="2.527501350">
        <ele>4.46</ele>
        <time>2015-02-15T09:28:01Z</time>
      </trkpt>
      <trkpt lat="41.568594610" lon="2.527915580">
        <ele>4.46</ele>
        <time>2015-02-15T09:28:08Z</time>
      </trkpt>
      <trkpt lat="41.568733660" lon="2.528314650">
        <ele>4.46</ele>
        <time>2015-02-15T09:28:15Z</time>
      </trkpt>
      <trkpt lat="41.568769280" lon="2.528432080">
        <ele>3.50</ele>
        <time>2015-02-15T09:28:20Z</time>
      </trkpt>
      <trkpt lat="41.568770710" lon="2.528441880">
        <ele>3.50</ele>
        <time>2015-02-15T09:28:21Z</time>
      </trkpt>
      <trkpt lat="41.568767520" lon="2.528580180">
        <ele>3.02</ele>
        <time>2015-02-15T09:28:27Z</time>
      </trkpt>
      <trkpt lat="41.568831230" lon="2.528766850">
        <ele>2.06</ele>
        <time>2015-02-15T09:28:34Z</time>
      </trkpt>
      <trkpt lat="41.568843380" lon="2.528758630">
        <ele>2.06</ele>
        <time>2015-02-15T09:28:40Z</time>
      </trkpt>
      <trkpt lat="41.568863250" lon="2.528746060">
        <ele>2.06</ele>
        <time>2015-02-15T09:28:46Z</time>
      </trkpt>
      <trkpt lat="41.568878330" lon="2.528766350">
        <ele>2.06</ele>
        <time>2015-02-15T09:28:54Z</time>
      </trkpt>
      <trkpt lat="41.568891330" lon="2.528784280">
        <ele>2.06</ele>
        <time>2015-02-15T09:28:56Z</time>
      </trkpt>
      <trkpt lat="41.568925860" lon="2.528897520">
        <ele>2.06</ele>
        <time>2015-02-15T09:29:01Z</time>
      </trkpt>
      <trkpt lat="41.569057370" lon="2.529191890">
        <ele>2.06</ele>
        <time>2015-02-15T09:29:08Z</time>
      </trkpt>
      <trkpt lat="41.569186370" lon="2.529499850">
        <ele>2.06</ele>
        <time>2015-02-15T09:29:14Z</time>
      </trkpt>
      <trkpt lat="41.569206820" lon="2.529546700">
        <ele>2.06</ele>
        <time>2015-02-15T09:29:15Z</time>
      </trkpt>
      <trkpt lat="41.569347890" lon="2.529954900">
        <ele>3.50</ele>
        <time>2015-02-15T09:29:23Z</time>
      </trkpt>
      <trkpt lat="41.569543610" lon="2.530467200">
        <ele>3.50</ele>
        <time>2015-02-15T09:29:32Z</time>
      </trkpt>
      <trkpt lat="41.569758680" lon="2.531012780">
        <ele>3.50</ele>
        <time>2015-02-15T09:29:41Z</time>
      </trkpt>
      <trkpt lat="41.569983150" lon="2.531598420">
        <ele>3.50</ele>
        <time>2015-02-15T09:29:51Z</time>
      </trkpt>
      <trkpt lat="41.570146520" lon="2.532010560">
        <ele>3.98</ele>
        <time>2015-02-15T09:29:57Z</time>
      </trkpt>
      <trkpt lat="41.570475340" lon="2.532723190">
        <ele>3.98</ele>
        <time>2015-02-15T09:30:07Z</time>
      </trkpt>
      <trkpt lat="41.570708270" lon="2.533238090">
        <ele>3.98</ele>
        <time>2015-02-15T09:30:14Z</time>
      </trkpt>
      <trkpt lat="41.570879600" lon="2.533375550">
        <ele>3.98</ele>
        <time>2015-02-15T09:30:18Z</time>
      </trkpt>
      <trkpt lat="41.571094010" lon="2.533375050">
        <ele>3.98</ele>
        <time>2015-02-15T09:30:23Z</time>
      </trkpt>
      <trkpt lat="41.571140190" lon="2.533481080">
        <ele>3.98</ele>
        <time>2015-02-15T09:30:25Z</time>
      </trkpt>
      <trkpt lat="41.571239180" lon="2.533769170">
        <ele>4.46</ele>
        <time>2015-02-15T09:30:30Z</time>
      </trkpt>
      <trkpt lat="41.571418720" lon="2.534267470">
        <ele>4.46</ele>
        <time>2015-02-15T09:30:39Z</time>
      </trkpt>
      <trkpt lat="41.571574620" lon="2.534653040">
        <ele>4.46</ele>
        <time>2015-02-15T09:30:47Z</time>
      </trkpt>
      <trkpt lat="41.571674870" lon="2.534868370">
        <ele>3.98</ele>
        <time>2015-02-15T09:30:52Z</time>
      </trkpt>
      <trkpt lat="41.571755250" lon="2.535113460">
        <ele>3.98</ele>
        <time>2015-02-15T09:30:57Z</time>
      </trkpt>
      <trkpt lat="41.571885510" lon="2.535536660">
        <ele>3.50</ele>
        <time>2015-02-15T09:31:05Z</time>
      </trkpt>
      <trkpt lat="41.571982740" lon="2.535804460">
        <ele>2.54</ele>
        <time>2015-02-15T09:31:11Z</time>
      </trkpt>
      <trkpt lat="41.571961280" lon="2.535945700">
        <ele>2.06</ele>
        <time>2015-02-15T09:31:16Z</time>
      </trkpt>
      <trkpt lat="41.571991370" lon="2.536010410">
        <ele>2.06</ele>
        <time>2015-02-15T09:31:18Z</time>
      </trkpt>
      <trkpt lat="41.572080300" lon="2.536138230">
        <ele>2.06</ele>
        <time>2015-02-15T09:31:24Z</time>
      </trkpt>
      <trkpt lat="41.572096650" lon="2.536122390">
        <ele>3.50</ele>
        <time>2015-02-15T09:31:30Z</time>
      </trkpt>
      <trkpt lat="41.572129340" lon="2.536108810">
        <ele>3.98</ele>
        <time>2015-02-15T09:31:38Z</time>
      </trkpt>
      <trkpt lat="41.572133780" lon="2.536097330">
        <ele>3.98</ele>
        <time>2015-02-15T09:31:47Z</time>
      </trkpt>
      <trkpt lat="41.572152220" lon="2.536075450">
        <ele>4.46</ele>
        <time>2015-02-15T09:31:55Z</time>
      </trkpt>
      <trkpt lat="41.572161020" lon="2.536058600">
        <ele>4.94</ele>
        <time>2015-02-15T09:31:59Z</time>
      </trkpt>
      <trkpt lat="41.572212240" lon="2.535978550">
        <ele>5.42</ele>
        <time>2015-02-15T09:32:08Z</time>
      </trkpt>
      <trkpt lat="41.572230420" lon="2.535942850">
        <ele>5.42</ele>
        <time>2015-02-15T09:32:15Z</time>
      </trkpt>
      <trkpt lat="41.572239230" lon="2.535942090">
        <ele>5.42</ele>
        <time>2015-02-15T09:32:22Z</time>
      </trkpt>
      <trkpt lat="41.572262440" lon="2.535931950">
        <ele>5.42</ele>
        <time>2015-02-15T09:32:33Z</time>
      </trkpt>
      <trkpt lat="41.572268060" lon="2.535933630">
        <ele>5.42</ele>
        <time>2015-02-15T09:32:37Z</time>
      </trkpt>
      <trkpt lat="41.572315170" lon="2.535928510">
        <ele>5.42</ele>
        <time>2015-02-15T09:32:41Z</time>
      </trkpt>
      <trkpt lat="41.572441480" lon="2.536084330">
        <ele>5.42</ele>
        <time>2015-02-15T09:32:49Z</time>
      </trkpt>
      <trkpt lat="41.572518010" lon="2.536212830">
        <ele>5.42</ele>
        <time>2015-02-15T09:32:54Z</time>
      </trkpt>
      <trkpt lat="41.572617080" lon="2.536223470">
        <ele>5.91</ele>
        <time>2015-02-15T09:32:59Z</time>
      </trkpt>
      <trkpt lat="41.572666790" lon="2.536233360">
        <ele>5.91</ele>
        <time>2015-02-15T09:33:02Z</time>
      </trkpt>
      <trkpt lat="41.572719590" lon="2.536275020">
        <ele>6.87</ele>
        <time>2015-02-15T09:33:06Z</time>
      </trkpt>
      <trkpt lat="41.572834420" lon="2.536642400">
        <ele>8.31</ele>
        <time>2015-02-15T09:33:17Z</time>
      </trkpt>
      <trkpt lat="41.572849510" lon="2.536890840">
        <ele>9.75</ele>
        <time>2015-02-15T09:33:25Z</time>
      </trkpt>
      <trkpt lat="41.572826630" lon="2.537141540">
        <ele>10.71</ele>
        <time>2015-02-15T09:33:33Z</time>
      </trkpt>
      <trkpt lat="41.572793270" lon="2.537421160">
        <ele>12.63</ele>
        <time>2015-02-15T09:33:40Z</time>
      </trkpt>
      <trkpt lat="41.572733340" lon="2.537750400">
        <ele>14.08</ele>
        <time>2015-02-15T09:33:50Z</time>
      </trkpt>
      <trkpt lat="41.572715230" lon="2.537964310">
        <ele>15.04</ele>
        <time>2015-02-15T09:33:58Z</time>
      </trkpt>
      <trkpt lat="41.572759740" lon="2.538173020">
        <ele>15.04</ele>
        <time>2015-02-15T09:34:05Z</time>
      </trkpt>
      <trkpt lat="41.572903740" lon="2.538486080">
        <ele>15.52</ele>
        <time>2015-02-15T09:34:14Z</time>
      </trkpt>
      <trkpt lat="41.573135000" lon="2.538845920">
        <ele>15.52</ele>
        <time>2015-02-15T09:34:24Z</time>
      </trkpt>
      <trkpt lat="41.573359800" lon="2.539192180">
        <ele>15.52</ele>
        <time>2015-02-15T09:34:34Z</time>
      </trkpt>
      <trkpt lat="41.573506740" lon="2.539359810">
        <ele>14.08</ele>
        <time>2015-02-15T09:34:40Z</time>
      </trkpt>
      <trkpt lat="41.573669510" lon="2.539512950">
        <ele>13.12</ele>
        <time>2015-02-15T09:34:46Z</time>
      </trkpt>
      <trkpt lat="41.573765820" lon="2.539689220">
        <ele>10.71</ele>
        <time>2015-02-15T09:34:51Z</time>
      </trkpt>
      <trkpt lat="41.573851480" lon="2.539894160">
        <ele>9.75</ele>
        <time>2015-02-15T09:34:56Z</time>
      </trkpt>
      <trkpt lat="41.573865820" lon="2.539945960">
        <ele>9.27</ele>
        <time>2015-02-15T09:34:57Z</time>
      </trkpt>
      <trkpt lat="41.573964390" lon="2.540320720">
        <ele>7.83</ele>
        <time>2015-02-15T09:35:04Z</time>
      </trkpt>
      <trkpt lat="41.574038480" lon="2.540559680">
        <ele>7.83</ele>
        <time>2015-02-15T09:35:10Z</time>
      </trkpt>
      <trkpt lat="41.574053490" lon="2.540644760">
        <ele>6.39</ele>
        <time>2015-02-15T09:35:14Z</time>
      </trkpt>
      <trkpt lat="41.574061700" lon="2.540664290">
        <ele>5.91</ele>
        <time>2015-02-15T09:35:24Z</time>
      </trkpt>
      <trkpt lat="41.574062790" lon="2.540672250">
        <ele>5.91</ele>
        <time>2015-02-15T09:35:34Z</time>
      </trkpt>
      <trkpt lat="41.574059520" lon="2.540678710">
        <ele>5.91</ele>
        <time>2015-02-15T09:35:41Z</time>
      </trkpt>
      <trkpt lat="41.574055920" lon="2.540688930">
        <ele>5.91</ele>
        <time>2015-02-15T09:35:56Z</time>
      </trkpt>
      <trkpt lat="41.574061200" lon="2.540701760">
        <ele>5.91</ele>
        <time>2015-02-15T09:36:03Z</time>
      </trkpt>
      <trkpt lat="41.574051640" lon="2.540709050">
        <ele>5.91</ele>
        <time>2015-02-15T09:36:08Z</time>
      </trkpt>
      <trkpt lat="41.574030860" lon="2.540755990">
        <ele>5.91</ele>
        <time>2015-02-15T09:36:15Z</time>
      </trkpt>
      <trkpt lat="41.574031020" lon="2.540758330">
        <ele>5.42</ele>
        <time>2015-02-15T09:36:20Z</time>
      </trkpt>
      <trkpt lat="41.574085000" lon="2.540902080">
        <ele>5.42</ele>
        <time>2015-02-15T09:36:31Z</time>
      </trkpt>
      <trkpt lat="41.574116860" lon="2.540958910">
        <ele>5.42</ele>
        <time>2015-02-15T09:36:36Z</time>
      </trkpt>
      <trkpt lat="41.574186010" lon="2.541133680">
        <ele>5.42</ele>
        <time>2015-02-15T09:36:46Z</time>
      </trkpt>
      <trkpt lat="41.574207380" lon="2.541231740">
        <ele>5.42</ele>
        <time>2015-02-15T09:36:53Z</time>
      </trkpt>
      <trkpt lat="41.574219280" lon="2.541215990">
        <ele>5.91</ele>
        <time>2015-02-15T09:37:06Z</time>
      </trkpt>
      <trkpt lat="41.574219620" lon="2.541234260">
        <ele>5.91</ele>
        <time>2015-02-15T09:37:14Z</time>
      </trkpt>
      <trkpt lat="41.574227660" lon="2.541267950">
        <ele>5.91</ele>
        <time>2015-02-15T09:37:22Z</time>
      </trkpt>
      <trkpt lat="41.574236550" lon="2.541299390">
        <ele>5.91</ele>
        <time>2015-02-15T09:37:31Z</time>
      </trkpt>
      <trkpt lat="41.574287510" lon="2.541427710">
        <ele>5.91</ele>
        <time>2015-02-15T09:37:39Z</time>
      </trkpt>
      <trkpt lat="41.574286920" lon="2.541444730">
        <ele>5.91</ele>
        <time>2015-02-15T09:37:50Z</time>
      </trkpt>
      <trkpt lat="41.574297820" lon="2.541436770">
        <ele>5.91</ele>
        <time>2015-02-15T09:38:03Z</time>
      </trkpt>
      <trkpt lat="41.574302100" lon="2.541434080">
        <ele>5.91</ele>
        <time>2015-02-15T09:38:14Z</time>
      </trkpt>
      <trkpt lat="41.574315840" lon="2.541460070">
        <ele>5.91</ele>
        <time>2015-02-15T09:38:34Z</time>
      </trkpt>
      <trkpt lat="41.574352470" lon="2.541587220">
        <ele>5.91</ele>
        <time>2015-02-15T09:38:43Z</time>
      </trkpt>
      <trkpt lat="41.574380210" lon="2.541666770">
        <ele>5.91</ele>
        <time>2015-02-15T09:38:50Z</time>
      </trkpt>
      <trkpt lat="41.574416420" lon="2.541767260">
        <ele>5.91</ele>
        <time>2015-02-15T09:38:57Z</time>
      </trkpt>
      <trkpt lat="41.574453890" lon="2.541879500">
        <ele>5.91</ele>
        <time>2015-02-15T09:39:05Z</time>
      </trkpt>
      <trkpt lat="41.574507950" lon="2.542030370">
        <ele>5.91</ele>
        <time>2015-02-15T09:39:15Z</time>
      </trkpt>
      <trkpt lat="41.574530590" lon="2.542100610">
        <ele>5.91</ele>
        <time>2015-02-15T09:39:20Z</time>
      </trkpt>
      <trkpt lat="41.574536790" lon="2.542149060">
        <ele>5.91</ele>
        <time>2015-02-15T09:39:27Z</time>
      </trkpt>
      <trkpt lat="41.574531930" lon="2.542125590">
        <ele>5.91</ele>
        <time>2015-02-15T09:39:47Z</time>
      </trkpt>
      <trkpt lat="41.574538300" lon="2.542102120">
        <ele>5.91</ele>
        <time>2015-02-15T09:39:56Z</time>
      </trkpt>
      <trkpt lat="41.574537540" lon="2.542087700">
        <ele>5.91</ele>
        <time>2015-02-15T09:40:11Z</time>
      </trkpt>
      <trkpt lat="41.574540730" lon="2.542091730">
        <ele>5.91</ele>
        <time>2015-02-15T09:40:20Z</time>
      </trkpt>
      <trkpt lat="41.574542320" lon="2.542108240">
        <ele>5.91</ele>
        <time>2015-02-15T09:40:32Z</time>
      </trkpt>
      <trkpt lat="41.574550370" lon="2.542103800">
        <ele>5.91</ele>
        <time>2015-02-15T09:40:46Z</time>
      </trkpt>
      <trkpt lat="41.574559340" lon="2.542098350">
        <ele>5.91</ele>
        <time>2015-02-15T09:40:58Z</time>
      </trkpt>
      <trkpt lat="41.574554640" lon="2.542101280">
        <ele>5.91</ele>
        <time>2015-02-15T09:41:08Z</time>
      </trkpt>
      <trkpt lat="41.574568470" lon="2.542120730">
        <ele>5.91</ele>
        <time>2015-02-15T09:41:17Z</time>
      </trkpt>
      <trkpt lat="41.574572830" lon="2.542103290">
        <ele>7.35</ele>
        <time>2015-02-15T09:41:24Z</time>
      </trkpt>
      <trkpt lat="41.574573250" lon="2.542088040">
        <ele>6.87</ele>
        <time>2015-02-15T09:41:30Z</time>
      </trkpt>
      <trkpt lat="41.574569140" lon="2.542091730">
        <ele>6.87</ele>
        <time>2015-02-15T09:41:40Z</time>
      </trkpt>
      <trkpt lat="41.574566210" lon="2.542050910">
        <ele>6.39</ele>
        <time>2015-02-15T09:41:49Z</time>
      </trkpt>
      <trkpt lat="41.574565450" lon="2.542006900">
        <ele>6.39</ele>
        <time>2015-02-15T09:41:53Z</time>
      </trkpt>
      <trkpt lat="41.574558750" lon="2.541968180">
        <ele>7.83</ele>
        <time>2015-02-15T09:41:57Z</time>
      </trkpt>
      <trkpt lat="41.574577020" lon="2.541937920">
        <ele>7.83</ele>
        <time>2015-02-15T09:42:05Z</time>
      </trkpt>
      <trkpt lat="41.574623040" lon="2.541881510">
        <ele>7.83</ele>
        <time>2015-02-15T09:42:14Z</time>
      </trkpt>
      <trkpt lat="41.574696630" lon="2.541897770">
        <ele>7.83</ele>
        <time>2015-02-15T09:42:23Z</time>
      </trkpt>
      <trkpt lat="41.574711890" lon="2.541890140">
        <ele>7.83</ele>
        <time>2015-02-15T09:42:32Z</time>
      </trkpt>
      <trkpt lat="41.574762930" lon="2.541892570">
        <ele>7.83</ele>
        <time>2015-02-15T09:42:39Z</time>
      </trkpt>
      <trkpt lat="41.574773580" lon="2.541912020">
        <ele>7.83</ele>
        <time>2015-02-15T09:42:47Z</time>
      </trkpt>
      <trkpt lat="41.574877930" lon="2.542095000">
        <ele>7.83</ele>
        <time>2015-02-15T09:42:54Z</time>
      </trkpt>
      <trkpt lat="41.575068870" lon="2.542507890">
        <ele>7.83</ele>
        <time>2015-02-15T09:43:04Z</time>
      </trkpt>
      <trkpt lat="41.575255960" lon="2.542944080">
        <ele>7.83</ele>
        <time>2015-02-15T09:43:14Z</time>
      </trkpt>
      <trkpt lat="41.575458710" lon="2.543398130">
        <ele>7.83</ele>
        <time>2015-02-15T09:43:24Z</time>
      </trkpt>
      <trkpt lat="41.575632720" lon="2.543828880">
        <ele>7.83</ele>
        <time>2015-02-15T09:43:33Z</time>
      </trkpt>
      <trkpt lat="41.575653590" lon="2.543878410">
        <ele>7.83</ele>
        <time>2015-02-15T09:43:34Z</time>
      </trkpt>
      <trkpt lat="41.575688970" lon="2.544038260">
        <ele>7.83</ele>
        <time>2015-02-15T09:43:37Z</time>
      </trkpt>
      <trkpt lat="41.575807570" lon="2.544595320">
        <ele>8.79</ele>
        <time>2015-02-15T09:43:47Z</time>
      </trkpt>
      <trkpt lat="41.575920390" lon="2.545259250">
        <ele>9.27</ele>
        <time>2015-02-15T09:43:59Z</time>
      </trkpt>
      <trkpt lat="41.575976210" lon="2.545470220">
        <ele>10.23</ele>
        <time>2015-02-15T09:44:03Z</time>
      </trkpt>
      <trkpt lat="41.576144190" lon="2.546078160">
        <ele>10.23</ele>
        <time>2015-02-15T09:44:14Z</time>
      </trkpt>
      <trkpt lat="41.576366810" lon="2.546621310">
        <ele>10.23</ele>
        <time>2015-02-15T09:44:23Z</time>
      </trkpt>
      <trkpt lat="41.576702670" lon="2.547218690">
        <ele>9.27</ele>
        <time>2015-02-15T09:44:32Z</time>
      </trkpt>
      <trkpt lat="41.577085220" lon="2.547796370">
        <ele>7.35</ele>
        <time>2015-02-15T09:44:40Z</time>
      </trkpt>
      <trkpt lat="41.577432820" lon="2.548417050">
        <ele>6.39</ele>
        <time>2015-02-15T09:44:48Z</time>
      </trkpt>
      <trkpt lat="41.577706410" lon="2.549009480">
        <ele>5.42</ele>
        <time>2015-02-15T09:44:56Z</time>
      </trkpt>
      <trkpt lat="41.577769940" lon="2.549124900">
        <ele>5.42</ele>
        <time>2015-02-15T09:44:58Z</time>
      </trkpt>
      <trkpt lat="41.577866840" lon="2.549428830">
        <ele>5.42</ele>
        <time>2015-02-15T09:45:03Z</time>
      </trkpt>
      <trkpt lat="41.577934810" lon="2.549608530">
        <ele>5.42</ele>
        <time>2015-02-15T09:45:06Z</time>
      </trkpt>
      <trkpt lat="41.578141850" lon="2.550147660">
        <ele>5.42</ele>
        <time>2015-02-15T09:45:15Z</time>
      </trkpt>
      <trkpt lat="41.578439740" lon="2.551023150">
        <ele>5.42</ele>
        <time>2015-02-15T09:45:28Z</time>
      </trkpt>
      <trkpt lat="41.578661100" lon="2.551633100">
        <ele>5.42</ele>
        <time>2015-02-15T09:45:38Z</time>
      </trkpt>
      <trkpt lat="41.578684490" lon="2.551681380">
        <ele>5.42</ele>
        <time>2015-02-15T09:45:39Z</time>
      </trkpt>
      <trkpt lat="41.578832680" lon="2.551693370">
        <ele>4.94</ele>
        <time>2015-02-15T09:45:43Z</time>
      </trkpt>
      <trkpt lat="41.579101240" lon="2.551505020">
        <ele>4.94</ele>
        <time>2015-02-15T09:45:51Z</time>
      </trkpt>
      <trkpt lat="41.579167370" lon="2.551493370">
        <ele>4.94</ele>
        <time>2015-02-15T09:45:54Z</time>
      </trkpt>
      <trkpt lat="41.579188490" lon="2.551493710">
        <ele>4.94</ele>
        <time>2015-02-15T09:46:00Z</time>
      </trkpt>
      <trkpt lat="41.579201820" lon="2.551490100">
        <ele>4.94</ele>
        <time>2015-02-15T09:46:17Z</time>
      </trkpt>
      <trkpt lat="41.579207100" lon="2.551492120">
        <ele>4.94</ele>
        <time>2015-02-15T09:46:36Z</time>
      </trkpt>
      <trkpt lat="41.579206100" lon="2.551499580">
        <ele>4.94</ele>
        <time>2015-02-15T09:46:58Z</time>
      </trkpt>
      <trkpt lat="41.579198970" lon="2.551499320">
        <ele>4.94</ele>
        <time>2015-02-15T09:47:15Z</time>
      </trkpt>
      <trkpt lat="41.579204170" lon="2.551492120">
        <ele>4.94</ele>
        <time>2015-02-15T09:47:30Z</time>
      </trkpt>
      <trkpt lat="41.579194860" lon="2.551480210">
        <ele>4.94</ele>
        <time>2015-02-15T09:47:43Z</time>
      </trkpt>
      <trkpt lat="41.579185730" lon="2.551478200">
        <ele>4.46</ele>
        <time>2015-02-15T09:47:53Z</time>
      </trkpt>
      <trkpt lat="41.579180700" lon="2.551475270">
        <ele>4.46</ele>
        <time>2015-02-15T09:48:00Z</time>
      </trkpt>
      <trkpt lat="41.579180200" lon="2.551473840">
        <ele>4.46</ele>
        <time>2015-02-15T09:48:01Z</time>
      </trkpt>
      <trkpt lat="41.579225960" lon="2.551346020">
        <ele>4.46</ele>
        <time>2015-02-15T09:48:08Z</time>
      </trkpt>
      <trkpt lat="41.579340960" lon="2.551252900">
        <ele>4.46</ele>
        <time>2015-02-15T09:48:15Z</time>
      </trkpt>
      <trkpt lat="41.579499630" lon="2.551138730">
        <ele>5.91</ele>
        <time>2015-02-15T09:48:24Z</time>
      </trkpt>
      <trkpt lat="41.579523100" lon="2.551127080">
        <ele>5.91</ele>
        <time>2015-02-15T09:48:25Z</time>
      </trkpt>
      <trkpt lat="41.579694010" lon="2.550989540">
        <ele>6.39</ele>
        <time>2015-02-15T09:48:33Z</time>
      </trkpt>
      <trkpt lat="41.579818650" lon="2.550863050">
        <ele>6.87</ele>
        <time>2015-02-15T09:48:40Z</time>
      </trkpt>
      <trkpt lat="41.579926940" lon="2.550792810">
        <ele>7.35</ele>
        <time>2015-02-15T09:48:45Z</time>
      </trkpt>
      <trkpt lat="41.580037410" lon="2.550687450">
        <ele>8.31</ele>
        <time>2015-02-15T09:48:52Z</time>
      </trkpt>
      <trkpt lat="41.580160460" lon="2.550564570">
        <ele>8.79</ele>
        <time>2015-02-15T09:48:59Z</time>
      </trkpt>
      <trkpt lat="41.580311670" lon="2.550425270">
        <ele>9.27</ele>
        <time>2015-02-15T09:49:06Z</time>
      </trkpt>
      <trkpt lat="41.580513760" lon="2.550244300">
        <ele>10.23</ele>
        <time>2015-02-15T09:49:15Z</time>
      </trkpt>
      <trkpt lat="41.580738140" lon="2.550107340">
        <ele>10.71</ele>
        <time>2015-02-15T09:49:24Z</time>
      </trkpt>
      <trkpt lat="41.580928330" lon="2.549947330">
        <ele>12.15</ele>
        <time>2015-02-15T09:49:32Z</time>
      </trkpt>
      <trkpt lat="41.581131080" lon="2.549766370">
        <ele>13.12</ele>
        <time>2015-02-15T09:49:40Z</time>
      </trkpt>
      <trkpt lat="41.581337860" lon="2.549586830">
        <ele>13.60</ele>
        <time>2015-02-15T09:49:48Z</time>
      </trkpt>
      <trkpt lat="41.581505080" lon="2.549484480">
        <ele>14.56</ele>
        <time>2015-02-15T09:49:54Z</time>
      </trkpt>
      <trkpt lat="41.581660150" lon="2.549244010">
        <ele>15.52</ele>
        <time>2015-02-15T09:50:02Z</time>
      </trkpt>
      <trkpt lat="41.581829210" lon="2.549084580">
        <ele>16.48</ele>
        <time>2015-02-15T09:50:09Z</time>
      </trkpt>
      <trkpt lat="41.582025520" lon="2.548882410">
        <ele>17.44</ele>
        <time>2015-02-15T09:50:17Z</time>
      </trkpt>
      <trkpt lat="41.582240680" lon="2.548685940">
        <ele>18.88</ele>
        <time>2015-02-15T09:50:25Z</time>
      </trkpt>
      <trkpt lat="41.582493480" lon="2.548485610">
        <ele>19.84</ele>
        <time>2015-02-15T09:50:34Z</time>
      </trkpt>
      <trkpt lat="41.582739070" lon="2.548331640">
        <ele>20.81</ele>
        <time>2015-02-15T09:50:43Z</time>
      </trkpt>
      <trkpt lat="41.582952640" lon="2.548155360">
        <ele>21.77</ele>
        <time>2015-02-15T09:50:51Z</time>
      </trkpt>
      <trkpt lat="41.583204930" lon="2.547909360">
        <ele>23.21</ele>
        <time>2015-02-15T09:51:01Z</time>
      </trkpt>
      <trkpt lat="41.583407190" lon="2.547762420">
        <ele>24.17</ele>
        <time>2015-02-15T09:51:08Z</time>
      </trkpt>
      <trkpt lat="41.583613800" lon="2.547506860">
        <ele>25.13</ele>
        <time>2015-02-15T09:51:17Z</time>
      </trkpt>
      <trkpt lat="41.583832650" lon="2.547325140">
        <ele>26.57</ele>
        <time>2015-02-15T09:51:25Z</time>
      </trkpt>
      <trkpt lat="41.584012280" lon="2.547181470">
        <ele>27.53</ele>
        <time>2015-02-15T09:51:32Z</time>
      </trkpt>
      <trkpt lat="41.584106830" lon="2.546984830">
        <ele>28.02</ele>
        <time>2015-02-15T09:51:38Z</time>
      </trkpt>
      <trkpt lat="41.584117970" lon="2.546956170">
        <ele>28.02</ele>
        <time>2015-02-15T09:51:39Z</time>
      </trkpt>
      <trkpt lat="41.584148070" lon="2.546871260">
        <ele>28.50</ele>
        <time>2015-02-15T09:51:44Z</time>
      </trkpt>
      <trkpt lat="41.584186870" lon="2.546806880">
        <ele>28.98</ele>
        <time>2015-02-15T09:51:47Z</time>
      </trkpt>
      <trkpt lat="41.584420230" lon="2.546622730">
        <ele>29.94</ele>
        <time>2015-02-15T09:51:55Z</time>
      </trkpt>
      <trkpt lat="41.584589710" lon="2.546478310">
        <ele>30.90</ele>
        <time>2015-02-15T09:52:02Z</time>
      </trkpt>
      <trkpt lat="41.584769000" lon="2.546364320">
        <ele>31.86</ele>
        <time>2015-02-15T09:52:09Z</time>
      </trkpt>
      <trkpt lat="41.584940410" lon="2.546234650">
        <ele>32.34</ele>
        <time>2015-02-15T09:52:16Z</time>
      </trkpt>
      <trkpt lat="41.585110890" lon="2.546088220">
        <ele>33.30</ele>
        <time>2015-02-15T09:52:23Z</time>
      </trkpt>
      <trkpt lat="41.585263280" lon="2.545964590">
        <ele>33.78</ele>
        <time>2015-02-15T09:52:30Z</time>
      </trkpt>
      <trkpt lat="41.585508030" lon="2.545805830">
        <ele>35.23</ele>
        <time>2015-02-15T09:52:40Z</time>
      </trkpt>
      <trkpt lat="41.585658070" lon="2.545689320">
        <ele>36.19</ele>
        <time>2015-02-15T09:52:47Z</time>
      </trkpt>
      <trkpt lat="41.585801980" lon="2.545558900">
        <ele>36.67</ele>
        <time>2015-02-15T09:52:54Z</time>
      </trkpt>
      <trkpt lat="41.585891750" lon="2.545481370">
        <ele>37.63</ele>
        <time>2015-02-15T09:52:58Z</time>
      </trkpt>
      <trkpt lat="41.585993680" lon="2.545424880">
        <ele>38.11</ele>
        <time>2015-02-15T09:53:02Z</time>
      </trkpt>
      <trkpt lat="41.586192240" lon="2.545287410">
        <ele>38.59</ele>
        <time>2015-02-15T09:53:10Z</time>
      </trkpt>
      <trkpt lat="41.586247480" lon="2.545286990">
        <ele>39.07</ele>
        <time>2015-02-15T09:53:15Z</time>
      </trkpt>
      <trkpt lat="41.586278330" lon="2.545304510">
        <ele>39.07</ele>
        <time>2015-02-15T09:53:27Z</time>
      </trkpt>
      <trkpt lat="41.586265330" lon="2.545296130">
        <ele>39.07</ele>
        <time>2015-02-15T09:53:40Z</time>
      </trkpt>
      <trkpt lat="41.586246980" lon="2.545279620">
        <ele>39.07</ele>
        <time>2015-02-15T09:53:59Z</time>
      </trkpt>
      <trkpt lat="41.586274640" lon="2.545304010">
        <ele>39.07</ele>
        <time>2015-02-15T09:54:10Z</time>
      </trkpt>
      <trkpt lat="41.586310850" lon="2.545282720">
        <ele>39.07</ele>
        <time>2015-02-15T09:54:28Z</time>
      </trkpt>
      <trkpt lat="41.586306660" lon="2.545272660">
        <ele>39.07</ele>
        <time>2015-02-15T09:54:45Z</time>
      </trkpt>
      <trkpt lat="41.586278580" lon="2.545283720">
        <ele>39.07</ele>
        <time>2015-02-15T09:55:01Z</time>
      </trkpt>
      <trkpt lat="41.586267930" lon="2.545285650">
        <ele>39.55</ele>
        <time>2015-02-15T09:55:19Z</time>
      </trkpt>
      <trkpt lat="41.586294000" lon="2.545316580">
        <ele>39.55</ele>
        <time>2015-02-15T09:55:36Z</time>
      </trkpt>
      <trkpt lat="41.586309170" lon="2.545331080">
        <ele>39.55</ele>
        <time>2015-02-15T09:55:48Z</time>
      </trkpt>
      <trkpt lat="41.586316300" lon="2.545320270">
        <ele>39.55</ele>
        <time>2015-02-15T09:55:56Z</time>
      </trkpt>
      <trkpt lat="41.586316800" lon="2.545288000">
        <ele>39.55</ele>
        <time>2015-02-15T09:56:01Z</time>
      </trkpt>
      <trkpt lat="41.586432050" lon="2.545208040">
        <ele>40.03</ele>
        <time>2015-02-15T09:56:09Z</time>
      </trkpt>
      <trkpt lat="41.586535990" lon="2.545114240">
        <ele>40.51</ele>
        <time>2015-02-15T09:56:14Z</time>
      </trkpt>
      <trkpt lat="41.586708900" lon="2.545137380">
        <ele>40.51</ele>
        <time>2015-02-15T09:56:20Z</time>
      </trkpt>
      <trkpt lat="41.586904370" lon="2.545097390">
        <ele>41.95</ele>
        <time>2015-02-15T09:56:27Z</time>
      </trkpt>
      <trkpt lat="41.587099750" lon="2.544925480">
        <ele>42.92</ele>
        <time>2015-02-15T09:56:35Z</time>
      </trkpt>
      <trkpt lat="41.587322120" lon="2.544731190">
        <ele>43.88</ele>
        <time>2015-02-15T09:56:44Z</time>
      </trkpt>
      <trkpt lat="41.587555560" lon="2.544584170">
        <ele>44.84</ele>
        <time>2015-02-15T09:56:53Z</time>
      </trkpt>
      <trkpt lat="41.587780200" lon="2.544443270">
        <ele>45.80</ele>
        <time>2015-02-15T09:57:02Z</time>
      </trkpt>
      <trkpt lat="41.587955290" lon="2.544367500">
        <ele>46.28</ele>
        <time>2015-02-15T09:57:09Z</time>
      </trkpt>
      <trkpt lat="41.588091420" lon="2.544298680">
        <ele>46.76</ele>
        <time>2015-02-15T09:57:14Z</time>
      </trkpt>
      <trkpt lat="41.588285540" lon="2.544220730">
        <ele>47.72</ele>
        <time>2015-02-15T09:57:21Z</time>
      </trkpt>
      <trkpt lat="41.588503220" lon="2.544114700">
        <ele>48.68</ele>
        <time>2015-02-15T09:57:29Z</time>
      </trkpt>
      <trkpt lat="41.588738250" lon="2.544020070">
        <ele>49.65</ele>
        <time>2015-02-15T09:57:38Z</time>
      </trkpt>
      <trkpt lat="41.588888200" lon="2.544032140">
        <ele>50.13</ele>
        <time>2015-02-15T09:57:44Z</time>
      </trkpt>
      <trkpt lat="41.588912760" lon="2.544041110">
        <ele>50.13</ele>
        <time>2015-02-15T09:57:45Z</time>
      </trkpt>
      <trkpt lat="41.589091540" lon="2.543951670">
        <ele>50.13</ele>
        <time>2015-02-15T09:57:51Z</time>
      </trkpt>
      <trkpt lat="41.589299330" lon="2.543828790">
        <ele>48.68</ele>
        <time>2015-02-15T09:57:55Z</time>
      </trkpt>
      <trkpt lat="41.589573500" lon="2.543695020">
        <ele>48.68</ele>
        <time>2015-02-15T09:58:02Z</time>
      </trkpt>
      <trkpt lat="41.589729740" lon="2.543601140">
        <ele>50.61</ele>
        <time>2015-02-15T09:58:10Z</time>
      </trkpt>
      <trkpt lat="41.590059910" lon="2.543475830">
        <ele>52.05</ele>
        <time>2015-02-15T09:58:21Z</time>
      </trkpt>
      <trkpt lat="41.590382530" lon="2.543329730">
        <ele>53.01</ele>
        <time>2015-02-15T09:58:30Z</time>
      </trkpt>
      <trkpt lat="41.590652000" lon="2.543145750">
        <ele>54.45</ele>
        <time>2015-02-15T09:58:41Z</time>
      </trkpt>
      <trkpt lat="41.590977310" lon="2.543112980">
        <ele>54.93</ele>
        <time>2015-02-15T09:58:49Z</time>
      </trkpt>
      <trkpt lat="41.591219710" lon="2.543015500">
        <ele>56.86</ele>
        <time>2015-02-15T09:58:57Z</time>
      </trkpt>
      <trkpt lat="41.591520540" lon="2.542844090">
        <ele>57.82</ele>
        <time>2015-02-15T09:59:07Z</time>
      </trkpt>
      <trkpt lat="41.591723040" lon="2.542798320">
        <ele>58.30</ele>
        <time>2015-02-15T09:59:13Z</time>
      </trkpt>
      <trkpt lat="41.591972070" lon="2.542763870">
        <ele>59.26</ele>
        <time>2015-02-15T09:59:21Z</time>
      </trkpt>
      <trkpt lat="41.592695180" lon="2.542696570">
        <ele>62.14</ele>
        <time>2015-02-15T09:59:43Z</time>
      </trkpt>
      <trkpt lat="41.592924420" lon="2.542706290">
        <ele>63.10</ele>
        <time>2015-02-15T09:59:51Z</time>
      </trkpt>
      <trkpt lat="41.593409650" lon="2.542702940">
        <ele>65.51</ele>
        <time>2015-02-15T10:00:07Z</time>
      </trkpt>
      <trkpt lat="41.593752720" lon="2.542661860">
        <ele>66.47</ele>
        <time>2015-02-15T10:00:16Z</time>
      </trkpt>
      <trkpt lat="41.594028820" lon="2.542619030">
        <ele>68.87</ele>
        <time>2015-02-15T10:00:26Z</time>
      </trkpt>
      <trkpt lat="41.594114150" lon="2.542574110">
        <ele>69.83</ele>
        <time>2015-02-15T10:00:30Z</time>
      </trkpt>
      <trkpt lat="41.594243150" lon="2.542516610">
        <ele>70.79</ele>
        <time>2015-02-15T10:00:37Z</time>
      </trkpt>
      <trkpt lat="41.594235690" lon="2.542488190">
        <ele>71.27</ele>
        <time>2015-02-15T10:00:39Z</time>
      </trkpt>
      <trkpt lat="41.594293100" lon="2.542461870">
        <ele>71.27</ele>
        <time>2015-02-15T10:00:45Z</time>
      </trkpt>
      <trkpt lat="41.594366700" lon="2.542460110">
        <ele>71.76</ele>
        <time>2015-02-15T10:00:50Z</time>
      </trkpt>
      <trkpt lat="41.594542210" lon="2.542454830">
        <ele>72.72</ele>
        <time>2015-02-15T10:00:59Z</time>
      </trkpt>
      <trkpt lat="41.594740360" lon="2.542442260">
        <ele>73.20</ele>
        <time>2015-02-15T10:01:08Z</time>
      </trkpt>
      <trkpt lat="41.594946970" lon="2.542424320">
        <ele>73.68</ele>
        <time>2015-02-15T10:01:17Z</time>
      </trkpt>
      <trkpt lat="41.595127020" lon="2.542406300">
        <ele>74.16</ele>
        <time>2015-02-15T10:01:25Z</time>
      </trkpt>
      <trkpt lat="41.595377050" lon="2.542391970">
        <ele>75.60</ele>
        <time>2015-02-15T10:01:35Z</time>
      </trkpt>
      <trkpt lat="41.595611320" lon="2.542367580">
        <ele>77.04</ele>
        <time>2015-02-15T10:01:44Z</time>
      </trkpt>
      <trkpt lat="41.595903940" lon="2.542337990">
        <ele>77.52</ele>
        <time>2015-02-15T10:01:54Z</time>
      </trkpt>
      <trkpt lat="41.596203760" lon="2.542307560">
        <ele>78.97</ele>
        <time>2015-02-15T10:02:04Z</time>
      </trkpt>
      <trkpt lat="41.596492680" lon="2.542262220">
        <ele>79.93</ele>
        <time>2015-02-15T10:02:13Z</time>
      </trkpt>
      <trkpt lat="41.596788980" lon="2.542212180">
        <ele>80.89</ele>
        <time>2015-02-15T10:02:22Z</time>
      </trkpt>
      <trkpt lat="41.597082520" lon="2.542185690">
        <ele>81.85</ele>
        <time>2015-02-15T10:02:31Z</time>
      </trkpt>
      <trkpt lat="41.597383340" lon="2.542147220">
        <ele>83.29</ele>
        <time>2015-02-15T10:02:41Z</time>
      </trkpt>
      <trkpt lat="41.597625160" lon="2.542094410">
        <ele>84.25</ele>
        <time>2015-02-15T10:02:49Z</time>
      </trkpt>
      <trkpt lat="41.597976280" lon="2.542046130">
        <ele>85.21</ele>
        <time>2015-02-15T10:02:59Z</time>
      </trkpt>
      <trkpt lat="41.598334270" lon="2.541991060">
        <ele>86.18</ele>
        <time>2015-02-15T10:03:09Z</time>
      </trkpt>
      <trkpt lat="41.598634340" lon="2.541952500">
        <ele>87.14</ele>
        <time>2015-02-15T10:03:18Z</time>
      </trkpt>
      <trkpt lat="41.598874990" lon="2.541927270">
        <ele>87.62</ele>
        <time>2015-02-15T10:03:26Z</time>
      </trkpt>
      <trkpt lat="41.599114880" lon="2.541885200">
        <ele>88.58</ele>
        <time>2015-02-15T10:03:34Z</time>
      </trkpt>
      <trkpt lat="41.599293080" lon="2.541858460">
        <ele>89.06</ele>
        <time>2015-02-15T10:03:40Z</time>
      </trkpt>
      <trkpt lat="41.599582170" lon="2.541799530">
        <ele>90.50</ele>
        <time>2015-02-15T10:03:49Z</time>
      </trkpt>
      <trkpt lat="41.599872850" lon="2.541720490">
        <ele>91.46</ele>
        <time>2015-02-15T10:03:58Z</time>
      </trkpt>
      <trkpt lat="41.600180630" lon="2.541630640">
        <ele>93.87</ele>
        <time>2015-02-15T10:04:09Z</time>
      </trkpt>
      <trkpt lat="41.600384570" lon="2.541543550">
        <ele>95.79</ele>
        <time>2015-02-15T10:04:17Z</time>
      </trkpt>
      <trkpt lat="41.600615320" lon="2.541453360">
        <ele>97.71</ele>
        <time>2015-02-15T10:04:25Z</time>
      </trkpt>
      <trkpt lat="41.600939780" lon="2.541370380">
        <ele>98.19</ele>
        <time>2015-02-15T10:04:36Z</time>
      </trkpt>
      <trkpt lat="41.601232310" lon="2.541317660">
        <ele>98.19</ele>
        <time>2015-02-15T10:04:45Z</time>
      </trkpt>
      <trkpt lat="41.601439260" lon="2.541289500">
        <ele>98.19</ele>
        <time>2015-02-15T10:04:52Z</time>
      </trkpt>
      <trkpt lat="41.601473960" lon="2.541218330">
        <ele>98.19</ele>
        <time>2015-02-15T10:04:56Z</time>
      </trkpt>
      <trkpt lat="41.601482180" lon="2.541170470">
        <ele>98.19</ele>
        <time>2015-02-15T10:04:58Z</time>
      </trkpt>
      <trkpt lat="41.601611340" lon="2.541151860">
        <ele>99.15</ele>
        <time>2015-02-15T10:05:04Z</time>
      </trkpt>
      <trkpt lat="41.601678060" lon="2.541188160">
        <ele>99.63</ele>
        <time>2015-02-15T10:05:07Z</time>
      </trkpt>
      <trkpt lat="41.601812590" lon="2.541190090">
        <ele>100.11</ele>
        <time>2015-02-15T10:05:12Z</time>
      </trkpt>
      <trkpt lat="41.602024740" lon="2.541191760">
        <ele>100.11</ele>
        <time>2015-02-15T10:05:19Z</time>
      </trkpt>
      <trkpt lat="41.602133620" lon="2.541171560">
        <ele>101.08</ele>
        <time>2015-02-15T10:05:23Z</time>
      </trkpt>
      <trkpt lat="41.602232360" lon="2.541135940">
        <ele>101.08</ele>
        <time>2015-02-15T10:05:28Z</time>
      </trkpt>
      <trkpt lat="41.602495970" lon="2.541072240">
        <ele>102.52</ele>
        <time>2015-02-15T10:05:38Z</time>
      </trkpt>
      <trkpt lat="41.602751110" lon="2.541014900">
        <ele>103.48</ele>
        <time>2015-02-15T10:05:47Z</time>
      </trkpt>
      <trkpt lat="41.603027130" lon="2.540879540">
        <ele>105.40</ele>
        <time>2015-02-15T10:05:56Z</time>
      </trkpt>
      <trkpt lat="41.603313120" lon="2.540718690">
        <ele>106.36</ele>
        <time>2015-02-15T10:06:06Z</time>
      </trkpt>
      <trkpt lat="41.603560050" lon="2.540559260">
        <ele>107.32</ele>
        <time>2015-02-15T10:06:15Z</time>
      </trkpt>
      <trkpt lat="41.603780490" lon="2.540391960">
        <ele>108.77</ele>
        <time>2015-02-15T10:06:23Z</time>
      </trkpt>
      <trkpt lat="41.604027170" lon="2.540197670">
        <ele>109.25</ele>
        <time>2015-02-15T10:06:32Z</time>
      </trkpt>
      <trkpt lat="41.604236550" lon="2.539986530">
        <ele>110.21</ele>
        <time>2015-02-15T10:06:41Z</time>
      </trkpt>
      <trkpt lat="41.604358760" lon="2.539856190">
        <ele>110.69</ele>
        <time>2015-02-15T10:06:48Z</time>
      </trkpt>
      <trkpt lat="41.604492120" lon="2.539891480">
        <ele>110.69</ele>
        <time>2015-02-15T10:06:54Z</time>
      </trkpt>
      <trkpt lat="41.604521960" lon="2.539912100">
        <ele>110.69</ele>
        <time>2015-02-15T10:06:55Z</time>
      </trkpt>
      <trkpt lat="41.604710470" lon="2.539989710">
        <ele>110.69</ele>
        <time>2015-02-15T10:07:01Z</time>
      </trkpt>
      <trkpt lat="41.604904340" lon="2.540024920">
        <ele>111.17</ele>
        <time>2015-02-15T10:07:09Z</time>
      </trkpt>
      <trkpt lat="41.605177170" lon="2.540059370">
        <ele>111.65</ele>
        <time>2015-02-15T10:07:18Z</time>
      </trkpt>
      <trkpt lat="41.605493760" lon="2.540130280">
        <ele>112.61</ele>
        <time>2015-02-15T10:07:28Z</time>
      </trkpt>
      <trkpt lat="41.605748570" lon="2.540214100">
        <ele>113.09</ele>
        <time>2015-02-15T10:07:37Z</time>
      </trkpt>
      <trkpt lat="41.605969930" lon="2.540303450">
        <ele>114.53</ele>
        <time>2015-02-15T10:07:46Z</time>
      </trkpt>
      <trkpt lat="41.605987370" lon="2.540317280">
        <ele>114.53</ele>
        <time>2015-02-15T10:07:47Z</time>
      </trkpt>
      <trkpt lat="41.605960960" lon="2.540393890">
        <ele>115.01</ele>
        <time>2015-02-15T10:07:52Z</time>
      </trkpt>
      <trkpt lat="41.605909250" lon="2.540405460">
        <ele>115.50</ele>
        <time>2015-02-15T10:07:55Z</time>
      </trkpt>
      <trkpt lat="41.605912520" lon="2.540525150">
        <ele>115.50</ele>
        <time>2015-02-15T10:08:00Z</time>
      </trkpt>
      <trkpt lat="41.605967750" lon="2.540557090">
        <ele>115.98</ele>
        <time>2015-02-15T10:08:02Z</time>
      </trkpt>
      <trkpt lat="41.606143100" lon="2.540610810">
        <ele>116.46</ele>
        <time>2015-02-15T10:08:08Z</time>
      </trkpt>
      <trkpt lat="41.606214600" lon="2.540556750">
        <ele>116.94</ele>
        <time>2015-02-15T10:08:11Z</time>
      </trkpt>
      <trkpt lat="41.606262710" lon="2.540555160">
        <ele>116.94</ele>
        <time>2015-02-15T10:08:17Z</time>
      </trkpt>
      <trkpt lat="41.606263300" lon="2.540568820">
        <ele>116.94</ele>
        <time>2015-02-15T10:08:33Z</time>
      </trkpt>
      <trkpt lat="41.606258600" lon="2.540587010">
        <ele>116.94</ele>
        <time>2015-02-15T10:08:53Z</time>
      </trkpt>
      <trkpt lat="41.606263880" lon="2.540560770">
        <ele>116.94</ele>
        <time>2015-02-15T10:09:14Z</time>
      </trkpt>
      <trkpt lat="41.606258520" lon="2.540582900">
        <ele>116.94</ele>
        <time>2015-02-15T10:09:24Z</time>
      </trkpt>
      <trkpt lat="41.606272350" lon="2.540585000">
        <ele>116.94</ele>
        <time>2015-02-15T10:09:33Z</time>
      </trkpt>
      <trkpt lat="41.606273100" lon="2.540589770">
        <ele>116.94</ele>
        <time>2015-02-15T10:09:34Z</time>
      </trkpt>
      <trkpt lat="41.606276630" lon="2.540634870">
        <ele>116.94</ele>
        <time>2015-02-15T10:09:37Z</time>
      </trkpt>
      <trkpt lat="41.606333450" lon="2.540715170">
        <ele>117.42</ele>
        <time>2015-02-15T10:09:44Z</time>
      </trkpt>
      <trkpt lat="41.606475860" lon="2.540781640">
        <ele>117.90</ele>
        <time>2015-02-15T10:09:53Z</time>
      </trkpt>
      <trkpt lat="41.606583650" lon="2.540952790">
        <ele>119.34</ele>
        <time>2015-02-15T10:10:01Z</time>
      </trkpt>
      <trkpt lat="41.606631930" lon="2.541159660">
        <ele>120.30</ele>
        <time>2015-02-15T10:10:09Z</time>
      </trkpt>
      <trkpt lat="41.606696810" lon="2.541336350">
        <ele>121.26</ele>
        <time>2015-02-15T10:10:16Z</time>
      </trkpt>
      <trkpt lat="41.606733270" lon="2.541553610">
        <ele>122.71</ele>
        <time>2015-02-15T10:10:24Z</time>
      </trkpt>
      <trkpt lat="41.606814490" lon="2.541779080">
        <ele>124.15</ele>
        <time>2015-02-15T10:10:33Z</time>
      </trkpt>
      <trkpt lat="41.606885570" lon="2.541977060">
        <ele>125.59</ele>
        <time>2015-02-15T10:10:40Z</time>
      </trkpt>
      <trkpt lat="41.606973250" lon="2.542176130">
        <ele>126.55</ele>
        <time>2015-02-15T10:10:48Z</time>
      </trkpt>
      <trkpt lat="41.607029820" lon="2.542308480">
        <ele>127.51</ele>
        <time>2015-02-15T10:10:54Z</time>
      </trkpt>
      <trkpt lat="41.607072240" lon="2.542353160">
        <ele>127.99</ele>
        <time>2015-02-15T10:11:02Z</time>
      </trkpt>
      <trkpt lat="41.607092860" lon="2.542379140">
        <ele>128.95</ele>
        <time>2015-02-15T10:11:11Z</time>
      </trkpt>
      <trkpt lat="41.607085060" lon="2.542393480">
        <ele>129.43</ele>
        <time>2015-02-15T10:11:24Z</time>
      </trkpt>
    </trkseg>
  </trk>
</gpx>
